Darstellungsparameter: Aktuell verwendete Einstellungen:
Skalierung der Graphiken ... ?
xyx+y,   Skalierungsfaktor:      Skalierung: Modus: x, Faktor: 1
Darstellungszeitraum ... ?
Vom - - bis: - -   Zeitraum: 28.02.2003 - 07.03.2003
Min/Max/Avg-Anzeige ... ?
Zeige MMA aktuell
Zeige MMA Monat
Zeige MMA alles
Zeige --A aktuell
Zeige --A Monat
Zeige --A alles
Keine MMA-Anzeige
MMA:
Average (ber die Originaldaten)
MMA-Basis: 28.02.2003 - 07.03.2003
Quicknavigation für Darstellung... ?
Tage:      1T, 2T, 3T, 5T -1T -2T -3T -5T +1T +2T +3T +5T
Wochen: 1W, 2W, 3W -1W -2W -3W +1W +2W +3W
Monate: 1M, 3M, 6M -1M -3M -6M +1M +3M +6M
Jahre:    1J, 3J, 5J, 10J -1J -3J -5J -10J +1J +3J +5J +10J
Nutze für die Darstellung ... ?
Originaldaten oder Mittelwerte auf ...
Stundenbasis Tagesbasis Wochenbasis
Monatsbasis Jahresbasis      Datenbasis: Original-Daten
Darstellen als:
Statistik (Auto) Statistik J:M      Darstellung:
Zur Graphik,    zurück zur Übersicht aller Sensoren.
 
Tabellarische Datenbersicht: ?
 
Sensor: Nr:Datum:Temp:Abs-Feuchte:Windchill:Wind:
Aussen-T/F 1 28-02-2003 00:00:10 4.4 C 4.7 g/m*3 4.4 C 0 km/h
2 28-02-2003 00:02:10 4.4 C 4.7 g/m*3 4.4 C 0 km/h
3 28-02-2003 00:06:10 4.3 C 4.67 g/m*3 4.3 C 0 km/h
4 28-02-2003 00:08:10 4.3 C 4.67 g/m*3 4.3 C 0 km/h
5 28-02-2003 00:12:10 4 C 4.64 g/m*3 4 C 0 km/h
6 28-02-2003 00:14:10 4 C 4.64 g/m*3 4 C 0 km/h
7 28-02-2003 00:18:10 3.8 C 4.64 g/m*3 3.8 C 0 km/h
8 28-02-2003 00:20:10 3.8 C 4.64 g/m*3 3.8 C 0 km/h
9 28-02-2003 00:24:10 3.8 C 4.71 g/m*3 3.8 C 0 km/h
10 28-02-2003 00:26:10 3.8 C 4.71 g/m*3 3.8 C 0 km/h
11 28-02-2003 00:30:10 3.8 C 4.71 g/m*3 3.8 C 0 km/h
12 28-02-2003 00:32:10 3.8 C 4.71 g/m*3 3.8 C 0 km/h
13 28-02-2003 00:36:10 3.7 C 4.67 g/m*3 3.7 C 0 km/h
14 28-02-2003 00:38:10 3.7 C 4.67 g/m*3 3.7 C 0 km/h
15 28-02-2003 00:42:10 3.6 C 4.64 g/m*3 3.6 C 0 km/h
16 28-02-2003 00:44:10 3.6 C 4.64 g/m*3 3.6 C 0 km/h
17 28-02-2003 00:48:10 3.5 C 4.61 g/m*3 3.5 C 0 km/h
18 28-02-2003 00:50:10 3.5 C 4.61 g/m*3 3.5 C 0 km/h
19 28-02-2003 00:54:10 3.5 C 4.61 g/m*3 3.5 C 0 km/h
20 28-02-2003 00:56:10 3.5 C 4.61 g/m*3 3.5 C 0 km/h
21 28-02-2003 01:00:10 3.6 C 4.64 g/m*3 3.6 C 0 km/h
22 28-02-2003 01:02:10 3.6 C 4.64 g/m*3 3.6 C 0 km/h
23 28-02-2003 01:06:10 3.6 C 4.7 g/m*3 3.6 C 0 km/h
24 28-02-2003 01:08:10 3.6 C 4.7 g/m*3 3.6 C 0 km/h
25 28-02-2003 01:12:10 3.4 C 4.64 g/m*3 3.4 C 0 km/h
Sensor: Nr:Datum:Temp:Abs-Feuchte:Windchill:Wind:
Aussen-T/F 26 28-02-2003 01:14:10 3.4 C 4.64 g/m*3 3.4 C 0 km/h
27 28-02-2003 01:18:10 3.4 C 4.64 g/m*3 3.4 C 0 km/h
28 28-02-2003 01:20:10 3.4 C 4.64 g/m*3 3.4 C 0 km/h
29 28-02-2003 01:24:10 3.6 C 4.7 g/m*3 3.6 C 0 km/h
30 28-02-2003 01:26:10 3.6 C 4.7 g/m*3 3.6 C 0 km/h
31 28-02-2003 01:30:10 3.7 C 4.74 g/m*3 3.7 C 0 km/h
32 28-02-2003 01:32:10 3.7 C 4.74 g/m*3 3.7 C 0 km/h
33 28-02-2003 01:36:10 3.8 C 4.77 g/m*3 3.8 C 0 km/h
34 28-02-2003 01:38:10 3.8 C 4.77 g/m*3 3.8 C 0 km/h
35 28-02-2003 01:42:10 3.8 C 4.71 g/m*3 3.8 C 0 km/h
36 28-02-2003 01:44:10 3.8 C 4.71 g/m*3 3.8 C 0 km/h
37 28-02-2003 01:48:10 4 C 4.7 g/m*3 4 C 0 km/h
38 28-02-2003 01:50:10 4 C 4.7 g/m*3 4 C 0 km/h
39 28-02-2003 01:54:10 4 C 4.7 g/m*3 4 C 0 km/h
40 28-02-2003 01:56:10 4 C 4.7 g/m*3 4 C 0 km/h
41 28-02-2003 02:00:10 4.1 C 4.67 g/m*3 4.1 C 0 km/h
42 28-02-2003 02:02:10 4.1 C 4.67 g/m*3 4.1 C 0 km/h
43 28-02-2003 02:06:10 3.8 C 4.64 g/m*3 3.8 C 0 km/h
44 28-02-2003 02:08:10 3.8 C 4.64 g/m*3 3.8 C 0 km/h
45 28-02-2003 02:12:10 3.8 C 4.71 g/m*3 3.8 C 0 km/h
46 28-02-2003 02:14:10 3.8 C 4.71 g/m*3 3.8 C 0 km/h
47 28-02-2003 02:18:10 3.8 C 4.71 g/m*3 3.8 C 0 km/h
48 28-02-2003 02:20:10 3.8 C 4.71 g/m*3 3.8 C 0 km/h
49 28-02-2003 02:24:10 3.9 C 4.74 g/m*3 3.9 C 0 km/h
50 28-02-2003 02:26:10 3.9 C 4.74 g/m*3 3.9 C 0 km/h
Sensor: Nr:Datum:Temp:Abs-Feuchte:Windchill:Wind:
Aussen-T/F 51 28-02-2003 02:30:10 3.8 C 4.71 g/m*3 3.8 C 0 km/h
52 28-02-2003 02:32:10 3.8 C 4.71 g/m*3 3.8 C 0 km/h
53 28-02-2003 02:36:10 3.7 C 4.67 g/m*3 3.7 C 0 km/h
54 28-02-2003 02:38:10 3.7 C 4.67 g/m*3 3.7 C 0 km/h
55 28-02-2003 02:42:10 3.6 C 4.64 g/m*3 3.6 C 0 km/h
56 28-02-2003 02:44:10 3.6 C 4.64 g/m*3 3.6 C 0 km/h
57 28-02-2003 02:48:10 3.5 C 4.61 g/m*3 3.5 C 0 km/h
58 28-02-2003 02:50:10 3.5 C 4.61 g/m*3 3.5 C 0 km/h
59 28-02-2003 02:54:10 3.4 C 4.58 g/m*3 3.4 C 0 km/h
60 28-02-2003 02:56:10 3.4 C 4.58 g/m*3 3.4 C 0 km/h
61 28-02-2003 03:00:10 3.3 C 4.61 g/m*3 3.3 C 0 km/h
62 28-02-2003 03:02:10 3.3 C 4.61 g/m*3 3.3 C 0 km/h
63 28-02-2003 03:06:10 3.2 C 4.58 g/m*3 3.2 C 0 km/h
64 28-02-2003 03:08:10 3.2 C 4.58 g/m*3 3.2 C 0 km/h
65 28-02-2003 03:12:10 3.1 C 4.61 g/m*3 3.1 C 0 km/h
66 28-02-2003 03:14:10 3.1 C 4.61 g/m*3 3.1 C 0 km/h
67 28-02-2003 03:18:10 3.2 C 4.7 g/m*3 3.2 C 0 km/h
68 28-02-2003 03:20:10 3.2 C 4.7 g/m*3 3.2 C 0 km/h
69 28-02-2003 03:24:10 3.4 C 4.7 g/m*3 3.4 C 0 km/h
70 28-02-2003 03:26:10 3.4 C 4.7 g/m*3 3.4 C 0 km/h
71 28-02-2003 03:30:10 3.4 C 4.7 g/m*3 3.4 C 0 km/h
72 28-02-2003 03:32:10 3.4 C 4.7 g/m*3 3.4 C 0 km/h
73 28-02-2003 03:36:10 3.5 C 4.67 g/m*3 3.5 C 0 km/h
74 28-02-2003 03:38:10 3.5 C 4.67 g/m*3 3.5 C 0 km/h
75 28-02-2003 03:42:10 3.5 C 4.67 g/m*3 3.5 C 0 km/h
Sensor: Nr:Datum:Temp:Abs-Feuchte:Windchill:Wind:
Aussen-T/F 76 28-02-2003 03:44:10 3.5 C 4.67 g/m*3 3.5 C 0 km/h
77 28-02-2003 03:48:10 3.6 C 4.7 g/m*3 3.6 C 0 km/h
78 28-02-2003 03:50:10 3.6 C 4.7 g/m*3 3.6 C 0 km/h
79 28-02-2003 03:54:10 3.5 C 4.61 g/m*3 3.5 C 0 km/h
80 28-02-2003 03:56:10 3.5 C 4.61 g/m*3 3.5 C 0 km/h
81 28-02-2003 04:00:10 3.4 C 4.64 g/m*3 3.4 C 0 km/h
82 28-02-2003 04:02:10 3.4 C 4.64 g/m*3 3.4 C 0 km/h
83 28-02-2003 04:06:10 3.4 C 4.64 g/m*3 3.4 C 0 km/h
84 28-02-2003 04:08:10 3.4 C 4.64 g/m*3 3.4 C 0 km/h
85 28-02-2003 04:12:10 3.2 C 4.58 g/m*3 3.2 C 0 km/h
86 28-02-2003 04:14:10 3.2 C 4.58 g/m*3 3.2 C 0 km/h
87 28-02-2003 04:18:10 2.9 C 4.55 g/m*3 2.9 C 0 km/h
88 28-02-2003 04:20:10 2.9 C 4.55 g/m*3 2.9 C 0 km/h
89 28-02-2003 04:24:10 2.9 C 4.61 g/m*3 2.9 C 0 km/h
90 28-02-2003 04:26:10 2.9 C 4.61 g/m*3 2.9 C 0 km/h
91 28-02-2003 04:30:10 3 C 4.64 g/m*3 3 C 0 km/h
92 28-02-2003 04:32:10 3 C 4.64 g/m*3 3 C 0 km/h
93 28-02-2003 04:36:10 3.1 C 4.67 g/m*3 3.1 C 0 km/h
94 28-02-2003 04:38:10 3.1 C 4.67 g/m*3 3.1 C 0 km/h
95 28-02-2003 04:42:10 3.3 C 4.67 g/m*3 3.3 C 0 km/h
96 28-02-2003 04:44:10 3.3 C 4.67 g/m*3 3.3 C 0 km/h
97 28-02-2003 04:48:10 3.3 C 4.67 g/m*3 3.3 C 0 km/h
98 28-02-2003 04:50:10 3.3 C 4.67 g/m*3 3.3 C 0 km/h
99 28-02-2003 04:54:10 3.3 C 4.67 g/m*3 3.3 C 0 km/h
100 28-02-2003 04:56:10 3.3 C 4.67 g/m*3 3.3 C 0 km/h
Sensor: Nr:Datum:Temp:Abs-Feuchte:Windchill:Wind:
Aussen-T/F 101 28-02-2003 05:00:10 3.4 C 4.7 g/m*3 3.4 C 0 km/h
102 28-02-2003 05:02:10 3.4 C 4.7 g/m*3 3.4 C 0 km/h
103 28-02-2003 05:06:10 3.5 C 4.67 g/m*3 3.5 C 0 km/h
104 28-02-2003 05:08:10 3.5 C 4.67 g/m*3 3.5 C 0 km/h
105 28-02-2003 05:12:10 3.5 C 4.67 g/m*3 3.5 C 0 km/h
106 28-02-2003 05:14:10 3.5 C 4.67 g/m*3 3.5 C 0 km/h
107 28-02-2003 05:18:10 3.5 C 4.67 g/m*3 3.5 C 0 km/h
108 28-02-2003 05:20:10 3.5 C 4.67 g/m*3 3.5 C 0 km/h
109 28-02-2003 05:24:10 3.6 C 4.7 g/m*3 3.6 C 0 km/h
110 28-02-2003 05:26:10 3.6 C 4.7 g/m*3 3.6 C 0 km/h
111 28-02-2003 05:30:10 3.5 C 4.67 g/m*3 3.5 C 0 km/h
112 28-02-2003 05:32:10 3.5 C 4.67 g/m*3 3.5 C 0 km/h
113 28-02-2003 05:36:10 3.5 C 4.67 g/m*3 3.5 C 0 km/h
114 28-02-2003 05:38:10 3.5 C 4.67 g/m*3 3.5 C 0 km/h
115 28-02-2003 05:42:10 3.4 C 4.64 g/m*3 3.4 C 0 km/h
116 28-02-2003 05:44:10 3.4 C 4.64 g/m*3 3.4 C 0 km/h
117 28-02-2003 05:48:10 3.4 C 4.64 g/m*3 3.4 C 0 km/h
118 28-02-2003 05:50:10 3.4 C 4.64 g/m*3 3.4 C 0 km/h
119 28-02-2003 05:54:10 3.4 C 4.64 g/m*3 3.4 C 0 km/h
120 28-02-2003 05:56:10 3.4 C 4.64 g/m*3 3.4 C 0 km/h
121 28-02-2003 06:00:10 3.5 C 4.67 g/m*3 3.5 C 0 km/h
122 28-02-2003 06:02:10 3.5 C 4.67 g/m*3 3.5 C 0 km/h
123 28-02-2003 06:06:10 3.5 C 4.67 g/m*3 3.5 C 0 km/h
124 28-02-2003 06:08:10 3.5 C 4.67 g/m*3 3.5 C 0 km/h
125 28-02-2003 06:12:10 3.5 C 4.67 g/m*3 3.5 C 0 km/h
Sensor: Nr:Datum:Temp:Abs-Feuchte:Windchill:Wind:
Aussen-T/F 126 28-02-2003 06:14:10 3.5 C 4.67 g/m*3 3.5 C 0 km/h
127 28-02-2003 06:18:10 3.5 C 4.67 g/m*3 3.5 C 0 km/h
128 28-02-2003 06:20:10 3.5 C 4.67 g/m*3 3.5 C 0 km/h
129 28-02-2003 06:24:10 3.5 C 4.67 g/m*3 3.5 C 0 km/h
130 28-02-2003 06:26:10 3.5 C 4.67 g/m*3 3.5 C 0 km/h
131 28-02-2003 06:30:10 3.5 C 4.67 g/m*3 3.5 C 0 km/h
132 28-02-2003 06:32:10 3.5 C 4.67 g/m*3 3.5 C 0 km/h
133 28-02-2003 06:36:10 3.5 C 4.67 g/m*3 3.5 C 0 km/h
134 28-02-2003 06:38:10 3.5 C 4.67 g/m*3 3.5 C 0 km/h
135 28-02-2003 06:42:10 3.5 C 4.67 g/m*3 3.5 C 0 km/h
136 28-02-2003 06:44:10 3.5 C 4.67 g/m*3 3.5 C 0 km/h
137 28-02-2003 06:48:10 3.4 C 4.64 g/m*3 3.4 C 0 km/h
138 28-02-2003 06:50:10 3.4 C 4.64 g/m*3 3.4 C 0 km/h
139 28-02-2003 06:54:10 3.4 C 4.64 g/m*3 3.4 C 0 km/h
140 28-02-2003 06:56:10 3.4 C 4.64 g/m*3 3.4 C 0 km/h
141 28-02-2003 07:00:10 3.4 C 4.64 g/m*3 3.4 C 0 km/h
142 28-02-2003 07:02:10 3.4 C 4.64 g/m*3 3.4 C 0 km/h
143 28-02-2003 07:06:10 3.4 C 4.7 g/m*3 3.4 C 0 km/h
144 28-02-2003 07:08:10 3.4 C 4.7 g/m*3 3.4 C 0 km/h
145 28-02-2003 07:12:10 3.4 C 4.7 g/m*3 3.4 C 0 km/h
146 28-02-2003 07:14:10 3.4 C 4.7 g/m*3 3.4 C 0 km/h
147 28-02-2003 07:18:10 3.4 C 4.7 g/m*3 3.4 C 0 km/h
148 28-02-2003 07:20:10 3.4 C 4.7 g/m*3 3.4 C 0 km/h
149 28-02-2003 07:24:10 3.4 C 4.7 g/m*3 3.4 C 0 km/h
150 28-02-2003 07:26:10 3.4 C 4.7 g/m*3 3.4 C 0 km/h
Sensor: Nr:Datum:Temp:Abs-Feuchte:Windchill:Wind:
Aussen-T/F 151 28-02-2003 07:30:10 3.4 C 4.7 g/m*3 3.4 C 0 km/h
152 28-02-2003 07:32:10 3.4 C 4.7 g/m*3 3.4 C 0 km/h
153 28-02-2003 07:36:10 3.5 C 4.73 g/m*3 3.5 C 0 km/h
154 28-02-2003 07:38:10 3.5 C 4.73 g/m*3 3.5 C 0 km/h
155 28-02-2003 07:42:10 3.5 C 4.73 g/m*3 3.5 C 0 km/h
156 28-02-2003 07:44:10 3.5 C 4.73 g/m*3 3.5 C 0 km/h
157 28-02-2003 07:48:10 3.5 C 4.73 g/m*3 3.5 C 0 km/h
158 28-02-2003 07:50:10 3.5 C 4.73 g/m*3 3.5 C 0 km/h
159 28-02-2003 07:54:10 3.6 C 4.77 g/m*3 3.6 C 0 km/h
160 28-02-2003 07:56:10 3.6 C 4.77 g/m*3 3.6 C 0 km/h
161 28-02-2003 08:00:10 3.7 C 4.8 g/m*3 3.7 C 0 km/h
162 28-02-2003 08:02:10 3.7 C 4.8 g/m*3 3.7 C 0 km/h
163 28-02-2003 08:06:10 3.7 C 4.74 g/m*3 3.7 C 0 km/h
164 28-02-2003 08:08:10 3.7 C 4.74 g/m*3 3.7 C 0 km/h
165 28-02-2003 08:12:10 3.7 C 4.74 g/m*3 3.7 C 0 km/h
166 28-02-2003 08:14:10 3.7 C 4.74 g/m*3 3.7 C 0 km/h
167 28-02-2003 08:18:10 3.8 C 4.77 g/m*3 3.8 C 0 km/h
168 28-02-2003 08:20:10 3.8 C 4.77 g/m*3 3.8 C 0 km/h
169 28-02-2003 08:24:10 3.8 C 4.77 g/m*3 3.8 C 0 km/h
170 28-02-2003 08:26:10 3.8 C 4.77 g/m*3 3.8 C 0 km/h
171 28-02-2003 08:30:10 3.8 C 4.77 g/m*3 3.8 C 0 km/h
172 28-02-2003 08:32:10 3.8 C 4.77 g/m*3 3.8 C 0 km/h
173 28-02-2003 08:36:10 3.9 C 4.74 g/m*3 3.9 C 0 km/h
174 28-02-2003 08:38:10 3.9 C 4.74 g/m*3 3.9 C 0 km/h
175 28-02-2003 08:42:10 4 C 4.7 g/m*3 4 C 0 km/h
Sensor: Nr:Datum:Temp:Abs-Feuchte:Windchill:Wind:
Aussen-T/F 176 28-02-2003 08:44:10 4 C 4.7 g/m*3 4 C 0 km/h
177 28-02-2003 08:48:10 4.3 C 4.8 g/m*3 4.3 C 0 km/h
178 28-02-2003 08:50:10 4.3 C 4.8 g/m*3 4.3 C 0 km/h
179 28-02-2003 08:54:10 4.2 C 4.77 g/m*3 4.2 C 0 km/h
180 28-02-2003 08:56:10 4.2 C 4.77 g/m*3 4.2 C 0 km/h
181 28-02-2003 09:00:10 4.3 C 4.8 g/m*3 4.3 C 0 km/h
182 28-02-2003 09:02:10 4.3 C 4.8 g/m*3 4.3 C 0 km/h
183 28-02-2003 09:06:10 4.3 C 4.8 g/m*3 4.3 C 0 km/h
184 28-02-2003 09:08:10 4.3 C 4.8 g/m*3 4.3 C 0 km/h
185 28-02-2003 09:12:10 4.4 C 4.83 g/m*3 4.4 C 0 km/h
186 28-02-2003 09:14:10 4.4 C 4.83 g/m*3 4.4 C 0 km/h
187 28-02-2003 09:18:10 4.4 C 4.83 g/m*3 4.4 C 0 km/h
188 28-02-2003 09:20:10 4.4 C 4.83 g/m*3 4.4 C 0 km/h
189 28-02-2003 09:24:10 4.5 C 4.86 g/m*3 4.5 C 0 km/h
190 28-02-2003 09:26:10 4.5 C 4.86 g/m*3 4.5 C 0 km/h
191 28-02-2003 09:30:10 4.6 C 4.9 g/m*3 4.6 C 0 km/h
192 28-02-2003 09:32:10 4.6 C 4.9 g/m*3 4.6 C 0 km/h
193 28-02-2003 09:36:10 4.7 C 4.86 g/m*3 4.7 C 0 km/h
194 28-02-2003 09:38:10 4.7 C 4.86 g/m*3 4.7 C 0 km/h
195 28-02-2003 09:42:10 4.7 C 4.86 g/m*3 4.7 C 0 km/h
196 28-02-2003 09:44:10 4.7 C 4.86 g/m*3 4.7 C 0 km/h
197 28-02-2003 09:48:10 4.8 C 4.83 g/m*3 4.8 C 0 km/h
198 28-02-2003 09:50:10 4.8 C 4.83 g/m*3 4.8 C 0 km/h
199 28-02-2003 09:54:10 4.9 C 4.86 g/m*3 4.9 C 0 km/h
200 28-02-2003 09:56:10 4.9 C 4.86 g/m*3 4.9 C 0 km/h
Sensor: Nr:Datum:Temp:Abs-Feuchte:Windchill:Wind:
Aussen-T/F 201 28-02-2003 10:00:10 4.9 C 4.86 g/m*3 4.9 C 0 km/h
202 28-02-2003 10:02:10 4.9 C 4.86 g/m*3 4.9 C 0 km/h
203 28-02-2003 10:06:10 5.1 C 4.86 g/m*3 5.1 C 0 km/h
204 28-02-2003 10:08:10 5.1 C 4.86 g/m*3 5.1 C 0 km/h
205 28-02-2003 10:12:10 5.3 C 4.92 g/m*3 5.3 C 0 km/h
206 28-02-2003 10:14:10 5.3 C 4.92 g/m*3 5.3 C 0 km/h
207 28-02-2003 10:18:10 5.6 C 4.95 g/m*3 5.6 C 0 km/h
208 28-02-2003 10:20:10 5.6 C 4.95 g/m*3 5.6 C 0 km/h
209 28-02-2003 10:24:10 5.8 C 5.01 g/m*3 5.8 C 0 km/h
210 28-02-2003 10:26:10 5.8 C 5.01 g/m*3 5.8 C 0 km/h
211 28-02-2003 10:30:10 6 C 4.94 g/m*3 6 C 0 km/h
212 28-02-2003 10:32:10 6 C 4.94 g/m*3 6 C 0 km/h
213 28-02-2003 10:36:10 6.3 C 4.96 g/m*3 6.3 C 0 km/h
214 28-02-2003 10:38:10 6.3 C 4.96 g/m*3 6.3 C 0 km/h
215 28-02-2003 10:42:10 6.5 C 4.95 g/m*3 6.5 C 0 km/h
216 28-02-2003 10:44:10 6.5 C 4.95 g/m*3 6.5 C 0 km/h
217 28-02-2003 10:48:10 6.9 C 5.08 g/m*3 6.9 C 0 km/h
218 28-02-2003 10:50:10 6.9 C 5.08 g/m*3 6.9 C 0 km/h
219 28-02-2003 10:54:10 7.1 C 4.99 g/m*3 7.1 C 0 km/h
220 28-02-2003 10:56:10 7.1 C 4.99 g/m*3 7.1 C 0 km/h
221 28-02-2003 11:00:10 7.3 C 4.98 g/m*3 7.3 C 0 km/h
222 28-02-2003 11:02:10 7.3 C 4.98 g/m*3 7.3 C 0 km/h
223 28-02-2003 11:06:10 7.4 C 4.93 g/m*3 7.4 C 0 km/h
224 28-02-2003 11:08:10 7.4 C 4.93 g/m*3 7.4 C 0 km/h
225 28-02-2003 11:12:10 7.6 C 4.99 g/m*3 7.6 C 0 km/h
Sensor: Nr:Datum:Temp:Abs-Feuchte:Windchill:Wind:
Aussen-T/F 226 28-02-2003 11:14:10 7.6 C 4.99 g/m*3 7.6 C 0 km/h
227 28-02-2003 11:18:10 7.4 C 4.85 g/m*3 7.4 C 0 km/h
228 28-02-2003 11:20:10 7.4 C 4.85 g/m*3 7.4 C 0 km/h
229 28-02-2003 11:24:10 7.5 C 4.96 g/m*3 7.5 C 0 km/h
230 28-02-2003 11:26:10 7.5 C 4.96 g/m*3 7.5 C 0 km/h
231 28-02-2003 11:30:10 7.9 C 5.09 g/m*3 7.9 C 0 km/h
232 28-02-2003 11:32:10 7.9 C 5.09 g/m*3 7.9 C 0 km/h
233 28-02-2003 11:36:10 8 C 4.96 g/m*3 8 C 0 km/h
234 28-02-2003 11:38:10 8 C 4.96 g/m*3 8 C 0 km/h
235 28-02-2003 11:42:10 8.2 C 5.02 g/m*3 8.2 C 0 km/h
236 28-02-2003 11:44:10 8.2 C 5.02 g/m*3 8.2 C 0 km/h
237 28-02-2003 11:48:10 8.4 C 5.09 g/m*3 8.4 C 0 km/h
238 28-02-2003 11:50:10 8.4 C 5.09 g/m*3 8.4 C 0 km/h
239 28-02-2003 11:54:10 8.9 C 5.26 g/m*3 8.9 C 0 km/h
240 28-02-2003 11:56:10 8.9 C 5.26 g/m*3 8.9 C 0 km/h
241 28-02-2003 12:00:41 9.1 C 5.23 g/m*3 9.1 C 0 km/h
242 28-02-2003 12:02:10 9.1 C 5.23 g/m*3 9.1 C 0 km/h
243 28-02-2003 12:06:41 9.5 C 5.28 g/m*3 9.5 C 0 km/h
244 28-02-2003 12:08:10 9.5 C 5.28 g/m*3 9.5 C 0 km/h
245 28-02-2003 12:12:41 9.8 C 5.29 g/m*3 9.8 C 0 km/h
246 28-02-2003 12:14:10 9.8 C 5.29 g/m*3 9.8 C 0 km/h
247 28-02-2003 12:18:41 10.1 C 5.3 g/m*3 10.1 C 0 km/h
248 28-02-2003 12:20:10 10.1 C 5.3 g/m*3 10.1 C 0 km/h
249 28-02-2003 12:24:41 10.3 C 5.36 g/m*3 10.3 C 0 km/h
250 28-02-2003 12:26:10 10.3 C 5.36 g/m*3 10.3 C 0 km/h
Sensor: Nr:Datum:Temp:Abs-Feuchte:Windchill:Wind:
Aussen-T/F 251 28-02-2003 12:30:41 10.5 C 5.43 g/m*3 10.5 C 0 km/h
252 28-02-2003 12:32:10 10.5 C 5.43 g/m*3 10.5 C 0 km/h
253 28-02-2003 12:36:41 10.8 C 5.54 g/m*3 10.8 C 0 km/h
254 28-02-2003 12:38:10 10.8 C 5.54 g/m*3 10.8 C 0 km/h
255 28-02-2003 12:42:41 11 C 5.41 g/m*3 11 C 0 km/h
256 28-02-2003 12:44:10 11 C 5.41 g/m*3 11 C 0 km/h
257 28-02-2003 12:48:41 11.3 C 5.61 g/m*3 11.3 C 0 km/h
258 28-02-2003 12:50:10 11.3 C 5.61 g/m*3 11.3 C 0 km/h
259 28-02-2003 12:54:41 11.3 C 5.61 g/m*3 11.3 C 0 km/h
260 28-02-2003 12:56:10 11.3 C 5.61 g/m*3 11.3 C 0 km/h
261 28-02-2003 13:00:41 11.4 C 5.75 g/m*3 11.4 C 0 km/h
262 28-02-2003 13:02:10 11.4 C 5.75 g/m*3 11.4 C 0 km/h
263 28-02-2003 13:06:41 11.8 C 5.89 g/m*3 11.8 C 0 km/h
264 28-02-2003 13:08:10 11.8 C 5.89 g/m*3 11.8 C 0 km/h
265 28-02-2003 13:12:41 12 C 5.86 g/m*3 12 C 0 km/h
266 28-02-2003 13:14:10 12 C 5.86 g/m*3 12 C 0 km/h
267 28-02-2003 13:18:41 12 C 5.86 g/m*3 12 C 0 km/h
268 28-02-2003 13:20:10 12 C 5.86 g/m*3 12 C 0 km/h
269 28-02-2003 13:24:41 12.1 C 5.79 g/m*3 12.1 C 0 km/h
270 28-02-2003 13:26:10 12.1 C 5.79 g/m*3 12.1 C 0 km/h
271 28-02-2003 13:30:41 12.3 C 5.97 g/m*3 12.3 C 0 km/h
272 28-02-2003 13:32:10 12.3 C 5.97 g/m*3 12.3 C 0 km/h
273 28-02-2003 13:36:41 12.5 C 6.05 g/m*3 12.5 C 0 km/h
274 28-02-2003 13:38:10 12.5 C 6.05 g/m*3 12.5 C 0 km/h
275 28-02-2003 13:42:41 12.3 C 5.97 g/m*3 12.3 C 0 km/h
Sensor: Nr:Datum:Temp:Abs-Feuchte:Windchill:Wind:
Aussen-T/F 276 28-02-2003 13:44:10 12.3 C 5.97 g/m*3 12.3 C 0 km/h
277 28-02-2003 13:48:41 12.7 C 6.12 g/m*3 12.7 C 0 km/h
278 28-02-2003 13:50:10 12.7 C 6.12 g/m*3 12.7 C 0 km/h
279 28-02-2003 13:54:41 12.8 C 6.16 g/m*3 12.8 C 0 km/h
280 28-02-2003 13:56:10 12.8 C 6.16 g/m*3 12.8 C 0 km/h
281 28-02-2003 14:00:11 12.5 C 6.05 g/m*3 12.5 C 0 km/h
282 28-02-2003 14:02:10 12.5 C 6.05 g/m*3 12.5 C 0 km/h
283 28-02-2003 14:06:11 12.7 C 6.23 g/m*3 12.7 C 0 km/h
284 28-02-2003 14:08:10 12.7 C 6.23 g/m*3 12.7 C 0 km/h
285 28-02-2003 14:12:11 12.7 C 6.12 g/m*3 12.7 C 0 km/h
286 28-02-2003 14:14:10 12.7 C 6.12 g/m*3 12.7 C 0 km/h
287 28-02-2003 14:18:11 12.8 C 6.16 g/m*3 12.8 C 0 km/h
288 28-02-2003 14:20:10 12.8 C 6.16 g/m*3 12.8 C 0 km/h
289 28-02-2003 14:24:11 12.9 C 6.2 g/m*3 12.9 C 0 km/h
290 28-02-2003 14:26:10 12.9 C 6.2 g/m*3 12.9 C 0 km/h
291 28-02-2003 14:30:11 13 C 6.12 g/m*3 13 C 0 km/h
292 28-02-2003 14:32:10 13 C 6.12 g/m*3 13 C 0 km/h
293 28-02-2003 14:36:11 13.1 C 6.16 g/m*3 13.1 C 0 km/h
294 28-02-2003 14:38:10 13.1 C 6.16 g/m*3 13.1 C 0 km/h
295 28-02-2003 14:42:11 13.3 C 6.24 g/m*3 13.3 C 0 km/h
296 28-02-2003 14:44:10 13.3 C 6.24 g/m*3 13.3 C 0 km/h
297 28-02-2003 14:48:11 13.2 C 6.2 g/m*3 13.2 C 0 km/h
298 28-02-2003 14:50:10 13.2 C 6.2 g/m*3 13.2 C 0 km/h
299 28-02-2003 14:54:11 13.7 C 6.39 g/m*3 13.7 C 0 km/h
300 28-02-2003 14:56:10 13.7 C 6.39 g/m*3 13.7 C 0 km/h
Sensor: Nr:Datum:Temp:Abs-Feuchte:Windchill:Wind:
Aussen-T/F 301 28-02-2003 15:00:11 13.8 C 6.31 g/m*3 13.8 C 0 km/h
302 28-02-2003 15:02:10 13.8 C 6.31 g/m*3 13.8 C 0 km/h
303 28-02-2003 15:06:11 13.7 C 6.28 g/m*3 13.7 C 0 km/h
304 28-02-2003 15:08:10 13.7 C 6.28 g/m*3 13.7 C 0 km/h
305 28-02-2003 15:12:11 13.7 C 6.28 g/m*3 13.7 C 0 km/h
306 28-02-2003 15:14:10 13.7 C 6.28 g/m*3 13.7 C 0 km/h
307 28-02-2003 15:18:11 13.5 C 6.32 g/m*3 13.5 C 0 km/h
308 28-02-2003 15:20:10 13.5 C 6.32 g/m*3 13.5 C 0 km/h
309 28-02-2003 15:24:11 14 C 6.27 g/m*3 14 C 0 km/h
310 28-02-2003 15:26:10 14 C 6.27 g/m*3 14 C 0 km/h
311 28-02-2003 15:30:11 13.6 C 6.24 g/m*3 13.6 C 0 km/h
312 28-02-2003 15:32:10 13.6 C 6.24 g/m*3 13.6 C 0 km/h
313 28-02-2003 15:36:11 13.3 C 6.35 g/m*3 13.3 C 0 km/h
314 28-02-2003 15:38:10 13.3 C 6.35 g/m*3 13.3 C 0 km/h
315 28-02-2003 15:42:11 12.8 C 6.38 g/m*3 12.8 C 0 km/h
316 28-02-2003 15:44:10 12.8 C 6.38 g/m*3 12.8 C 0 km/h
317 28-02-2003 15:48:11 12.9 C 6.42 g/m*3 12.9 C 0 km/h
318 28-02-2003 15:50:10 12.9 C 6.42 g/m*3 12.9 C 0 km/h
319 28-02-2003 15:54:11 13.3 C 6.35 g/m*3 13.3 C 0 km/h
320 28-02-2003 15:56:10 13.3 C 6.35 g/m*3 13.3 C 0 km/h
321 28-02-2003 16:00:57 13.8 C 6.43 g/m*3 13.8 C 0 km/h
322 28-02-2003 16:02:10 13.8 C 6.43 g/m*3 13.8 C 0 km/h
323 28-02-2003 16:06:57 13.5 C 6.32 g/m*3 13.5 C 0 km/h
324 28-02-2003 16:08:10 13.5 C 6.32 g/m*3 13.5 C 0 km/h
325 28-02-2003 16:12:57 13.7 C 6.51 g/m*3 13.7 C 0 km/h
Sensor: Nr:Datum:Temp:Abs-Feuchte:Windchill:Wind:
Aussen-T/F 326 28-02-2003 16:14:10 13.7 C 6.51 g/m*3 13.7 C 0 km/h
327 28-02-2003 16:18:57 13.8 C 6.43 g/m*3 13.8 C 0 km/h
328 28-02-2003 16:20:10 13.8 C 6.43 g/m*3 13.8 C 0 km/h
329 28-02-2003 16:24:57 13.6 C 6.36 g/m*3 13.6 C 0 km/h
330 28-02-2003 16:26:10 13.6 C 6.36 g/m*3 13.6 C 0 km/h
331 28-02-2003 16:30:57 13.5 C 6.43 g/m*3 13.5 C 0 km/h
332 28-02-2003 16:32:10 13.5 C 6.43 g/m*3 13.5 C 0 km/h
333 28-02-2003 16:36:57 13.3 C 6.35 g/m*3 13.3 C 0 km/h
334 28-02-2003 16:38:10 13.3 C 6.35 g/m*3 13.3 C 0 km/h
335 28-02-2003 16:42:57 13.2 C 6.32 g/m*3 13.2 C 0 km/h
336 28-02-2003 16:44:10 13.2 C 6.32 g/m*3 13.2 C 0 km/h
337 28-02-2003 16:48:11 13 C 6.24 g/m*3 13 C 0 km/h
338 28-02-2003 16:50:10 13 C 6.24 g/m*3 13 C 0 km/h
339 28-02-2003 16:54:11 12.8 C 6.38 g/m*3 12.8 C 0 km/h
340 28-02-2003 16:56:10 12.8 C 6.38 g/m*3 12.8 C 0 km/h
341 28-02-2003 17:00:11 13 C 6.35 g/m*3 13 C 0 km/h
342 28-02-2003 17:02:10 13 C 6.35 g/m*3 13 C 0 km/h
343 28-02-2003 17:06:11 12.9 C 6.42 g/m*3 12.9 C 0 km/h
344 28-02-2003 17:08:10 12.9 C 6.42 g/m*3 12.9 C 0 km/h
345 28-02-2003 17:12:11 12.8 C 6.38 g/m*3 12.8 C 0 km/h
346 28-02-2003 17:14:10 12.8 C 6.38 g/m*3 12.8 C 0 km/h
347 28-02-2003 17:18:11 12.5 C 6.38 g/m*3 12.5 C 0 km/h
348 28-02-2003 17:20:10 12.5 C 6.38 g/m*3 12.5 C 0 km/h
349 28-02-2003 17:24:11 12.3 C 6.3 g/m*3 12.3 C 0 km/h
350 28-02-2003 17:26:10 12.3 C 6.3 g/m*3 12.3 C 0 km/h
Sensor: Nr:Datum:Temp:Abs-Feuchte:Windchill:Wind:
Aussen-T/F 351 28-02-2003 17:30:11 12.1 C 6.33 g/m*3 12.1 C 0 km/h
352 28-02-2003 17:32:10 12.1 C 6.33 g/m*3 12.1 C 0 km/h
353 28-02-2003 17:36:11 11.8 C 6.31 g/m*3 11.8 C 0 km/h
354 28-02-2003 17:38:10 11.8 C 6.31 g/m*3 11.8 C 0 km/h
355 28-02-2003 17:42:11 11.2 C 6.18 g/m*3 11.2 C 0 km/h
356 28-02-2003 17:44:10 11.2 C 6.18 g/m*3 11.2 C 0 km/h
357 28-02-2003 17:48:11 11.1 C 6.14 g/m*3 11.1 C 0 km/h
358 28-02-2003 17:50:10 11.1 C 6.14 g/m*3 11.1 C 0 km/h
359 28-02-2003 17:54:11 10.7 C 6.19 g/m*3 10.7 C 0 km/h
360 28-02-2003 17:56:10 10.7 C 6.19 g/m*3 10.7 C 0 km/h
361 28-02-2003 18:00:11 10.6 C 6.15 g/m*3 10.6 C 0 km/h
362 28-02-2003 18:02:10 10.6 C 6.15 g/m*3 10.6 C 0 km/h
363 28-02-2003 18:06:11 10.5 C 6.11 g/m*3 10.5 C 0 km/h
364 28-02-2003 18:08:10 10.5 C 6.11 g/m*3 10.5 C 0 km/h
365 28-02-2003 18:12:11 10.4 C 6.17 g/m*3 10.4 C 0 km/h
366 28-02-2003 18:14:10 10.4 C 6.17 g/m*3 10.4 C 0 km/h
367 28-02-2003 18:18:11 10.3 C 6.13 g/m*3 10.3 C 0 km/h
368 28-02-2003 18:20:10 10.3 C 6.13 g/m*3 10.3 C 0 km/h
369 28-02-2003 18:24:11 10.2 C 6 g/m*3 10.2 C 0 km/h
370 28-02-2003 18:26:10 10.2 C 6 g/m*3 10.2 C 0 km/h
371 28-02-2003 18:30:11 10 C 6.01 g/m*3 10 C 0 km/h
372 28-02-2003 18:32:10 10 C 6.01 g/m*3 10 C 0 km/h
373 28-02-2003 18:36:11 10 C 6.01 g/m*3 10 C 0 km/h
374 28-02-2003 18:38:10 10 C 6.01 g/m*3 10 C 0 km/h
375 28-02-2003 18:42:11 10 C 6.01 g/m*3 10 C 0 km/h
Sensor: Nr:Datum:Temp:Abs-Feuchte:Windchill:Wind:
Aussen-T/F 376 28-02-2003 18:44:10 10 C 6.01 g/m*3 10 C 0 km/h
377 28-02-2003 18:48:11 9.9 C 6.07 g/m*3 9.9 C 0 km/h
378 28-02-2003 18:50:10 9.9 C 6.07 g/m*3 9.9 C 0 km/h
379 28-02-2003 18:54:11 9.9 C 6.16 g/m*3 9.9 C 0 km/h
380 28-02-2003 18:56:10 9.9 C 6.16 g/m*3 9.9 C 0 km/h
381 28-02-2003 19:00:11 9.9 C 6.16 g/m*3 9.9 C 0 km/h
382 28-02-2003 19:02:10 9.9 C 6.16 g/m*3 9.9 C 0 km/h
383 28-02-2003 19:06:11 9.8 C 6.03 g/m*3 9.8 C 0 km/h
384 28-02-2003 19:08:10 9.8 C 6.03 g/m*3 9.8 C 0 km/h
385 28-02-2003 19:12:11 9.6 C 6.05 g/m*3 9.6 C 0 km/h
386 28-02-2003 19:14:10 9.6 C 6.05 g/m*3 9.6 C 0 km/h
387 28-02-2003 19:24:11 9.1 C 5.86 g/m*3 9.1 C 0 km/h
388 28-02-2003 19:26:10 9.1 C 5.86 g/m*3 9.1 C 0 km/h
389 28-02-2003 19:30:11 8.8 C 5.92 g/m*3 8.8 C 0 km/h
390 28-02-2003 19:32:10 8.8 C 5.92 g/m*3 8.8 C 0 km/h
391 28-02-2003 19:36:11 8.7 C 5.97 g/m*3 8.7 C 0 km/h
392 28-02-2003 19:38:10 8.7 C 5.97 g/m*3 8.7 C 0 km/h
393 28-02-2003 19:42:11 8.5 C 5.89 g/m*3 8.5 C 0 km/h
394 28-02-2003 19:44:10 8.5 C 5.89 g/m*3 8.5 C 0 km/h
395 28-02-2003 19:48:11 8.2 C 5.86 g/m*3 8.2 C 0 km/h
396 28-02-2003 19:50:10 8.2 C 5.86 g/m*3 8.2 C 0 km/h
397 28-02-2003 19:54:11 8 C 5.79 g/m*3 8 C 0 km/h
398 28-02-2003 19:56:10 8 C 5.79 g/m*3 8 C 0 km/h
399 28-02-2003 20:01:10 7.9 C 5.91 g/m*3 7.9 C 0 km/h
400 28-02-2003 20:02:10 7.9 C 5.91 g/m*3 7.9 C 0 km/h
Sensor: Nr:Datum:Temp:Abs-Feuchte:Windchill:Wind:
Aussen-T/F 401 28-02-2003 20:07:10 8 C 5.87 g/m*3 8 C 0 km/h
402 28-02-2003 20:08:10 8 C 5.87 g/m*3 8 C 0 km/h
403 28-02-2003 20:13:10 7.8 C 5.88 g/m*3 7.8 C 0 km/h
404 28-02-2003 20:14:10 7.8 C 5.88 g/m*3 7.8 C 0 km/h
405 28-02-2003 20:19:10 7.7 C 5.84 g/m*3 7.7 C 0 km/h
406 28-02-2003 20:20:10 7.7 C 5.84 g/m*3 7.7 C 0 km/h
407 28-02-2003 20:25:10 7.5 C 5.84 g/m*3 7.5 C 0 km/h
408 28-02-2003 20:26:10 7.5 C 5.84 g/m*3 7.5 C 0 km/h
409 28-02-2003 20:31:10 7.3 C 5.77 g/m*3 7.3 C 0 km/h
410 28-02-2003 20:32:10 7.3 C 5.77 g/m*3 7.3 C 0 km/h
411 28-02-2003 20:37:10 7.2 C 5.73 g/m*3 7.2 C 0 km/h
412 28-02-2003 20:38:10 7.2 C 5.73 g/m*3 7.2 C 0 km/h
413 28-02-2003 20:43:10 7.1 C 5.77 g/m*3 7.1 C 0 km/h
414 28-02-2003 20:44:10 7.1 C 5.77 g/m*3 7.1 C 0 km/h
415 28-02-2003 20:49:10 7 C 5.73 g/m*3 7 C 0 km/h
416 28-02-2003 20:50:10 7 C 5.73 g/m*3 7 C 0 km/h
417 28-02-2003 20:55:10 6.9 C 5.77 g/m*3 6.9 C 0 km/h
418 28-02-2003 20:56:10 6.9 C 5.77 g/m*3 6.9 C 0 km/h
419 28-02-2003 21:01:10 6.8 C 5.74 g/m*3 6.8 C 0 km/h
420 28-02-2003 21:02:10 6.8 C 5.74 g/m*3 6.8 C 0 km/h
421 28-02-2003 21:07:10 6.7 C 5.77 g/m*3 6.7 C 0 km/h
422 28-02-2003 21:08:10 6.7 C 5.77 g/m*3 6.7 C 0 km/h
423 28-02-2003 21:13:10 6.6 C 5.74 g/m*3 6.6 C 0 km/h
424 28-02-2003 21:14:10 6.6 C 5.74 g/m*3 6.6 C 0 km/h
425 28-02-2003 21:19:10 6.5 C 5.77 g/m*3 6.5 C 0 km/h
Sensor: Nr:Datum:Temp:Abs-Feuchte:Windchill:Wind:
Aussen-T/F 426 28-02-2003 21:20:10 6.5 C 5.77 g/m*3 6.5 C 0 km/h
427 28-02-2003 21:25:10 6.4 C 5.74 g/m*3 6.4 C 0 km/h
428 28-02-2003 21:26:10 6.4 C 5.74 g/m*3 6.4 C 0 km/h
429 28-02-2003 21:31:10 6.2 C 5.66 g/m*3 6.2 C 0 km/h
430 28-02-2003 21:32:10 6.2 C 5.66 g/m*3 6.2 C 0 km/h
431 28-02-2003 21:37:10 6 C 5.52 g/m*3 6 C 0 km/h
432 28-02-2003 21:38:10 6 C 5.52 g/m*3 6 C 0 km/h
433 28-02-2003 21:43:10 5.8 C 5.59 g/m*3 5.8 C 0 km/h
434 28-02-2003 21:44:10 5.8 C 5.59 g/m*3 5.8 C 0 km/h
435 28-02-2003 21:49:10 5.7 C 5.62 g/m*3 5.7 C 0 km/h
436 28-02-2003 21:50:10 5.7 C 5.62 g/m*3 5.7 C 0 km/h
437 28-02-2003 21:55:10 5.6 C 5.59 g/m*3 5.6 C 0 km/h
438 28-02-2003 21:56:10 5.6 C 5.59 g/m*3 5.6 C 0 km/h
439 28-02-2003 22:01:10 5.6 C 5.66 g/m*3 5.6 C 0 km/h
440 28-02-2003 22:02:10 5.6 C 5.66 g/m*3 5.6 C 0 km/h
441 28-02-2003 22:07:10 5.5 C 5.62 g/m*3 5.5 C 0 km/h
442 28-02-2003 22:08:10 5.5 C 5.62 g/m*3 5.5 C 0 km/h
443 28-02-2003 22:13:10 5.4 C 5.65 g/m*3 5.4 C 0 km/h
444 28-02-2003 22:14:10 5.4 C 5.65 g/m*3 5.4 C 0 km/h
445 28-02-2003 22:19:10 5.4 C 5.65 g/m*3 5.4 C 0 km/h
446 28-02-2003 22:20:10 5.4 C 5.65 g/m*3 5.4 C 0 km/h
447 28-02-2003 22:25:10 5.3 C 5.61 g/m*3 5.3 C 0 km/h
448 28-02-2003 22:26:10 5.3 C 5.61 g/m*3 5.3 C 0 km/h
449 28-02-2003 22:31:10 5.4 C 5.72 g/m*3 5.4 C 0 km/h
450 28-02-2003 22:32:10 5.4 C 5.72 g/m*3 5.4 C 0 km/h
Sensor: Nr:Datum:Temp:Abs-Feuchte:Windchill:Wind:
Aussen-T/F 451 28-02-2003 22:37:10 5.4 C 5.72 g/m*3 5.4 C 0 km/h
452 28-02-2003 22:38:10 5.4 C 5.72 g/m*3 5.4 C 0 km/h
453 28-02-2003 22:43:10 5.4 C 5.72 g/m*3 5.4 C 0 km/h
454 28-02-2003 22:44:10 5.4 C 5.72 g/m*3 5.4 C 0 km/h
455 28-02-2003 22:49:10 5.5 C 5.76 g/m*3 5.5 C 0 km/h
456 28-02-2003 22:50:10 5.5 C 5.76 g/m*3 5.5 C 0 km/h
457 28-02-2003 22:55:10 5.4 C 5.65 g/m*3 5.4 C 0 km/h
458 28-02-2003 22:56:10 5.4 C 5.65 g/m*3 5.4 C 0 km/h
459 28-02-2003 23:01:10 5.4 C 5.65 g/m*3 5.4 C 0 km/h
460 28-02-2003 23:02:10 5.4 C 5.65 g/m*3 5.4 C 0 km/h
461 28-02-2003 23:07:10 5.4 C 5.58 g/m*3 5.4 C 0 km/h
462 28-02-2003 23:08:10 5.4 C 5.58 g/m*3 5.4 C 0 km/h
463 28-02-2003 23:13:10 5.2 C 5.51 g/m*3 5.2 C 0 km/h
464 28-02-2003 23:14:10 5.2 C 5.51 g/m*3 5.2 C 0 km/h
465 28-02-2003 23:19:10 5.2 C 5.65 g/m*3 5.2 C 0 km/h
466 28-02-2003 23:20:10 5.2 C 5.65 g/m*3 5.2 C 0 km/h
467 28-02-2003 23:25:10 5.3 C 5.68 g/m*3 5.3 C 0 km/h
468 28-02-2003 23:26:10 5.3 C 5.68 g/m*3 5.3 C 0 km/h
469 28-02-2003 23:31:10 5.3 C 5.68 g/m*3 5.3 C 0 km/h
470 28-02-2003 23:32:10 5.3 C 5.68 g/m*3 5.3 C 0 km/h
471 28-02-2003 23:37:10 5.3 C 5.68 g/m*3 5.3 C 0 km/h
472 28-02-2003 23:38:10 5.3 C 5.68 g/m*3 5.3 C 0 km/h
473 28-02-2003 23:43:10 5.4 C 5.72 g/m*3 5.4 C 0 km/h
474 28-02-2003 23:44:10 5.4 C 5.72 g/m*3 5.4 C 0 km/h
475 28-02-2003 23:49:10 5.4 C 5.72 g/m*3 5.4 C 0 km/h
Sensor: Nr:Datum:Temp:Abs-Feuchte:Windchill:Wind:
Aussen-T/F 476 28-02-2003 23:50:10 5.4 C 5.72 g/m*3 5.4 C 0 km/h
477 28-02-2003 23:55:10 5.4 C 5.72 g/m*3 5.4 C 0 km/h
478 28-02-2003 23:56:10 5.4 C 5.72 g/m*3 5.4 C 0 km/h
479 01-03-2003 00:01:10 5.2 C 5.58 g/m*3 5.2 C 0 km/h
480 01-03-2003 00:02:10 5.2 C 5.58 g/m*3 5.2 C 0 km/h
481 01-03-2003 00:07:10 5.2 C 5.65 g/m*3 5.2 C 0 km/h
482 01-03-2003 00:08:10 5.2 C 5.65 g/m*3 5.2 C 0 km/h
483 01-03-2003 00:13:10 5.1 C 5.61 g/m*3 5.1 C 0 km/h
484 01-03-2003 00:14:10 5.1 C 5.61 g/m*3 5.1 C 0 km/h
485 01-03-2003 00:19:10 4.7 C 5.46 g/m*3 4.7 C 0 km/h
486 01-03-2003 00:20:10 4.7 C 5.46 g/m*3 4.7 C 0 km/h
487 01-03-2003 00:25:10 4.5 C 5.39 g/m*3 4.5 C 0 km/h
488 01-03-2003 00:26:10 4.5 C 5.39 g/m*3 4.5 C 0 km/h
489 01-03-2003 00:31:10 4.5 C 5.46 g/m*3 4.5 C 0 km/h
490 01-03-2003 00:32:10 4.5 C 5.46 g/m*3 4.5 C 0 km/h
491 01-03-2003 00:37:10 4.4 C 5.48 g/m*3 4.4 C 0 km/h
492 01-03-2003 00:38:10 4.4 C 5.48 g/m*3 4.4 C 0 km/h
493 01-03-2003 00:43:10 4.5 C 5.59 g/m*3 4.5 C 0 km/h
494 01-03-2003 00:44:10 4.5 C 5.59 g/m*3 4.5 C 0 km/h
495 01-03-2003 00:49:10 4.5 C 5.59 g/m*3 4.5 C 0 km/h
496 01-03-2003 00:50:10 4.5 C 5.59 g/m*3 4.5 C 0 km/h
497 01-03-2003 00:55:10 4.5 C 5.52 g/m*3 4.5 C 0 km/h
498 01-03-2003 00:56:10 4.5 C 5.52 g/m*3 4.5 C 0 km/h
499 01-03-2003 01:01:10 4.4 C 5.42 g/m*3 4.4 C 0 km/h
500 01-03-2003 01:02:10 4.4 C 5.42 g/m*3 4.4 C 0 km/h
Sensor: Nr:Datum:Temp:Abs-Feuchte:Windchill:Wind:
Aussen-T/F 501 01-03-2003 01:07:10 4.3 C 5.38 g/m*3 4.3 C 0 km/h
502 01-03-2003 01:08:10 4.3 C 5.38 g/m*3 4.3 C 0 km/h
503 01-03-2003 01:13:10 4.2 C 5.35 g/m*3 4.2 C 0 km/h
504 01-03-2003 01:14:10 4.2 C 5.35 g/m*3 4.2 C 0 km/h
505 01-03-2003 01:19:10 4.2 C 5.35 g/m*3 4.2 C 0 km/h
506 01-03-2003 01:20:10 4.2 C 5.35 g/m*3 4.2 C 0 km/h
507 01-03-2003 01:25:10 4.3 C 5.38 g/m*3 4.3 C 0 km/h
508 01-03-2003 01:26:10 4.3 C 5.38 g/m*3 4.3 C 0 km/h
509 01-03-2003 01:31:10 4.3 C 5.38 g/m*3 4.3 C 0 km/h
510 01-03-2003 01:32:10 4.3 C 5.38 g/m*3 4.3 C 0 km/h
511 01-03-2003 01:37:10 4.2 C 5.35 g/m*3 4.2 C 0 km/h
512 01-03-2003 01:38:10 4.2 C 5.35 g/m*3 4.2 C 0 km/h
513 01-03-2003 01:43:10 4.2 C 5.35 g/m*3 4.2 C 0 km/h
514 01-03-2003 01:44:10 4.2 C 5.35 g/m*3 4.2 C 0 km/h
515 01-03-2003 01:49:10 4.3 C 5.38 g/m*3 4.3 C 0 km/h
516 01-03-2003 01:50:10 4.3 C 5.38 g/m*3 4.3 C 0 km/h
517 01-03-2003 01:55:10 4.3 C 5.38 g/m*3 4.3 C 0 km/h
518 01-03-2003 01:56:10 4.3 C 5.38 g/m*3 4.3 C 0 km/h
519 01-03-2003 02:01:10 4.3 C 5.38 g/m*3 4.3 C 0 km/h
520 01-03-2003 02:02:10 4.3 C 5.38 g/m*3 4.3 C 0 km/h
521 01-03-2003 02:07:10 4.4 C 5.42 g/m*3 4.4 C 0 km/h
522 01-03-2003 02:08:10 4.4 C 5.42 g/m*3 4.4 C 0 km/h
523 01-03-2003 02:13:10 4.4 C 5.42 g/m*3 4.4 C 0 km/h
524 01-03-2003 02:14:10 4.4 C 5.42 g/m*3 4.4 C 0 km/h
525 01-03-2003 02:19:10 4.5 C 5.46 g/m*3 4.5 C 0 km/h
Sensor: Nr:Datum:Temp:Abs-Feuchte:Windchill:Wind:
Aussen-T/F 526 01-03-2003 02:20:10 4.5 C 5.46 g/m*3 4.5 C 0 km/h
527 01-03-2003 02:25:10 4.5 C 5.39 g/m*3 4.5 C 0 km/h
528 01-03-2003 02:26:10 4.5 C 5.39 g/m*3 4.5 C 0 km/h
529 01-03-2003 02:31:10 4.6 C 5.49 g/m*3 4.6 C 0 km/h
530 01-03-2003 02:32:10 4.6 C 5.49 g/m*3 4.6 C 0 km/h
531 01-03-2003 02:37:10 4.7 C 5.46 g/m*3 4.7 C 0 km/h
532 01-03-2003 02:38:10 4.7 C 5.46 g/m*3 4.7 C 0 km/h
533 01-03-2003 02:43:10 4.7 C 5.46 g/m*3 4.7 C 0 km/h
534 01-03-2003 02:44:10 4.7 C 5.46 g/m*3 4.7 C 0 km/h
535 01-03-2003 02:49:10 4.6 C 5.49 g/m*3 4.6 C 0 km/h
536 01-03-2003 02:50:10 4.6 C 5.49 g/m*3 4.6 C 0 km/h
537 01-03-2003 02:50:37 4.6 C 5.49 g/m*3 4.6 C 0 km/h
538 01-03-2003 02:55:10 4.7 C 5.53 g/m*3 4.7 C 0 km/h
539 01-03-2003 02:56:37 4.7 C 5.53 g/m*3 4.7 C 0 km/h
540 01-03-2003 03:01:10 4.6 C 5.56 g/m*3 4.6 C 0 km/h
541 01-03-2003 03:02:37 4.6 C 5.56 g/m*3 4.6 C 0 km/h
542 01-03-2003 03:07:10 4.5 C 5.59 g/m*3 4.5 C 0 km/h
543 01-03-2003 03:08:37 4.5 C 5.59 g/m*3 4.5 C 0 km/h
544 01-03-2003 03:13:10 4.4 C 5.62 g/m*3 4.4 C 0 km/h
545 01-03-2003 03:14:37 4.4 C 5.62 g/m*3 4.4 C 0 km/h
546 01-03-2003 03:19:10 4.3 C 5.58 g/m*3 4.3 C 0 km/h
547 01-03-2003 03:20:37 4.3 C 5.58 g/m*3 4.3 C 0 km/h
548 01-03-2003 03:25:10 4.3 C 5.64 g/m*3 4.3 C 0 km/h
549 01-03-2003 03:26:37 4.3 C 5.64 g/m*3 4.3 C 0 km/h
550 01-03-2003 03:31:10 4.3 C 5.71 g/m*3 4.3 C 0 km/h
Sensor: Nr:Datum:Temp:Abs-Feuchte:Windchill:Wind:
Aussen-T/F 551 01-03-2003 03:32:37 4.3 C 5.71 g/m*3 4.3 C 0 km/h
552 01-03-2003 03:37:10 4.4 C 5.75 g/m*3 4.4 C 0 km/h
553 01-03-2003 03:38:37 4.4 C 5.75 g/m*3 4.4 C 0 km/h
554 01-03-2003 03:43:10 4.4 C 5.81 g/m*3 4.4 C 0 km/h
555 01-03-2003 03:44:37 4.4 C 5.81 g/m*3 4.4 C 0 km/h
556 01-03-2003 03:49:10 4.5 C 5.85 g/m*3 4.5 C 0 km/h
557 01-03-2003 03:50:37 4.5 C 5.85 g/m*3 4.5 C 0 km/h
558 01-03-2003 03:55:10 4.4 C 5.81 g/m*3 4.4 C 0 km/h
559 01-03-2003 03:56:37 4.4 C 5.81 g/m*3 4.4 C 0 km/h
560 01-03-2003 04:01:10 4.4 C 5.88 g/m*3 4.4 C 0 km/h
561 01-03-2003 04:02:37 4.4 C 5.88 g/m*3 4.4 C 0 km/h
562 01-03-2003 04:07:10 4.3 C 5.84 g/m*3 4.3 C 0 km/h
563 01-03-2003 04:08:37 4.3 C 5.84 g/m*3 4.3 C 0 km/h
564 01-03-2003 04:13:10 4.3 C 5.84 g/m*3 4.3 C 0 km/h
565 01-03-2003 04:14:37 4.3 C 5.84 g/m*3 4.3 C 0 km/h
566 01-03-2003 04:19:10 4.4 C 5.94 g/m*3 4.4 C 0 km/h
567 01-03-2003 04:20:37 4.4 C 5.94 g/m*3 4.4 C 0 km/h
568 01-03-2003 04:25:10 4.4 C 5.94 g/m*3 4.4 C 0 km/h
569 01-03-2003 04:26:37 4.4 C 5.94 g/m*3 4.4 C 0 km/h
570 01-03-2003 04:31:10 4.4 C 5.94 g/m*3 4.4 C 0 km/h
571 01-03-2003 04:32:37 4.4 C 5.94 g/m*3 4.4 C 0 km/h
572 01-03-2003 04:37:10 4.6 C 6.02 g/m*3 4.6 C 0 km/h
573 01-03-2003 04:38:37 4.6 C 6.02 g/m*3 4.6 C 0 km/h
574 01-03-2003 04:43:10 4.6 C 6.09 g/m*3 4.6 C 0 km/h
575 01-03-2003 04:44:37 4.6 C 6.09 g/m*3 4.6 C 0 km/h
Sensor: Nr:Datum:Temp:Abs-Feuchte:Windchill:Wind:
Aussen-T/F 576 01-03-2003 04:49:10 4.7 C 6.13 g/m*3 4.7 C 0 km/h
577 01-03-2003 04:50:37 4.7 C 6.13 g/m*3 4.7 C 0 km/h
578 01-03-2003 04:55:10 4.7 C 6.13 g/m*3 4.7 C 0 km/h
579 01-03-2003 04:56:37 4.7 C 6.13 g/m*3 4.7 C 0 km/h
580 01-03-2003 05:01:10 4.6 C 6.09 g/m*3 4.6 C 0 km/h
581 01-03-2003 05:02:37 4.6 C 6.09 g/m*3 4.6 C 0 km/h
582 01-03-2003 05:07:10 4.7 C 6.13 g/m*3 4.7 C 0 km/h
583 01-03-2003 05:08:37 4.7 C 6.13 g/m*3 4.7 C 0 km/h
584 01-03-2003 05:13:10 4.6 C 6.09 g/m*3 4.6 C 0 km/h
585 01-03-2003 05:14:37 4.6 C 6.09 g/m*3 4.6 C 0 km/h
586 01-03-2003 05:19:10 4.7 C 6.13 g/m*3 4.7 C 0 km/h
587 01-03-2003 05:20:37 4.7 C 6.13 g/m*3 4.7 C 0 km/h
588 01-03-2003 05:25:10 4.5 C 6.05 g/m*3 4.5 C 0 km/h
589 01-03-2003 05:26:37 4.5 C 6.05 g/m*3 4.5 C 0 km/h
590 01-03-2003 05:31:10 4.4 C 6.01 g/m*3 4.4 C 0 km/h
591 01-03-2003 05:32:37 4.4 C 6.01 g/m*3 4.4 C 0 km/h
592 01-03-2003 05:37:10 4.4 C 6.01 g/m*3 4.4 C 0 km/h
593 01-03-2003 05:38:37 4.4 C 6.01 g/m*3 4.4 C 0 km/h
594 01-03-2003 05:43:10 4.3 C 5.97 g/m*3 4.3 C 0 km/h
595 01-03-2003 05:44:37 4.3 C 5.97 g/m*3 4.3 C 0 km/h
596 01-03-2003 05:49:10 4.3 C 5.97 g/m*3 4.3 C 0 km/h
597 01-03-2003 05:50:37 4.3 C 5.97 g/m*3 4.3 C 0 km/h
598 01-03-2003 05:55:10 4.3 C 5.97 g/m*3 4.3 C 0 km/h
599 01-03-2003 05:56:37 4.3 C 5.97 g/m*3 4.3 C 0 km/h
600 01-03-2003 06:01:10 4.5 C 6.05 g/m*3 4.5 C 0 km/h
Sensor: Nr:Datum:Temp:Abs-Feuchte:Windchill:Wind:
Aussen-T/F 601 01-03-2003 06:02:37 4.5 C 6.05 g/m*3 4.5 C 0 km/h
602 01-03-2003 06:07:10 4.5 C 6.05 g/m*3 4.5 C 0 km/h
603 01-03-2003 06:08:37 4.5 C 6.05 g/m*3 4.5 C 0 km/h
604 01-03-2003 06:13:10 4.8 C 6.24 g/m*3 4.8 C 0 km/h
605 01-03-2003 06:14:37 4.8 C 6.24 g/m*3 4.8 C 0 km/h
606 01-03-2003 06:19:10 5 C 6.25 g/m*3 5 C 0 km/h
607 01-03-2003 06:20:37 5 C 6.25 g/m*3 5 C 0 km/h
608 01-03-2003 06:25:10 4.9 C 6.28 g/m*3 4.9 C 0 km/h
609 01-03-2003 06:26:37 4.9 C 6.28 g/m*3 4.9 C 0 km/h
610 01-03-2003 06:31:10 5.1 C 6.29 g/m*3 5.1 C 0 km/h
611 01-03-2003 06:32:37 5.1 C 6.29 g/m*3 5.1 C 0 km/h
612 01-03-2003 06:37:10 5.2 C 6.33 g/m*3 5.2 C 0 km/h
613 01-03-2003 06:38:37 5.2 C 6.33 g/m*3 5.2 C 0 km/h
614 01-03-2003 06:43:10 5.4 C 6.42 g/m*3 5.4 C 0 km/h
615 01-03-2003 06:44:37 5.4 C 6.42 g/m*3 5.4 C 0 km/h
616 01-03-2003 06:49:10 5.7 C 6.62 g/m*3 5.7 C 0 km/h
617 01-03-2003 06:50:37 5.7 C 6.62 g/m*3 5.7 C 0 km/h
618 01-03-2003 06:55:10 6 C 6.75 g/m*3 6 C 0 km/h
619 01-03-2003 06:56:37 6 C 6.75 g/m*3 6 C 0 km/h
620 01-03-2003 07:01:10 6.3 C 6.88 g/m*3 6.3 C 0 km/h
621 01-03-2003 07:02:37 6.3 C 6.88 g/m*3 6.3 C 0 km/h
622 01-03-2003 07:07:10 6.5 C 6.9 g/m*3 6.5 C 0 km/h
623 01-03-2003 07:08:37 6.5 C 6.9 g/m*3 6.5 C 0 km/h
624 01-03-2003 07:13:10 6.7 C 6.91 g/m*3 6.7 C 0 km/h
625 01-03-2003 07:14:37 6.7 C 6.91 g/m*3 6.7 C 0 km/h
Sensor: Nr:Datum:Temp:Abs-Feuchte:Windchill:Wind:
Aussen-T/F 626 01-03-2003 07:19:10 6.8 C 6.96 g/m*3 6.8 C 0 km/h
627 01-03-2003 07:20:37 6.8 C 6.96 g/m*3 6.8 C 0 km/h
628 01-03-2003 07:25:10 7 C 6.97 g/m*3 7 C 0 km/h
629 01-03-2003 07:26:37 7 C 6.97 g/m*3 7 C 0 km/h
630 01-03-2003 07:31:10 7.3 C 7.03 g/m*3 7.3 C 0 km/h
631 01-03-2003 07:32:37 7.3 C 7.03 g/m*3 7.3 C 0 km/h
632 01-03-2003 07:37:10 7.6 C 7.09 g/m*3 7.6 C 0 km/h
633 01-03-2003 07:38:37 7.6 C 7.09 g/m*3 7.6 C 0 km/h
634 01-03-2003 07:43:10 7.7 C 7.05 g/m*3 7.7 C 0 km/h
635 01-03-2003 07:44:37 7.7 C 7.05 g/m*3 7.7 C 0 km/h
636 01-03-2003 07:49:10 7.8 C 7.02 g/m*3 7.8 C 0 km/h
637 01-03-2003 07:50:37 7.8 C 7.02 g/m*3 7.8 C 0 km/h
638 01-03-2003 07:55:10 7.9 C 6.98 g/m*3 7.9 C 0 km/h
639 01-03-2003 07:56:37 7.9 C 6.98 g/m*3 7.9 C 0 km/h
640 01-03-2003 08:01:10 8 C 6.94 g/m*3 8 C 0 km/h
641 01-03-2003 08:02:37 8 C 6.94 g/m*3 8 C 0 km/h
642 01-03-2003 08:07:10 8 C 6.86 g/m*3 8 C 0 km/h
643 01-03-2003 08:08:37 8 C 6.86 g/m*3 8 C 0 km/h
644 01-03-2003 08:13:10 8.1 C 6.91 g/m*3 8.1 C 0 km/h
645 01-03-2003 08:14:37 8.1 C 6.91 g/m*3 8.1 C 0 km/h
646 01-03-2003 08:19:10 8.1 C 6.91 g/m*3 8.1 C 0 km/h
647 01-03-2003 08:20:37 8.1 C 6.91 g/m*3 8.1 C 0 km/h
648 01-03-2003 08:25:10 8.2 C 6.87 g/m*3 8.2 C 0 km/h
649 01-03-2003 08:26:37 8.2 C 6.87 g/m*3 8.2 C 0 km/h
650 01-03-2003 08:31:10 8.1 C 6.91 g/m*3 8.1 C 0 km/h
Sensor: Nr:Datum:Temp:Abs-Feuchte:Windchill:Wind:
Aussen-T/F 651 01-03-2003 08:32:37 8.1 C 6.91 g/m*3 8.1 C 0 km/h
652 01-03-2003 08:37:10 8.1 C 6.91 g/m*3 8.1 C 0 km/h
653 01-03-2003 08:38:37 8.1 C 6.91 g/m*3 8.1 C 0 km/h
654 01-03-2003 08:43:10 8 C 6.86 g/m*3 8 C 0 km/h
655 01-03-2003 08:44:37 8 C 6.86 g/m*3 8 C 0 km/h
656 01-03-2003 08:49:10 7.9 C 6.98 g/m*3 7.9 C 0 km/h
657 01-03-2003 08:50:37 7.9 C 6.98 g/m*3 7.9 C 0 km/h
658 01-03-2003 08:55:10 7.8 C 6.94 g/m*3 7.8 C 0 km/h
659 01-03-2003 08:56:37 7.8 C 6.94 g/m*3 7.8 C 0 km/h
660 01-03-2003 09:01:10 7.8 C 7.02 g/m*3 7.8 C 0 km/h
661 01-03-2003 09:02:37 7.8 C 7.02 g/m*3 7.8 C 0 km/h
662 01-03-2003 09:07:10 7.9 C 7.06 g/m*3 7.9 C 0 km/h
663 01-03-2003 09:08:37 7.9 C 7.06 g/m*3 7.9 C 0 km/h
664 01-03-2003 09:13:10 7.9 C 7.06 g/m*3 7.9 C 0 km/h
665 01-03-2003 09:14:37 7.9 C 7.06 g/m*3 7.9 C 0 km/h
666 01-03-2003 09:19:10 8 C 6.94 g/m*3 8 C 0 km/h
667 01-03-2003 09:20:37 8 C 6.94 g/m*3 8 C 0 km/h
668 01-03-2003 09:25:10 8.1 C 6.99 g/m*3 8.1 C 0 km/h
669 01-03-2003 09:26:37 8.1 C 6.99 g/m*3 8.1 C 0 km/h
670 01-03-2003 09:31:10 8.2 C 7.03 g/m*3 8.2 C 0 km/h
671 01-03-2003 09:32:37 8.2 C 7.03 g/m*3 8.2 C 0 km/h
672 01-03-2003 09:37:10 8.2 C 7.03 g/m*3 8.2 C 0 km/h
673 01-03-2003 09:38:37 8.2 C 7.03 g/m*3 8.2 C 0 km/h
674 01-03-2003 09:43:10 8.3 C 7 g/m*3 8.3 C 0 km/h
675 01-03-2003 09:44:37 8.3 C 7 g/m*3 8.3 C 0 km/h
Sensor: Nr:Datum:Temp:Abs-Feuchte:Windchill:Wind:
Aussen-T/F 676 01-03-2003 09:49:10 8.4 C 7.04 g/m*3 8.4 C 0 km/h
677 01-03-2003 09:50:37 8.4 C 7.04 g/m*3 8.4 C 0 km/h
678 01-03-2003 09:55:10 8.5 C 7.09 g/m*3 8.5 C 0 km/h
679 01-03-2003 09:56:37 8.5 C 7.09 g/m*3 8.5 C 0 km/h
680 01-03-2003 10:01:10 8.7 C 7.09 g/m*3 8.7 C 0 km/h
681 01-03-2003 10:02:37 8.7 C 7.09 g/m*3 8.7 C 0 km/h
682 01-03-2003 10:07:10 8.8 C 7.14 g/m*3 8.8 C 0 km/h
683 01-03-2003 10:08:37 8.8 C 7.14 g/m*3 8.8 C 0 km/h
684 01-03-2003 10:13:10 8.9 C 7.1 g/m*3 8.9 C 0 km/h
685 01-03-2003 10:14:37 8.9 C 7.1 g/m*3 8.9 C 0 km/h
686 01-03-2003 10:19:10 8.9 C 7.1 g/m*3 8.9 C 0 km/h
687 01-03-2003 10:20:37 8.9 C 7.1 g/m*3 8.9 C 0 km/h
688 01-03-2003 10:25:10 8.9 C 7.1 g/m*3 8.9 C 0 km/h
689 01-03-2003 10:26:37 8.9 C 7.1 g/m*3 8.9 C 0 km/h
690 01-03-2003 10:31:10 8.9 C 7.1 g/m*3 8.9 C 0 km/h
691 01-03-2003 10:32:37 8.9 C 7.1 g/m*3 8.9 C 0 km/h
692 01-03-2003 10:37:10 8.9 C 7.1 g/m*3 8.9 C 0 km/h
693 01-03-2003 10:38:37 8.9 C 7.1 g/m*3 8.9 C 0 km/h
694 01-03-2003 10:43:10 8.9 C 7.1 g/m*3 8.9 C 0 km/h
695 01-03-2003 10:44:37 8.9 C 7.1 g/m*3 8.9 C 0 km/h
696 01-03-2003 10:49:10 9 C 6.96 g/m*3 9 C 0 km/h
697 01-03-2003 10:50:37 9 C 6.96 g/m*3 9 C 0 km/h
698 01-03-2003 10:55:10 9 C 6.96 g/m*3 9 C 0 km/h
699 01-03-2003 10:56:37 9 C 6.96 g/m*3 9 C 0 km/h
700 01-03-2003 11:01:10 9.1 C 7.01 g/m*3 9.1 C 0 km/h
Sensor: Nr:Datum:Temp:Abs-Feuchte:Windchill:Wind:
Aussen-T/F 701 01-03-2003 11:02:37 9.1 C 7.01 g/m*3 9.1 C 0 km/h
702 01-03-2003 11:07:10 9.2 C 7.05 g/m*3 9.2 C 0 km/h
703 01-03-2003 11:08:37 9.2 C 7.05 g/m*3 9.2 C 0 km/h
704 01-03-2003 11:13:10 9.3 C 7.01 g/m*3 9.3 C 0 km/h
705 01-03-2003 11:14:37 9.3 C 7.01 g/m*3 9.3 C 0 km/h
706 01-03-2003 11:19:10 9.3 C 7.01 g/m*3 9.3 C 0 km/h
707 01-03-2003 11:20:37 9.3 C 7.01 g/m*3 9.3 C 0 km/h
708 01-03-2003 11:25:10 9.4 C 7.05 g/m*3 9.4 C 0 km/h
709 01-03-2003 11:26:37 9.4 C 7.05 g/m*3 9.4 C 0 km/h
710 01-03-2003 11:31:10 9.4 C 7.05 g/m*3 9.4 C 0 km/h
711 01-03-2003 11:32:37 9.4 C 7.05 g/m*3 9.4 C 0 km/h
712 01-03-2003 11:37:10 9.6 C 7.05 g/m*3 9.6 C 0 km/h
713 01-03-2003 11:38:37 9.6 C 7.05 g/m*3 9.6 C 0 km/h
714 01-03-2003 11:43:10 9.6 C 7.05 g/m*3 9.6 C 0 km/h
715 01-03-2003 11:44:37 9.6 C 7.05 g/m*3 9.6 C 0 km/h
716 01-03-2003 11:49:10 9.6 C 7.05 g/m*3 9.6 C 0 km/h
717 01-03-2003 11:50:37 9.6 C 7.05 g/m*3 9.6 C 0 km/h
718 01-03-2003 11:55:10 9.7 C 7.01 g/m*3 9.7 C 0 km/h
719 01-03-2003 11:56:37 9.7 C 7.01 g/m*3 9.7 C 0 km/h
720 01-03-2003 12:01:10 9.7 C 7.01 g/m*3 9.7 C 0 km/h
721 01-03-2003 12:02:37 9.7 C 7.01 g/m*3 9.7 C 0 km/h
722 01-03-2003 12:07:10 9.8 C 7.05 g/m*3 9.8 C 0 km/h
723 01-03-2003 12:08:37 9.8 C 7.05 g/m*3 9.8 C 0 km/h
724 01-03-2003 12:13:10 9.8 C 7.05 g/m*3 9.8 C 0 km/h
725 01-03-2003 12:14:37 9.8 C 7.05 g/m*3 9.8 C 0 km/h
Sensor: Nr:Datum:Temp:Abs-Feuchte:Windchill:Wind:
Aussen-T/F 726 01-03-2003 12:19:10 9.9 C 7 g/m*3 9.9 C 0 km/h
727 01-03-2003 12:20:37 9.9 C 7 g/m*3 9.9 C 0 km/h
728 01-03-2003 12:25:10 10 C 6.86 g/m*3 10 C 0 km/h
729 01-03-2003 12:26:37 10 C 6.86 g/m*3 10 C 0 km/h
730 01-03-2003 12:31:10 9.9 C 7 g/m*3 9.9 C 0 km/h
731 01-03-2003 12:32:37 9.9 C 7 g/m*3 9.9 C 0 km/h
732 01-03-2003 12:37:10 9.8 C 6.96 g/m*3 9.8 C 0 km/h
733 01-03-2003 12:38:37 9.8 C 6.96 g/m*3 9.8 C 0 km/h
734 01-03-2003 12:43:10 9.8 C 6.96 g/m*3 9.8 C 0 km/h
735 01-03-2003 12:44:37 9.8 C 6.96 g/m*3 9.8 C 0 km/h
736 01-03-2003 12:49:10 9.9 C 7 g/m*3 9.9 C 0 km/h
737 01-03-2003 12:50:37 9.9 C 7 g/m*3 9.9 C 0 km/h
738 01-03-2003 12:55:10 10 C 6.95 g/m*3 10 C 0 km/h
739 01-03-2003 12:56:37 10 C 6.95 g/m*3 10 C 0 km/h
740 01-03-2003 13:01:10 10.1 C 6.9 g/m*3 10.1 C 0 km/h
741 01-03-2003 13:02:37 10.1 C 6.9 g/m*3 10.1 C 0 km/h
742 01-03-2003 13:07:10 10 C 6.86 g/m*3 10 C 0 km/h
743 01-03-2003 13:08:37 10 C 6.86 g/m*3 10 C 0 km/h
744 01-03-2003 13:13:10 10 C 6.86 g/m*3 10 C 0 km/h
745 01-03-2003 13:14:37 10 C 6.86 g/m*3 10 C 0 km/h
746 01-03-2003 13:19:10 10 C 6.86 g/m*3 10 C 0 km/h
747 01-03-2003 13:20:37 10 C 6.86 g/m*3 10 C 0 km/h
748 01-03-2003 13:25:10 10 C 6.86 g/m*3 10 C 0 km/h
749 01-03-2003 13:26:37 10 C 6.86 g/m*3 10 C 0 km/h
750 01-03-2003 13:31:10 10 C 6.86 g/m*3 10 C 0 km/h
Sensor: Nr:Datum:Temp:Abs-Feuchte:Windchill:Wind:
Aussen-T/F 751 01-03-2003 13:32:37 10 C 6.86 g/m*3 10 C 0 km/h
752 01-03-2003 13:37:10 10.1 C 7 g/m*3 10.1 C 0 km/h
753 01-03-2003 13:38:37 10.1 C 7 g/m*3 10.1 C 0 km/h
754 01-03-2003 13:43:10 10.1 C 6.9 g/m*3 10.1 C 0 km/h
755 01-03-2003 13:44:37 10.1 C 6.9 g/m*3 10.1 C 0 km/h
756 01-03-2003 13:49:10 10.2 C 6.95 g/m*3 10.2 C 0 km/h
757 01-03-2003 13:50:37 10.2 C 6.95 g/m*3 10.2 C 0 km/h
758 01-03-2003 13:55:10 10.2 C 6.95 g/m*3 10.2 C 0 km/h
759 01-03-2003 13:56:37 10.2 C 6.95 g/m*3 10.2 C 0 km/h
760 01-03-2003 14:01:10 10.2 C 6.85 g/m*3 10.2 C 0 km/h
761 01-03-2003 14:02:37 10.2 C 6.85 g/m*3 10.2 C 0 km/h
762 01-03-2003 14:07:10 10.4 C 6.94 g/m*3 10.4 C 0 km/h
763 01-03-2003 14:08:37 10.4 C 6.94 g/m*3 10.4 C 0 km/h
764 01-03-2003 14:13:10 10.5 C 6.98 g/m*3 10.5 C 0 km/h
765 01-03-2003 14:14:37 10.5 C 6.98 g/m*3 10.5 C 0 km/h
766 01-03-2003 14:19:10 10.6 C 7.03 g/m*3 10.6 C 0 km/h
767 01-03-2003 14:20:37 10.6 C 7.03 g/m*3 10.6 C 0 km/h
768 01-03-2003 14:25:10 10.9 C 7.06 g/m*3 10.9 C 0 km/h
769 01-03-2003 14:26:37 10.9 C 7.06 g/m*3 10.9 C 0 km/h
770 01-03-2003 14:31:10 11 C 7.01 g/m*3 11 C 0 km/h
771 01-03-2003 14:32:37 11 C 7.01 g/m*3 11 C 0 km/h
772 01-03-2003 14:37:10 11.1 C 7.05 g/m*3 11.1 C 0 km/h
773 01-03-2003 14:38:37 11.1 C 7.05 g/m*3 11.1 C 0 km/h
774 01-03-2003 14:43:10 11.3 C 7.04 g/m*3 11.3 C 0 km/h
775 01-03-2003 14:44:37 11.3 C 7.04 g/m*3 11.3 C 0 km/h
Sensor: Nr:Datum:Temp:Abs-Feuchte:Windchill:Wind:
Aussen-T/F 776 01-03-2003 14:49:10 11.5 C 7.13 g/m*3 11.5 C 0 km/h
777 01-03-2003 14:50:37 11.5 C 7.13 g/m*3 11.5 C 0 km/h
778 01-03-2003 14:55:10 11.6 C 7.07 g/m*3 11.6 C 0 km/h
779 01-03-2003 14:56:37 11.6 C 7.07 g/m*3 11.6 C 0 km/h
780 01-03-2003 15:01:10 11.7 C 7.11 g/m*3 11.7 C 0 km/h
781 01-03-2003 15:02:37 11.7 C 7.11 g/m*3 11.7 C 0 km/h
782 01-03-2003 15:07:10 11.7 C 7.11 g/m*3 11.7 C 0 km/h
783 01-03-2003 15:08:37 11.7 C 7.11 g/m*3 11.7 C 0 km/h
784 01-03-2003 15:13:10 11.8 C 7.16 g/m*3 11.8 C 0 km/h
785 01-03-2003 15:14:37 11.8 C 7.16 g/m*3 11.8 C 0 km/h
786 01-03-2003 15:19:10 11.7 C 7.22 g/m*3 11.7 C 0 km/h
787 01-03-2003 15:20:37 11.7 C 7.22 g/m*3 11.7 C 0 km/h
788 01-03-2003 15:25:10 11.8 C 7.16 g/m*3 11.8 C 0 km/h
789 01-03-2003 15:26:37 11.8 C 7.16 g/m*3 11.8 C 0 km/h
790 01-03-2003 15:31:10 11.9 C 7.2 g/m*3 11.9 C 0 km/h
791 01-03-2003 15:32:37 11.9 C 7.2 g/m*3 11.9 C 0 km/h
792 01-03-2003 15:37:10 11.8 C 6.95 g/m*3 11.8 C 0 km/h
793 01-03-2003 15:38:37 11.8 C 6.95 g/m*3 11.8 C 0 km/h
794 01-03-2003 15:43:10 11.7 C 7.01 g/m*3 11.7 C 0 km/h
795 01-03-2003 15:44:37 11.7 C 7.01 g/m*3 11.7 C 0 km/h
796 01-03-2003 15:49:10 11.7 C 7.01 g/m*3 11.7 C 0 km/h
797 01-03-2003 15:50:37 11.7 C 7.01 g/m*3 11.7 C 0 km/h
798 01-03-2003 15:55:10 11.6 C 6.96 g/m*3 11.6 C 0 km/h
799 01-03-2003 15:56:37 11.6 C 6.96 g/m*3 11.6 C 0 km/h
800 01-03-2003 16:01:11 11.6 C 7.07 g/m*3 11.6 C 0 km/h
Sensor: Nr:Datum:Temp:Abs-Feuchte:Windchill:Wind:
Aussen-T/F 801 01-03-2003 16:02:37 11.6 C 7.07 g/m*3 11.6 C 0 km/h
802 01-03-2003 16:07:11 11.5 C 6.92 g/m*3 11.5 C 0 km/h
803 01-03-2003 16:08:37 11.5 C 6.92 g/m*3 11.5 C 0 km/h
804 01-03-2003 16:13:11 11.5 C 7.02 g/m*3 11.5 C 0 km/h
805 01-03-2003 16:14:37 11.5 C 7.02 g/m*3 11.5 C 0 km/h
806 01-03-2003 16:19:11 11.4 C 6.98 g/m*3 11.4 C 0 km/h
807 01-03-2003 16:20:37 11.4 C 6.98 g/m*3 11.4 C 0 km/h
808 01-03-2003 16:25:11 11.4 C 6.88 g/m*3 11.4 C 0 km/h
809 01-03-2003 16:26:37 11.4 C 6.88 g/m*3 11.4 C 0 km/h
810 01-03-2003 16:31:11 11.4 C 6.88 g/m*3 11.4 C 0 km/h
811 01-03-2003 16:32:37 11.4 C 6.88 g/m*3 11.4 C 0 km/h
812 01-03-2003 16:37:11 11.4 C 6.88 g/m*3 11.4 C 0 km/h
813 01-03-2003 16:38:37 11.4 C 6.88 g/m*3 11.4 C 0 km/h
814 01-03-2003 16:43:11 11.2 C 6.79 g/m*3 11.2 C 0 km/h
815 01-03-2003 16:44:37 11.2 C 6.79 g/m*3 11.2 C 0 km/h
816 01-03-2003 16:49:11 11.2 C 6.89 g/m*3 11.2 C 0 km/h
817 01-03-2003 16:50:37 11.2 C 6.89 g/m*3 11.2 C 0 km/h
818 01-03-2003 16:55:11 11.2 C 6.89 g/m*3 11.2 C 0 km/h
819 01-03-2003 16:56:37 11.2 C 6.89 g/m*3 11.2 C 0 km/h
820 01-03-2003 17:01:11 11.1 C 6.85 g/m*3 11.1 C 0 km/h
821 01-03-2003 17:02:37 11.1 C 6.85 g/m*3 11.1 C 0 km/h
822 01-03-2003 17:07:11 11 C 6.91 g/m*3 11 C 0 km/h
823 01-03-2003 17:08:37 11 C 6.91 g/m*3 11 C 0 km/h
824 01-03-2003 17:13:11 10.9 C 6.96 g/m*3 10.9 C 0 km/h
825 01-03-2003 17:14:37 10.9 C 6.96 g/m*3 10.9 C 0 km/h
Sensor: Nr:Datum:Temp:Abs-Feuchte:Windchill:Wind:
Aussen-T/F 826 01-03-2003 17:19:11 10.8 C 7.02 g/m*3 10.8 C 0 km/h
827 01-03-2003 17:20:37 10.8 C 7.02 g/m*3 10.8 C 0 km/h
828 01-03-2003 17:25:11 10.7 C 6.97 g/m*3 10.7 C 0 km/h
829 01-03-2003 17:26:37 10.7 C 6.97 g/m*3 10.7 C 0 km/h
830 01-03-2003 17:31:11 10.5 C 6.89 g/m*3 10.5 C 0 km/h
831 01-03-2003 17:32:37 10.5 C 6.89 g/m*3 10.5 C 0 km/h
832 01-03-2003 17:37:11 10.5 C 6.98 g/m*3 10.5 C 0 km/h
833 01-03-2003 17:38:37 10.5 C 6.98 g/m*3 10.5 C 0 km/h
834 01-03-2003 17:43:11 10.4 C 6.94 g/m*3 10.4 C 0 km/h
835 01-03-2003 17:44:37 10.4 C 6.94 g/m*3 10.4 C 0 km/h
836 01-03-2003 17:49:11 10.4 C 6.84 g/m*3 10.4 C 0 km/h
837 01-03-2003 17:50:37 10.4 C 6.84 g/m*3 10.4 C 0 km/h
838 01-03-2003 17:55:11 10.3 C 6.8 g/m*3 10.3 C 0 km/h
839 01-03-2003 17:56:37 10.3 C 6.8 g/m*3 10.3 C 0 km/h
840 01-03-2003 18:01:11 10.2 C 6.85 g/m*3 10.2 C 0 km/h
841 01-03-2003 18:02:37 10.2 C 6.85 g/m*3 10.2 C 0 km/h
842 01-03-2003 18:07:11 10.1 C 6.81 g/m*3 10.1 C 0 km/h
843 01-03-2003 18:08:37 10.1 C 6.81 g/m*3 10.1 C 0 km/h
844 01-03-2003 18:13:11 10 C 6.77 g/m*3 10 C 0 km/h
845 01-03-2003 18:14:37 10 C 6.77 g/m*3 10 C 0 km/h
846 01-03-2003 18:19:11 9.9 C 6.91 g/m*3 9.9 C 0 km/h
847 01-03-2003 18:20:37 9.9 C 6.91 g/m*3 9.9 C 0 km/h
848 01-03-2003 18:25:11 9.8 C 6.87 g/m*3 9.8 C 0 km/h
849 01-03-2003 18:26:37 9.8 C 6.87 g/m*3 9.8 C 0 km/h
850 01-03-2003 18:31:11 9.8 C 6.87 g/m*3 9.8 C 0 km/h
Sensor: Nr:Datum:Temp:Abs-Feuchte:Windchill:Wind:
Aussen-T/F 851 01-03-2003 18:32:37 9.8 C 6.87 g/m*3 9.8 C 0 km/h
852 01-03-2003 18:37:11 9.7 C 6.82 g/m*3 9.7 C 0 km/h
853 01-03-2003 18:38:37 9.7 C 6.82 g/m*3 9.7 C 0 km/h
854 01-03-2003 18:43:11 9.6 C 6.87 g/m*3 9.6 C 0 km/h
855 01-03-2003 18:44:37 9.6 C 6.87 g/m*3 9.6 C 0 km/h
856 01-03-2003 18:49:11 9.6 C 6.87 g/m*3 9.6 C 0 km/h
857 01-03-2003 18:50:37 9.6 C 6.87 g/m*3 9.6 C 0 km/h
858 01-03-2003 18:55:11 9.6 C 6.87 g/m*3 9.6 C 0 km/h
859 01-03-2003 18:56:37 9.6 C 6.87 g/m*3 9.6 C 0 km/h
860 01-03-2003 19:01:11 9.6 C 6.87 g/m*3 9.6 C 0 km/h
861 01-03-2003 19:02:37 9.6 C 6.87 g/m*3 9.6 C 0 km/h
862 01-03-2003 19:07:11 9.5 C 6.83 g/m*3 9.5 C 0 km/h
863 01-03-2003 19:08:37 9.5 C 6.83 g/m*3 9.5 C 0 km/h
864 01-03-2003 19:13:11 9.5 C 6.92 g/m*3 9.5 C 0 km/h
865 01-03-2003 19:14:37 9.5 C 6.92 g/m*3 9.5 C 0 km/h
866 01-03-2003 19:19:11 9.5 C 6.92 g/m*3 9.5 C 0 km/h
867 01-03-2003 19:20:37 9.5 C 6.92 g/m*3 9.5 C 0 km/h
868 01-03-2003 19:25:11 9.4 C 6.87 g/m*3 9.4 C 0 km/h
869 01-03-2003 19:26:37 9.4 C 6.87 g/m*3 9.4 C 0 km/h
870 01-03-2003 19:31:11 9.4 C 6.87 g/m*3 9.4 C 0 km/h
871 01-03-2003 19:32:37 9.4 C 6.87 g/m*3 9.4 C 0 km/h
872 01-03-2003 19:37:11 9.4 C 6.87 g/m*3 9.4 C 0 km/h
873 01-03-2003 19:38:37 9.4 C 6.87 g/m*3 9.4 C 0 km/h
874 01-03-2003 19:43:11 9.4 C 6.87 g/m*3 9.4 C 0 km/h
875 01-03-2003 19:44:37 9.4 C 6.87 g/m*3 9.4 C 0 km/h
Sensor: Nr:Datum:Temp:Abs-Feuchte:Windchill:Wind:
Aussen-T/F 876 01-03-2003 19:49:11 9.4 C 6.87 g/m*3 9.4 C 0 km/h
877 01-03-2003 19:50:37 9.4 C 6.87 g/m*3 9.4 C 0 km/h
878 01-03-2003 19:55:11 9.4 C 6.87 g/m*3 9.4 C 0 km/h
879 01-03-2003 19:56:37 9.4 C 6.87 g/m*3 9.4 C 0 km/h
880 01-03-2003 20:02:11 9.3 C 6.83 g/m*3 9.3 C 0 km/h
881 01-03-2003 20:02:37 9.3 C 6.83 g/m*3 9.3 C 0 km/h
882 01-03-2003 20:08:11 9.4 C 6.87 g/m*3 9.4 C 0 km/h
883 01-03-2003 20:08:37 9.4 C 6.87 g/m*3 9.4 C 0 km/h
884 01-03-2003 20:14:11 9.3 C 6.83 g/m*3 9.3 C 0 km/h
885 01-03-2003 20:14:37 9.3 C 6.83 g/m*3 9.3 C 0 km/h
886 01-03-2003 20:20:11 9.3 C 6.83 g/m*3 9.3 C 0 km/h
887 01-03-2003 20:20:37 9.3 C 6.83 g/m*3 9.3 C 0 km/h
888 01-03-2003 20:26:11 9.3 C 6.92 g/m*3 9.3 C 0 km/h
889 01-03-2003 20:26:37 9.3 C 6.92 g/m*3 9.3 C 0 km/h
890 01-03-2003 20:32:11 9.3 C 6.92 g/m*3 9.3 C 0 km/h
891 01-03-2003 20:32:37 9.3 C 6.92 g/m*3 9.3 C 0 km/h
892 01-03-2003 20:38:11 9.2 C 6.88 g/m*3 9.2 C 0 km/h
893 01-03-2003 20:38:37 9.2 C 6.88 g/m*3 9.2 C 0 km/h
894 01-03-2003 20:44:11 9.1 C 6.83 g/m*3 9.1 C 0 km/h
895 01-03-2003 20:44:37 9.1 C 6.83 g/m*3 9.1 C 0 km/h
896 01-03-2003 20:50:11 9.1 C 6.83 g/m*3 9.1 C 0 km/h
897 01-03-2003 20:50:37 9.1 C 6.83 g/m*3 9.1 C 0 km/h
898 01-03-2003 21:02:11 9 C 6.88 g/m*3 9 C 0 km/h
899 01-03-2003 21:02:37 9 C 6.88 g/m*3 9 C 0 km/h
900 01-03-2003 21:08:11 9 C 6.88 g/m*3 9 C 0 km/h
Sensor: Nr:Datum:Temp:Abs-Feuchte:Windchill:Wind:
Aussen-T/F 901 01-03-2003 21:08:37 9 C 6.88 g/m*3 9 C 0 km/h
902 01-03-2003 21:14:11 8.9 C 6.92 g/m*3 8.9 C 0 km/h
903 01-03-2003 21:14:37 8.9 C 6.92 g/m*3 8.9 C 0 km/h
904 01-03-2003 21:20:11 8.8 C 6.96 g/m*3 8.8 C 0 km/h
905 01-03-2003 21:20:37 8.8 C 6.96 g/m*3 8.8 C 0 km/h
906 01-03-2003 21:26:11 8.8 C 7.05 g/m*3 8.8 C 0 km/h
907 01-03-2003 21:26:37 8.8 C 7.05 g/m*3 8.8 C 0 km/h
908 01-03-2003 21:32:11 8.7 C 7.01 g/m*3 8.7 C 0 km/h
909 01-03-2003 21:32:37 8.7 C 7.01 g/m*3 8.7 C 0 km/h
910 01-03-2003 21:38:11 8.8 C 7.05 g/m*3 8.8 C 0 km/h
911 01-03-2003 21:38:37 8.8 C 7.05 g/m*3 8.8 C 0 km/h
912 01-03-2003 21:44:11 8.7 C 7.09 g/m*3 8.7 C 0 km/h
913 01-03-2003 21:44:37 8.7 C 7.09 g/m*3 8.7 C 0 km/h
914 01-03-2003 21:50:11 8.6 C 7.05 g/m*3 8.6 C 0 km/h
915 01-03-2003 21:50:37 8.6 C 7.05 g/m*3 8.6 C 0 km/h
916 01-03-2003 21:56:11 8.5 C 7.09 g/m*3 8.5 C 0 km/h
917 01-03-2003 21:56:37 8.5 C 7.09 g/m*3 8.5 C 0 km/h
918 01-03-2003 22:02:11 8.5 C 7.09 g/m*3 8.5 C 0 km/h
919 01-03-2003 22:02:37 8.5 C 7.09 g/m*3 8.5 C 0 km/h
920 01-03-2003 22:08:11 8.4 C 7.13 g/m*3 8.4 C 0 km/h
921 01-03-2003 22:08:37 8.4 C 7.13 g/m*3 8.4 C 0 km/h
922 01-03-2003 22:14:11 8.4 C 7.13 g/m*3 8.4 C 0 km/h
923 01-03-2003 22:14:37 8.4 C 7.13 g/m*3 8.4 C 0 km/h
924 01-03-2003 22:20:11 8.3 C 7.08 g/m*3 8.3 C 0 km/h
925 01-03-2003 22:20:37 8.3 C 7.08 g/m*3 8.3 C 0 km/h
Sensor: Nr:Datum:Temp:Abs-Feuchte:Windchill:Wind:
Aussen-T/F 926 01-03-2003 22:26:11 8.4 C 7.21 g/m*3 8.4 C 0 km/h
927 01-03-2003 22:26:37 8.4 C 7.21 g/m*3 8.4 C 0 km/h
928 01-03-2003 22:32:11 8.4 C 7.21 g/m*3 8.4 C 0 km/h
929 01-03-2003 22:32:37 8.4 C 7.21 g/m*3 8.4 C 0 km/h
930 01-03-2003 22:38:11 8.3 C 7.25 g/m*3 8.3 C 0 km/h
931 01-03-2003 22:38:37 8.3 C 7.25 g/m*3 8.3 C 0 km/h
932 01-03-2003 22:44:11 8.3 C 7.25 g/m*3 8.3 C 0 km/h
933 01-03-2003 22:44:37 8.3 C 7.25 g/m*3 8.3 C 0 km/h
934 01-03-2003 22:50:11 8.3 C 7.25 g/m*3 8.3 C 0 km/h
935 01-03-2003 22:50:37 8.3 C 7.25 g/m*3 8.3 C 0 km/h
936 01-03-2003 22:56:11 8.2 C 7.2 g/m*3 8.2 C 0 km/h
937 01-03-2003 22:56:37 8.2 C 7.2 g/m*3 8.2 C 0 km/h
938 01-03-2003 23:02:11 8.3 C 7.25 g/m*3 8.3 C 0 km/h
939 01-03-2003 23:02:37 8.3 C 7.25 g/m*3 8.3 C 0 km/h
940 01-03-2003 23:08:11 8.3 C 7.33 g/m*3 8.3 C 0 km/h
941 01-03-2003 23:08:37 8.3 C 7.33 g/m*3 8.3 C 0 km/h
942 01-03-2003 23:14:11 8.2 C 7.29 g/m*3 8.2 C 0 km/h
943 01-03-2003 23:14:37 8.2 C 7.29 g/m*3 8.2 C 0 km/h
944 01-03-2003 23:20:11 8.2 C 7.37 g/m*3 8.2 C 0 km/h
945 01-03-2003 23:20:37 8.2 C 7.37 g/m*3 8.2 C 0 km/h
946 01-03-2003 23:26:11 8.2 C 7.37 g/m*3 8.2 C 0 km/h
947 01-03-2003 23:26:37 8.2 C 7.37 g/m*3 8.2 C 0 km/h
948 01-03-2003 23:32:11 8.1 C 7.32 g/m*3 8.1 C 0 km/h
949 01-03-2003 23:32:37 8.1 C 7.32 g/m*3 8.1 C 0 km/h
950 01-03-2003 23:38:11 8.1 C 7.32 g/m*3 8.1 C 0 km/h
Sensor: Nr:Datum:Temp:Abs-Feuchte:Windchill:Wind:
Aussen-T/F 951 01-03-2003 23:38:37 8.1 C 7.32 g/m*3 8.1 C 0 km/h
952 01-03-2003 23:44:11 8.1 C 7.32 g/m*3 8.1 C 0 km/h
953 01-03-2003 23:44:37 8.1 C 7.32 g/m*3 8.1 C 0 km/h
954 01-03-2003 23:50:11 8.1 C 7.32 g/m*3 8.1 C 0 km/h
955 01-03-2003 23:50:37 8.1 C 7.32 g/m*3 8.1 C 0 km/h
956 01-03-2003 23:56:11 8.1 C 7.32 g/m*3 8.1 C 0 km/h
957 01-03-2003 23:56:37 8.1 C 7.32 g/m*3 8.1 C 0 km/h
958 02-03-2003 00:02:11 8 C 7.28 g/m*3 8 C 0 km/h
959 02-03-2003 00:02:37 8 C 7.28 g/m*3 8 C 0 km/h
960 02-03-2003 00:08:11 8.1 C 7.32 g/m*3 8.1 C 0 km/h
961 02-03-2003 00:08:37 8.1 C 7.32 g/m*3 8.1 C 0 km/h
962 02-03-2003 00:14:11 8 C 7.36 g/m*3 8 C 0 km/h
963 02-03-2003 00:14:37 8 C 7.36 g/m*3 8 C 0 km/h
964 02-03-2003 00:20:11 7.9 C 7.39 g/m*3 7.9 C 0 km/h
965 02-03-2003 00:20:37 7.9 C 7.39 g/m*3 7.9 C 0 km/h
966 02-03-2003 00:26:11 7.9 C 7.39 g/m*3 7.9 C 0 km/h
967 02-03-2003 00:26:37 7.9 C 7.39 g/m*3 7.9 C 0 km/h
968 02-03-2003 00:32:11 7.9 C 7.39 g/m*3 7.9 C 0 km/h
969 02-03-2003 00:32:37 7.9 C 7.39 g/m*3 7.9 C 0 km/h
970 02-03-2003 00:38:11 7.8 C 7.35 g/m*3 7.8 C 0 km/h
971 02-03-2003 00:38:37 7.8 C 7.35 g/m*3 7.8 C 0 km/h
972 02-03-2003 00:44:11 7.8 C 7.35 g/m*3 7.8 C 0 km/h
973 02-03-2003 00:44:37 7.8 C 7.35 g/m*3 7.8 C 0 km/h
974 02-03-2003 00:50:11 7.8 C 7.43 g/m*3 7.8 C 0 km/h
975 02-03-2003 00:50:37 7.8 C 7.43 g/m*3 7.8 C 0 km/h
Sensor: Nr:Datum:Temp:Abs-Feuchte:Windchill:Wind:
Aussen-T/F 976 02-03-2003 00:56:11 7.9 C 7.39 g/m*3 7.9 C 0 km/h
977 02-03-2003 00:56:37 7.9 C 7.39 g/m*3 7.9 C 0 km/h
978 02-03-2003 01:02:11 7.9 C 7.39 g/m*3 7.9 C 0 km/h
979 02-03-2003 01:02:37 7.9 C 7.39 g/m*3 7.9 C 0 km/h
980 02-03-2003 01:08:11 7.8 C 7.35 g/m*3 7.8 C 0 km/h
981 02-03-2003 01:08:37 7.8 C 7.35 g/m*3 7.8 C 0 km/h
982 02-03-2003 01:14:11 7.8 C 7.35 g/m*3 7.8 C 0 km/h
983 02-03-2003 01:14:37 7.8 C 7.35 g/m*3 7.8 C 0 km/h
984 02-03-2003 01:20:11 7.8 C 7.43 g/m*3 7.8 C 0 km/h
985 02-03-2003 01:20:37 7.8 C 7.43 g/m*3 7.8 C 0 km/h
986 02-03-2003 01:26:11 7.7 C 7.38 g/m*3 7.7 C 0 km/h
987 02-03-2003 01:26:37 7.7 C 7.38 g/m*3 7.7 C 0 km/h
988 02-03-2003 01:32:11 7.8 C 7.43 g/m*3 7.8 C 0 km/h
989 02-03-2003 01:32:37 7.8 C 7.43 g/m*3 7.8 C 0 km/h
990 02-03-2003 01:38:11 7.8 C 7.43 g/m*3 7.8 C 0 km/h
991 02-03-2003 01:38:37 7.8 C 7.43 g/m*3 7.8 C 0 km/h
992 02-03-2003 01:44:11 7.8 C 7.43 g/m*3 7.8 C 0 km/h
993 02-03-2003 01:44:37 7.8 C 7.43 g/m*3 7.8 C 0 km/h
994 02-03-2003 01:50:11 7.7 C 7.38 g/m*3 7.7 C 0 km/h
995 02-03-2003 01:50:37 7.7 C 7.38 g/m*3 7.7 C 0 km/h
996 02-03-2003 01:56:11 7.8 C 7.43 g/m*3 7.8 C 0 km/h
997 02-03-2003 01:56:37 7.8 C 7.43 g/m*3 7.8 C 0 km/h
998 02-03-2003 02:02:11 7.8 C 7.43 g/m*3 7.8 C 0 km/h
999 02-03-2003 02:02:37 7.8 C 7.43 g/m*3 7.8 C 0 km/h
1000 02-03-2003 02:08:11 7.7 C 7.38 g/m*3 7.7 C 0 km/h
Sensor: Nr:Datum:Temp:Abs-Feuchte:Windchill:Wind:
Aussen-T/F 1001 02-03-2003 02:08:37 7.7 C 7.38 g/m*3 7.7 C 0 km/h
1002 02-03-2003 02:14:11 7.6 C 7.33 g/m*3 7.6 C 0 km/h
1003 02-03-2003 02:14:37 7.6 C 7.33 g/m*3 7.6 C 0 km/h
1004 02-03-2003 02:20:11 7.6 C 7.33 g/m*3 7.6 C 0 km/h
1005 02-03-2003 02:20:37 7.6 C 7.33 g/m*3 7.6 C 0 km/h
1006 02-03-2003 02:26:11 7.6 C 7.33 g/m*3 7.6 C 0 km/h
1007 02-03-2003 02:26:37 7.6 C 7.33 g/m*3 7.6 C 0 km/h
1008 02-03-2003 02:32:11 7.7 C 7.38 g/m*3 7.7 C 0 km/h
1009 02-03-2003 02:32:37 7.7 C 7.38 g/m*3 7.7 C 0 km/h
1010 02-03-2003 02:38:11 7.8 C 7.43 g/m*3 7.8 C 0 km/h
1011 02-03-2003 02:38:37 7.8 C 7.43 g/m*3 7.8 C 0 km/h
1012 02-03-2003 02:44:11 7.7 C 7.38 g/m*3 7.7 C 0 km/h
1013 02-03-2003 02:44:37 7.7 C 7.38 g/m*3 7.7 C 0 km/h
1014 02-03-2003 02:50:11 7.7 C 7.38 g/m*3 7.7 C 0 km/h
1015 02-03-2003 02:50:37 7.7 C 7.38 g/m*3 7.7 C 0 km/h
1016 02-03-2003 02:56:11 7.8 C 7.35 g/m*3 7.8 C 0 km/h
1017 02-03-2003 02:56:37 7.8 C 7.35 g/m*3 7.8 C 0 km/h
1018 02-03-2003 03:02:11 7.8 C 7.35 g/m*3 7.8 C 0 km/h
1019 02-03-2003 03:02:37 7.8 C 7.35 g/m*3 7.8 C 0 km/h
1020 02-03-2003 03:08:11 8 C 7.36 g/m*3 8 C 0 km/h
1021 02-03-2003 03:08:37 8 C 7.36 g/m*3 8 C 0 km/h
1022 02-03-2003 03:14:11 7.8 C 7.26 g/m*3 7.8 C 0 km/h
1023 02-03-2003 03:14:37 7.8 C 7.26 g/m*3 7.8 C 0 km/h
1024 02-03-2003 03:20:11 7.7 C 7.22 g/m*3 7.7 C 0 km/h
1025 02-03-2003 03:20:37 7.7 C 7.22 g/m*3 7.7 C 0 km/h
Sensor: Nr:Datum:Temp:Abs-Feuchte:Windchill:Wind:
Aussen-T/F 1026 02-03-2003 03:26:11 7.7 C 7.22 g/m*3 7.7 C 0 km/h
1027 02-03-2003 03:26:37 7.7 C 7.22 g/m*3 7.7 C 0 km/h
1028 02-03-2003 03:32:11 7.7 C 7.3 g/m*3 7.7 C 0 km/h
1029 02-03-2003 03:32:37 7.7 C 7.3 g/m*3 7.7 C 0 km/h
1030 02-03-2003 03:38:11 7.7 C 7.3 g/m*3 7.7 C 0 km/h
1031 02-03-2003 03:38:37 7.7 C 7.3 g/m*3 7.7 C 0 km/h
1032 02-03-2003 03:44:11 7.6 C 7.25 g/m*3 7.6 C 0 km/h
1033 02-03-2003 03:44:37 7.6 C 7.25 g/m*3 7.6 C 0 km/h
1034 02-03-2003 03:50:11 7.6 C 7.25 g/m*3 7.6 C 0 km/h
1035 02-03-2003 03:50:37 7.6 C 7.25 g/m*3 7.6 C 0 km/h
1036 02-03-2003 03:56:11 7.5 C 7.2 g/m*3 7.5 C 0 km/h
1037 02-03-2003 03:56:37 7.5 C 7.2 g/m*3 7.5 C 0 km/h
1038 02-03-2003 04:02:11 7.5 C 7.2 g/m*3 7.5 C 0 km/h
1039 02-03-2003 04:02:37 7.5 C 7.2 g/m*3 7.5 C 0 km/h
1040 02-03-2003 04:08:11 7.5 C 7.2 g/m*3 7.5 C 0 km/h
1041 02-03-2003 04:08:37 7.5 C 7.2 g/m*3 7.5 C 0 km/h
1042 02-03-2003 04:14:11 7.6 C 7.25 g/m*3 7.6 C 0 km/h
1043 02-03-2003 04:14:37 7.6 C 7.25 g/m*3 7.6 C 0 km/h
1044 02-03-2003 04:20:11 7.6 C 7.25 g/m*3 7.6 C 0 km/h
1045 02-03-2003 04:20:37 7.6 C 7.25 g/m*3 7.6 C 0 km/h
1046 02-03-2003 04:26:11 7.5 C 7.12 g/m*3 7.5 C 0 km/h
1047 02-03-2003 04:26:37 7.5 C 7.12 g/m*3 7.5 C 0 km/h
1048 02-03-2003 04:32:11 7.5 C 7.2 g/m*3 7.5 C 0 km/h
1049 02-03-2003 04:32:37 7.5 C 7.2 g/m*3 7.5 C 0 km/h
1050 02-03-2003 04:38:11 7.5 C 7.2 g/m*3 7.5 C 0 km/h
Sensor: Nr:Datum:Temp:Abs-Feuchte:Windchill:Wind:
Aussen-T/F 1051 02-03-2003 04:38:37 7.5 C 7.2 g/m*3 7.5 C 0 km/h
1052 02-03-2003 04:44:11 7.4 C 7.16 g/m*3 7.4 C 0 km/h
1053 02-03-2003 04:44:37 7.4 C 7.16 g/m*3 7.4 C 0 km/h
1054 02-03-2003 04:50:11 7.4 C 7.16 g/m*3 7.4 C 0 km/h
1055 02-03-2003 04:50:37 7.4 C 7.16 g/m*3 7.4 C 0 km/h
1056 02-03-2003 04:56:11 7.4 C 7.16 g/m*3 7.4 C 0 km/h
1057 02-03-2003 04:56:37 7.4 C 7.16 g/m*3 7.4 C 0 km/h
1058 02-03-2003 05:02:11 7.5 C 7.2 g/m*3 7.5 C 0 km/h
1059 02-03-2003 05:02:37 7.5 C 7.2 g/m*3 7.5 C 0 km/h
1060 02-03-2003 05:08:11 7.5 C 7.2 g/m*3 7.5 C 0 km/h
1061 02-03-2003 05:08:37 7.5 C 7.2 g/m*3 7.5 C 0 km/h
1062 02-03-2003 05:14:11 7.5 C 7.2 g/m*3 7.5 C 0 km/h
1063 02-03-2003 05:14:37 7.5 C 7.2 g/m*3 7.5 C 0 km/h
1064 02-03-2003 05:20:11 7.5 C 7.2 g/m*3 7.5 C 0 km/h
1065 02-03-2003 05:20:37 7.5 C 7.2 g/m*3 7.5 C 0 km/h
1066 02-03-2003 05:26:11 7.4 C 7.16 g/m*3 7.4 C 0 km/h
1067 02-03-2003 05:26:37 7.4 C 7.16 g/m*3 7.4 C 0 km/h
1068 02-03-2003 05:32:11 7.3 C 7.11 g/m*3 7.3 C 0 km/h
1069 02-03-2003 05:32:37 7.3 C 7.11 g/m*3 7.3 C 0 km/h
1070 02-03-2003 05:38:11 7.3 C 7.11 g/m*3 7.3 C 0 km/h
1071 02-03-2003 05:38:37 7.3 C 7.11 g/m*3 7.3 C 0 km/h
1072 02-03-2003 05:44:11 7.1 C 7.02 g/m*3 7.1 C 0 km/h
1073 02-03-2003 05:44:37 7.1 C 7.02 g/m*3 7.1 C 0 km/h
1074 02-03-2003 05:50:11 7.1 C 7.02 g/m*3 7.1 C 0 km/h
1075 02-03-2003 05:50:37 7.1 C 7.02 g/m*3 7.1 C 0 km/h
Sensor: Nr:Datum:Temp:Abs-Feuchte:Windchill:Wind:
Aussen-T/F 1076 02-03-2003 05:56:11 7.2 C 7.14 g/m*3 7.2 C 0 km/h
1077 02-03-2003 05:56:37 7.2 C 7.14 g/m*3 7.2 C 0 km/h
1078 02-03-2003 06:02:11 7.3 C 7.19 g/m*3 7.3 C 0 km/h
1079 02-03-2003 06:02:37 7.3 C 7.19 g/m*3 7.3 C 0 km/h
1080 02-03-2003 06:08:11 7.3 C 7.19 g/m*3 7.3 C 0 km/h
1081 02-03-2003 06:08:37 7.3 C 7.19 g/m*3 7.3 C 0 km/h
1082 02-03-2003 06:14:11 7.2 C 7.14 g/m*3 7.2 C 0 km/h
1083 02-03-2003 06:14:37 7.2 C 7.14 g/m*3 7.2 C 0 km/h
1084 02-03-2003 06:20:11 7.2 C 7.14 g/m*3 7.2 C 0 km/h
1085 02-03-2003 06:20:37 7.2 C 7.14 g/m*3 7.2 C 0 km/h
1086 02-03-2003 06:26:11 7.2 C 7.14 g/m*3 7.2 C 0 km/h
1087 02-03-2003 06:26:37 7.2 C 7.14 g/m*3 7.2 C 0 km/h
1088 02-03-2003 06:32:11 7.2 C 7.14 g/m*3 7.2 C 0 km/h
1089 02-03-2003 06:32:37 7.2 C 7.14 g/m*3 7.2 C 0 km/h
1090 02-03-2003 06:38:11 7.3 C 7.19 g/m*3 7.3 C 0 km/h
1091 02-03-2003 06:38:37 7.3 C 7.19 g/m*3 7.3 C 0 km/h
1092 02-03-2003 06:44:11 7.4 C 7.32 g/m*3 7.4 C 0 km/h
1093 02-03-2003 06:44:37 7.4 C 7.32 g/m*3 7.4 C 0 km/h
1094 02-03-2003 06:50:11 7.3 C 7.27 g/m*3 7.3 C 0 km/h
1095 02-03-2003 06:50:37 7.3 C 7.27 g/m*3 7.3 C 0 km/h
1096 02-03-2003 06:56:11 7.3 C 7.27 g/m*3 7.3 C 0 km/h
1097 02-03-2003 06:56:37 7.3 C 7.27 g/m*3 7.3 C 0 km/h
1098 02-03-2003 07:02:11 7.2 C 7.14 g/m*3 7.2 C 0 km/h
1099 02-03-2003 07:02:37 7.2 C 7.14 g/m*3 7.2 C 0 km/h
1100 02-03-2003 07:08:11 7.3 C 7.19 g/m*3 7.3 C 0 km/h
Sensor: Nr:Datum:Temp:Abs-Feuchte:Windchill:Wind:
Aussen-T/F 1101 02-03-2003 07:08:37 7.3 C 7.19 g/m*3 7.3 C 0 km/h
1102 02-03-2003 07:14:11 7.3 C 7.27 g/m*3 7.3 C 0 km/h
1103 02-03-2003 07:14:37 7.3 C 7.27 g/m*3 7.3 C 0 km/h
1104 02-03-2003 07:20:11 7.4 C 7.32 g/m*3 7.4 C 0 km/h
1105 02-03-2003 07:20:37 7.4 C 7.32 g/m*3 7.4 C 0 km/h
1106 02-03-2003 07:26:11 7.3 C 7.27 g/m*3 7.3 C 0 km/h
1107 02-03-2003 07:26:37 7.3 C 7.27 g/m*3 7.3 C 0 km/h
1108 02-03-2003 07:32:11 7.4 C 7.32 g/m*3 7.4 C 0 km/h
1109 02-03-2003 07:32:37 7.4 C 7.32 g/m*3 7.4 C 0 km/h
1110 02-03-2003 07:38:11 7.3 C 7.27 g/m*3 7.3 C 0 km/h
1111 02-03-2003 07:38:37 7.3 C 7.27 g/m*3 7.3 C 0 km/h
1112 02-03-2003 07:44:11 7.4 C 7.32 g/m*3 7.4 C 0 km/h
1113 02-03-2003 07:44:37 7.4 C 7.32 g/m*3 7.4 C 0 km/h
1114 02-03-2003 07:50:11 7.4 C 7.32 g/m*3 7.4 C 0 km/h
1115 02-03-2003 07:50:37 7.4 C 7.32 g/m*3 7.4 C 0 km/h
1116 02-03-2003 07:56:11 7.5 C 7.36 g/m*3 7.5 C 0 km/h
1117 02-03-2003 07:56:37 7.5 C 7.36 g/m*3 7.5 C 0 km/h
1118 02-03-2003 08:02:11 7.5 C 7.36 g/m*3 7.5 C 0 km/h
1119 02-03-2003 08:02:37 7.5 C 7.36 g/m*3 7.5 C 0 km/h
1120 02-03-2003 08:08:11 7.3 C 7.19 g/m*3 7.3 C 0 km/h
1121 02-03-2003 08:08:37 7.3 C 7.19 g/m*3 7.3 C 0 km/h
1122 02-03-2003 08:14:11 7.5 C 7.28 g/m*3 7.5 C 0 km/h
1123 02-03-2003 08:14:37 7.5 C 7.28 g/m*3 7.5 C 0 km/h
1124 02-03-2003 08:20:11 7.5 C 7.28 g/m*3 7.5 C 0 km/h
1125 02-03-2003 08:20:37 7.5 C 7.28 g/m*3 7.5 C 0 km/h
Sensor: Nr:Datum:Temp:Abs-Feuchte:Windchill:Wind:
Aussen-T/F 1126 02-03-2003 08:26:11 7.4 C 7.24 g/m*3 7.4 C 0 km/h
1127 02-03-2003 08:26:37 7.4 C 7.24 g/m*3 7.4 C 0 km/h
1128 02-03-2003 08:32:11 7.5 C 7.28 g/m*3 7.5 C 0 km/h
1129 02-03-2003 08:32:37 7.5 C 7.28 g/m*3 7.5 C 0 km/h
1130 02-03-2003 08:38:11 7.6 C 7.33 g/m*3 7.6 C 0 km/h
1131 02-03-2003 08:38:37 7.6 C 7.33 g/m*3 7.6 C 0 km/h
1132 02-03-2003 08:44:11 7.6 C 7.33 g/m*3 7.6 C 0 km/h
1133 02-03-2003 08:44:37 7.6 C 7.33 g/m*3 7.6 C 0 km/h
1134 02-03-2003 08:50:11 7.7 C 7.38 g/m*3 7.7 C 0 km/h
1135 02-03-2003 08:50:37 7.7 C 7.38 g/m*3 7.7 C 0 km/h
1136 02-03-2003 08:56:11 7.8 C 7.43 g/m*3 7.8 C 0 km/h
1137 02-03-2003 08:56:37 7.8 C 7.43 g/m*3 7.8 C 0 km/h
1138 02-03-2003 09:02:11 7.7 C 7.38 g/m*3 7.7 C 0 km/h
1139 02-03-2003 09:02:37 7.7 C 7.38 g/m*3 7.7 C 0 km/h
1140 02-03-2003 09:08:11 7.9 C 7.47 g/m*3 7.9 C 0 km/h
1141 02-03-2003 09:08:37 7.9 C 7.47 g/m*3 7.9 C 0 km/h
1142 02-03-2003 09:14:11 8.1 C 7.57 g/m*3 8.1 C 0 km/h
1143 02-03-2003 09:14:37 8.1 C 7.57 g/m*3 8.1 C 0 km/h
1144 02-03-2003 09:20:11 8.2 C 7.62 g/m*3 8.2 C 0 km/h
1145 02-03-2003 09:20:37 8.2 C 7.62 g/m*3 8.2 C 0 km/h
1146 02-03-2003 09:26:11 8.6 C 7.82 g/m*3 8.6 C 0 km/h
1147 02-03-2003 09:26:37 8.6 C 7.82 g/m*3 8.6 C 0 km/h
1148 02-03-2003 09:32:11 8.8 C 7.92 g/m*3 8.8 C 0 km/h
1149 02-03-2003 09:32:37 8.8 C 7.92 g/m*3 8.8 C 0 km/h
1150 02-03-2003 09:38:11 9 C 7.85 g/m*3 9 C 0 km/h
Sensor: Nr:Datum:Temp:Abs-Feuchte:Windchill:Wind:
Aussen-T/F 1151 02-03-2003 09:38:37 9 C 7.85 g/m*3 9 C 0 km/h
1152 02-03-2003 09:44:11 9.1 C 7.9 g/m*3 9.1 C 0 km/h
1153 02-03-2003 09:44:37 9.1 C 7.9 g/m*3 9.1 C 0 km/h
1154 02-03-2003 09:50:11 9.5 C 8.1 g/m*3 9.5 C 0 km/h
1155 02-03-2003 09:50:37 9.5 C 8.1 g/m*3 9.5 C 0 km/h
1156 02-03-2003 09:56:11 9.6 C 8.06 g/m*3 9.6 C 0 km/h
1157 02-03-2003 09:56:37 9.6 C 8.06 g/m*3 9.6 C 0 km/h
1158 02-03-2003 10:02:11 10.1 C 7.66 g/m*3 10.1 C 0 km/h
1159 02-03-2003 10:02:37 10.1 C 7.66 g/m*3 10.1 C 0 km/h
1160 02-03-2003 10:08:11 10.2 C 7.52 g/m*3 10.2 C 0 km/h
1161 02-03-2003 10:08:37 10.2 C 7.52 g/m*3 10.2 C 0 km/h
1162 02-03-2003 10:14:11 10.4 C 7.61 g/m*3 10.4 C 0 km/h
1163 02-03-2003 10:14:37 10.4 C 7.61 g/m*3 10.4 C 0 km/h
1164 02-03-2003 10:20:11 10.8 C 7.81 g/m*3 10.8 C 0 km/h
1165 02-03-2003 10:20:37 10.8 C 7.81 g/m*3 10.8 C 0 km/h
1166 02-03-2003 10:26:11 11.1 C 7.96 g/m*3 11.1 C 0 km/h
1167 02-03-2003 10:26:37 11.1 C 7.96 g/m*3 11.1 C 0 km/h
1168 02-03-2003 10:32:11 11.3 C 7.65 g/m*3 11.3 C 0 km/h
1169 02-03-2003 10:32:37 11.3 C 7.65 g/m*3 11.3 C 0 km/h
1170 02-03-2003 10:38:11 11.4 C 7.6 g/m*3 11.4 C 0 km/h
1171 02-03-2003 10:38:37 11.4 C 7.6 g/m*3 11.4 C 0 km/h
1172 02-03-2003 10:44:11 11.5 C 7.44 g/m*3 11.5 C 0 km/h
1173 02-03-2003 10:44:37 11.5 C 7.44 g/m*3 11.5 C 0 km/h
1174 02-03-2003 10:50:11 11.4 C 7.08 g/m*3 11.4 C 0 km/h
1175 02-03-2003 10:50:37 11.4 C 7.08 g/m*3 11.4 C 0 km/h
Sensor: Nr:Datum:Temp:Abs-Feuchte:Windchill:Wind:
Aussen-T/F 1176 02-03-2003 10:56:11 11.1 C 6.85 g/m*3 11.1 C 0 km/h
1177 02-03-2003 10:56:37 11.1 C 6.85 g/m*3 11.1 C 0 km/h
1178 02-03-2003 11:02:11 11.2 C 6.99 g/m*3 11.2 C 0 km/h
1179 02-03-2003 11:02:37 11.2 C 6.99 g/m*3 11.2 C 0 km/h
1180 02-03-2003 11:08:11 11.2 C 6.89 g/m*3 11.2 C 0 km/h
1181 02-03-2003 11:08:37 11.2 C 6.89 g/m*3 11.2 C 0 km/h
1182 02-03-2003 11:14:11 11.2 C 6.89 g/m*3 11.2 C 0 km/h
1183 02-03-2003 11:14:37 11.2 C 6.89 g/m*3 11.2 C 0 km/h
1184 02-03-2003 11:20:11 11.1 C 6.75 g/m*3 11.1 C 0 km/h
1185 02-03-2003 11:20:37 11.1 C 6.75 g/m*3 11.1 C 0 km/h
1186 02-03-2003 11:26:11 11.2 C 6.79 g/m*3 11.2 C 0 km/h
1187 02-03-2003 11:26:37 11.2 C 6.79 g/m*3 11.2 C 0 km/h
1188 02-03-2003 11:32:11 11.3 C 6.73 g/m*3 11.3 C 0 km/h
1189 02-03-2003 11:32:37 11.3 C 6.73 g/m*3 11.3 C 0 km/h
1190 02-03-2003 11:38:11 11.5 C 6.92 g/m*3 11.5 C 0 km/h
1191 02-03-2003 11:38:37 11.5 C 6.92 g/m*3 11.5 C 0 km/h
1192 02-03-2003 11:44:11 11.8 C 7.05 g/m*3 11.8 C 0 km/h
1193 02-03-2003 11:44:37 11.8 C 7.05 g/m*3 11.8 C 0 km/h
1194 02-03-2003 11:50:11 11.9 C 6.99 g/m*3 11.9 C 0 km/h
1195 02-03-2003 11:50:37 11.9 C 6.99 g/m*3 11.9 C 0 km/h
1196 02-03-2003 11:56:11 11.7 C 6.9 g/m*3 11.7 C 0 km/h
1197 02-03-2003 11:56:37 11.7 C 6.9 g/m*3 11.7 C 0 km/h
1198 02-03-2003 12:02:37 11.3 C 6.94 g/m*3 11.3 C 0 km/h
1199 02-03-2003 12:02:54 11.3 C 6.94 g/m*3 11.3 C 0 km/h
1200 02-03-2003 12:08:37 11 C 7.01 g/m*3 11 C 0 km/h
Sensor: Nr:Datum:Temp:Abs-Feuchte:Windchill:Wind:
Aussen-T/F 1201 02-03-2003 12:08:54 11 C 7.01 g/m*3 11 C 0 km/h
1202 02-03-2003 12:14:37 10.4 C 7.04 g/m*3 10.4 C 0 km/h
1203 02-03-2003 12:14:54 10.4 C 7.04 g/m*3 10.4 C 0 km/h
1204 02-03-2003 12:20:37 10.2 C 7.23 g/m*3 10.2 C 0 km/h
1205 02-03-2003 12:20:54 10.2 C 7.23 g/m*3 10.2 C 0 km/h
1206 02-03-2003 12:26:37 10 C 7.24 g/m*3 10 C 0 km/h
1207 02-03-2003 12:26:54 10 C 7.24 g/m*3 10 C 0 km/h
1208 02-03-2003 12:32:37 9.6 C 7.24 g/m*3 9.6 C 0 km/h
1209 02-03-2003 12:32:54 9.6 C 7.24 g/m*3 9.6 C 0 km/h
1210 02-03-2003 12:38:37 9.7 C 7.56 g/m*3 9.7 C 0 km/h
1211 02-03-2003 12:38:54 9.7 C 7.56 g/m*3 9.7 C 0 km/h
1212 02-03-2003 12:44:37 10.1 C 7.75 g/m*3 10.1 C 0 km/h
1213 02-03-2003 12:44:54 10.1 C 7.75 g/m*3 10.1 C 0 km/h
1214 02-03-2003 12:50:37 10.4 C 7.81 g/m*3 10.4 C 0 km/h
1215 02-03-2003 12:50:54 10.4 C 7.81 g/m*3 10.4 C 0 km/h
1216 02-03-2003 12:56:37 10.5 C 7.66 g/m*3 10.5 C 0 km/h
1217 02-03-2003 12:56:54 10.5 C 7.66 g/m*3 10.5 C 0 km/h
1218 02-03-2003 13:02:37 10.6 C 7.61 g/m*3 10.6 C 0 km/h
1219 02-03-2003 13:02:54 10.6 C 7.61 g/m*3 10.6 C 0 km/h
1220 02-03-2003 13:08:37 10.6 C 7.42 g/m*3 10.6 C 0 km/h
1221 02-03-2003 13:08:54 10.6 C 7.42 g/m*3 10.6 C 0 km/h
1222 02-03-2003 13:14:37 10.7 C 7.27 g/m*3 10.7 C 0 km/h
1223 02-03-2003 13:14:54 10.7 C 7.27 g/m*3 10.7 C 0 km/h
1224 02-03-2003 13:20:37 11 C 7.61 g/m*3 11 C 0 km/h
1225 02-03-2003 13:20:54 11 C 7.61 g/m*3 11 C 0 km/h
Sensor: Nr:Datum:Temp:Abs-Feuchte:Windchill:Wind:
Aussen-T/F 1226 02-03-2003 13:26:37 11.1 C 7.25 g/m*3 11.1 C 0 km/h
1227 02-03-2003 13:26:54 11.1 C 7.25 g/m*3 11.1 C 0 km/h
1228 02-03-2003 13:32:37 11.1 C 7.25 g/m*3 11.1 C 0 km/h
1229 02-03-2003 13:32:54 11.1 C 7.25 g/m*3 11.1 C 0 km/h
1230 02-03-2003 13:38:37 11 C 7.21 g/m*3 11 C 0 km/h
1231 02-03-2003 13:38:54 11 C 7.21 g/m*3 11 C 0 km/h
1232 02-03-2003 13:44:37 11.1 C 7.55 g/m*3 11.1 C 0 km/h
1233 02-03-2003 13:44:54 11.1 C 7.55 g/m*3 11.1 C 0 km/h
1234 02-03-2003 13:50:37 10.8 C 7.61 g/m*3 10.8 C 0 km/h
1235 02-03-2003 13:50:54 10.8 C 7.61 g/m*3 10.8 C 0 km/h
1236 02-03-2003 13:56:37 10.6 C 7.52 g/m*3 10.6 C 0 km/h
1237 02-03-2003 13:56:54 10.6 C 7.52 g/m*3 10.6 C 0 km/h
1238 02-03-2003 14:02:37 10.2 C 7.33 g/m*3 10.2 C 0 km/h
1239 02-03-2003 14:02:54 10.2 C 7.33 g/m*3 10.2 C 0 km/h
1240 02-03-2003 14:08:37 10.2 C 7.33 g/m*3 10.2 C 0 km/h
1241 02-03-2003 14:08:54 10.2 C 7.33 g/m*3 10.2 C 0 km/h
1242 02-03-2003 14:14:37 9.9 C 7.66 g/m*3 9.9 C 0 km/h
1243 02-03-2003 14:14:54 9.9 C 7.66 g/m*3 9.9 C 0 km/h
1244 02-03-2003 14:20:37 9.7 C 7.65 g/m*3 9.7 C 0 km/h
1245 02-03-2003 14:20:54 9.7 C 7.65 g/m*3 9.7 C 0 km/h
1246 02-03-2003 14:26:37 10 C 7.8 g/m*3 10 C 0 km/h
1247 02-03-2003 14:26:54 10 C 7.8 g/m*3 10 C 0 km/h
1248 02-03-2003 14:32:37 10.1 C 7.56 g/m*3 10.1 C 0 km/h
1249 02-03-2003 14:32:54 10.1 C 7.56 g/m*3 10.1 C 0 km/h
1250 02-03-2003 14:38:37 10.1 C 7.28 g/m*3 10.1 C 0 km/h
Sensor: Nr:Datum:Temp:Abs-Feuchte:Windchill:Wind:
Aussen-T/F 1251 02-03-2003 14:38:54 10.1 C 7.28 g/m*3 10.1 C 0 km/h
1252 02-03-2003 14:44:37 9.8 C 7.24 g/m*3 9.8 C 0 km/h
1253 02-03-2003 14:44:54 9.8 C 7.24 g/m*3 9.8 C 0 km/h
1254 02-03-2003 14:50:37 9.6 C 7.15 g/m*3 9.6 C 0 km/h
1255 02-03-2003 14:50:54 9.6 C 7.15 g/m*3 9.6 C 0 km/h
1256 02-03-2003 14:56:37 9.6 C 7.24 g/m*3 9.6 C 0 km/h
1257 02-03-2003 14:56:54 9.6 C 7.24 g/m*3 9.6 C 0 km/h
1258 02-03-2003 15:02:37 9.4 C 7.05 g/m*3 9.4 C 0 km/h
1259 02-03-2003 15:02:54 9.4 C 7.05 g/m*3 9.4 C 0 km/h
1260 02-03-2003 15:08:10 9.5 C 7.1 g/m*3 9.5 C 0 km/h
1261 02-03-2003 15:08:37 9.5 C 7.1 g/m*3 9.5 C 0 km/h
1262 02-03-2003 15:14:10 9.6 C 7.33 g/m*3 9.6 C 0 km/h
1263 02-03-2003 15:14:37 9.6 C 7.33 g/m*3 9.6 C 0 km/h
1264 02-03-2003 15:20:10 9.4 C 6.87 g/m*3 9.4 C 0 km/h
1265 02-03-2003 15:20:37 9.4 C 6.87 g/m*3 9.4 C 0 km/h
1266 02-03-2003 15:26:10 9.5 C 6.64 g/m*3 9.5 C 0 km/h
1267 02-03-2003 15:26:37 9.5 C 6.64 g/m*3 9.5 C 0 km/h
1268 02-03-2003 15:32:10 9.7 C 6.64 g/m*3 9.7 C 0 km/h
1269 02-03-2003 15:32:37 9.7 C 6.64 g/m*3 9.7 C 0 km/h
1270 02-03-2003 15:38:10 9.6 C 6.5 g/m*3 9.6 C 0 km/h
1271 02-03-2003 15:38:37 9.6 C 6.5 g/m*3 9.6 C 0 km/h
1272 02-03-2003 15:44:10 9.9 C 6.82 g/m*3 9.9 C 0 km/h
1273 02-03-2003 15:44:37 9.9 C 6.82 g/m*3 9.9 C 0 km/h
1274 02-03-2003 15:50:10 10 C 6.58 g/m*3 10 C 0 km/h
1275 02-03-2003 15:50:37 10 C 6.58 g/m*3 10 C 0 km/h
Sensor: Nr:Datum:Temp:Abs-Feuchte:Windchill:Wind:
Aussen-T/F 1276 02-03-2003 15:56:10 10 C 6.58 g/m*3 10 C 0 km/h
1277 02-03-2003 15:56:37 10 C 6.58 g/m*3 10 C 0 km/h
1278 02-03-2003 16:02:02 9.9 C 6.54 g/m*3 9.9 C 0 km/h
1279 02-03-2003 16:02:37 9.9 C 6.54 g/m*3 9.9 C 0 km/h
1280 02-03-2003 16:08:02 9.7 C 6.45 g/m*3 9.7 C 0 km/h
1281 02-03-2003 16:08:37 9.7 C 6.45 g/m*3 9.7 C 0 km/h
1282 02-03-2003 16:14:02 9.7 C 6.64 g/m*3 9.7 C 0 km/h
1283 02-03-2003 16:14:37 9.7 C 6.64 g/m*3 9.7 C 0 km/h
1284 02-03-2003 16:20:02 9.7 C 6.55 g/m*3 9.7 C 0 km/h
1285 02-03-2003 16:20:37 9.7 C 6.55 g/m*3 9.7 C 0 km/h
1286 02-03-2003 16:26:02 9.7 C 6.55 g/m*3 9.7 C 0 km/h
1287 02-03-2003 16:26:37 9.7 C 6.55 g/m*3 9.7 C 0 km/h
1288 02-03-2003 16:32:02 9.8 C 6.59 g/m*3 9.8 C 0 km/h
1289 02-03-2003 16:32:37 9.8 C 6.59 g/m*3 9.8 C 0 km/h
1290 02-03-2003 16:38:02 10.1 C 6.52 g/m*3 10.1 C 0 km/h
1291 02-03-2003 16:38:37 10.1 C 6.52 g/m*3 10.1 C 0 km/h
1292 02-03-2003 16:44:02 10.1 C 6.34 g/m*3 10.1 C 0 km/h
1293 02-03-2003 16:44:37 10.1 C 6.34 g/m*3 10.1 C 0 km/h
1294 02-03-2003 16:50:02 10 C 6.3 g/m*3 10 C 0 km/h
1295 02-03-2003 16:50:37 10 C 6.3 g/m*3 10 C 0 km/h
1296 02-03-2003 16:56:02 9.9 C 6.44 g/m*3 9.9 C 0 km/h
1297 02-03-2003 16:56:37 9.9 C 6.44 g/m*3 9.9 C 0 km/h
1298 02-03-2003 17:02:02 9.8 C 6.4 g/m*3 9.8 C 0 km/h
1299 02-03-2003 17:02:37 9.8 C 6.4 g/m*3 9.8 C 0 km/h
1300 02-03-2003 17:08:02 9.7 C 6.55 g/m*3 9.7 C 0 km/h
Sensor: Nr:Datum:Temp:Abs-Feuchte:Windchill:Wind:
Aussen-T/F 1301 02-03-2003 17:08:37 9.7 C 6.55 g/m*3 9.7 C 0 km/h
1302 02-03-2003 17:14:02 9.6 C 6.32 g/m*3 9.6 C 0 km/h
1303 02-03-2003 17:14:37 9.6 C 6.32 g/m*3 9.6 C 0 km/h
1304 02-03-2003 17:20:02 9.6 C 6.32 g/m*3 9.6 C 0 km/h
1305 02-03-2003 17:20:37 9.6 C 6.32 g/m*3 9.6 C 0 km/h
1306 02-03-2003 17:26:02 9.5 C 6.28 g/m*3 9.5 C 0 km/h
1307 02-03-2003 17:26:37 9.5 C 6.28 g/m*3 9.5 C 0 km/h
1308 02-03-2003 17:32:02 9.3 C 6.2 g/m*3 9.3 C 0 km/h
1309 02-03-2003 17:32:37 9.3 C 6.2 g/m*3 9.3 C 0 km/h
1310 02-03-2003 17:38:02 9.2 C 6.16 g/m*3 9.2 C 0 km/h
1311 02-03-2003 17:38:37 9.2 C 6.16 g/m*3 9.2 C 0 km/h
1312 02-03-2003 17:44:32 9.3 C 6.2 g/m*3 9.3 C 0 km/h
1313 02-03-2003 17:44:37 9.3 C 6.2 g/m*3 9.3 C 0 km/h
1314 02-03-2003 17:50:32 9.3 C 6.2 g/m*3 9.3 C 0 km/h
1315 02-03-2003 17:50:37 9.3 C 6.2 g/m*3 9.3 C 0 km/h
1316 02-03-2003 17:56:37 9.2 C 6.16 g/m*3 9.2 C 0 km/h
1317 02-03-2003 18:02:37 9.1 C 6.03 g/m*3 9.1 C 0 km/h
1318 02-03-2003 18:08:37 9 C 5.99 g/m*3 9 C 0 km/h
1319 02-03-2003 18:14:37 8.9 C 6.04 g/m*3 8.9 C 0 km/h
1320 02-03-2003 18:20:37 8.6 C 5.93 g/m*3 8.6 C 0 km/h
1321 02-03-2003 18:26:37 8.3 C 5.98 g/m*3 8.3 C 0 km/h
1322 02-03-2003 18:32:37 8.2 C 5.95 g/m*3 8.2 C 0 km/h
1323 02-03-2003 18:38:37 8.1 C 5.91 g/m*3 8.1 C 0 km/h
1324 02-03-2003 18:44:37 8 C 5.87 g/m*3 8 C 0 km/h
1325 02-03-2003 18:50:37 7.9 C 6 g/m*3 7.9 C 0 km/h
Sensor: Nr:Datum:Temp:Abs-Feuchte:Windchill:Wind:
Aussen-T/F 1326 02-03-2003 18:56:37 7.8 C 6.04 g/m*3 7.8 C 0 km/h
1327 02-03-2003 19:02:37 7.7 C 6 g/m*3 7.7 C 0 km/h
1328 02-03-2003 19:08:37 7.8 C 5.96 g/m*3 7.8 C 0 km/h
1329 02-03-2003 19:14:37 7.8 C 6.04 g/m*3 7.8 C 0 km/h
1330 02-03-2003 19:20:37 7.7 C 6 g/m*3 7.7 C 0 km/h
1331 02-03-2003 19:26:37 7.5 C 6 g/m*3 7.5 C 0 km/h
1332 02-03-2003 19:32:37 7.5 C 6 g/m*3 7.5 C 0 km/h
1333 02-03-2003 19:38:37 7.4 C 6.04 g/m*3 7.4 C 0 km/h
1334 02-03-2003 19:44:37 7.5 C 6 g/m*3 7.5 C 0 km/h
1335 02-03-2003 19:50:37 7.7 C 6 g/m*3 7.7 C 0 km/h
1336 02-03-2003 19:56:37 7.6 C 5.88 g/m*3 7.6 C 0 km/h
1337 02-03-2003 20:02:37 7.5 C 5.92 g/m*3 7.5 C 0 km/h
1338 02-03-2003 20:08:37 7.5 C 5.92 g/m*3 7.5 C 0 km/h
1339 02-03-2003 20:14:37 7.5 C 5.92 g/m*3 7.5 C 0 km/h
1340 02-03-2003 20:20:37 7.4 C 5.88 g/m*3 7.4 C 0 km/h
1341 02-03-2003 20:26:37 7.3 C 5.85 g/m*3 7.3 C 0 km/h
1342 02-03-2003 20:32:37 7 C 5.81 g/m*3 7 C 0 km/h
1343 02-03-2003 20:38:37 6.9 C 5.85 g/m*3 6.9 C 0 km/h
1344 02-03-2003 20:44:37 6.6 C 5.81 g/m*3 6.6 C 0 km/h
1345 02-03-2003 20:51:11 6.3 C 5.77 g/m*3 6.3 C 0 km/h
1346 02-03-2003 20:57:11 6 C 5.73 g/m*3 6 C 0 km/h
1347 02-03-2003 21:03:11 5.9 C 5.77 g/m*3 5.9 C 0 km/h
1348 02-03-2003 21:09:11 5.9 C 5.84 g/m*3 5.9 C 0 km/h
1349 02-03-2003 21:15:11 6 C 5.81 g/m*3 6 C 0 km/h
1350 02-03-2003 21:21:11 6 C 5.81 g/m*3 6 C 0 km/h
Sensor: Nr:Datum:Temp:Abs-Feuchte:Windchill:Wind:
Aussen-T/F 1351 02-03-2003 21:27:11 5.9 C 5.84 g/m*3 5.9 C 0 km/h
1352 02-03-2003 21:33:11 5.9 C 5.84 g/m*3 5.9 C 0 km/h
1353 02-03-2003 21:39:11 6 C 5.81 g/m*3 6 C 0 km/h
1354 02-03-2003 21:45:11 6 C 5.81 g/m*3 6 C 0 km/h
1355 02-03-2003 21:51:11 5.9 C 5.84 g/m*3 5.9 C 0 km/h
1356 02-03-2003 21:57:11 5.9 C 5.91 g/m*3 5.9 C 0 km/h
1357 02-03-2003 22:03:11 6 C 5.88 g/m*3 6 C 0 km/h
1358 02-03-2003 22:09:11 6.3 C 5.92 g/m*3 6.3 C 0 km/h
1359 02-03-2003 22:15:11 6.7 C 6 g/m*3 6.7 C 0 km/h
1360 02-03-2003 22:21:11 6.7 C 5.93 g/m*3 6.7 C 0 km/h
1361 02-03-2003 22:27:11 6.7 C 5.93 g/m*3 6.7 C 0 km/h
1362 02-03-2003 22:39:11 6.8 C 5.89 g/m*3 6.8 C 0 km/h
1363 02-03-2003 22:45:11 6.9 C 5.93 g/m*3 6.9 C 0 km/h
1364 02-03-2003 22:51:11 6.9 C 5.93 g/m*3 6.9 C 0 km/h
1365 02-03-2003 22:57:11 6.8 C 5.81 g/m*3 6.8 C 0 km/h
1366 02-03-2003 23:03:11 6.7 C 5.85 g/m*3 6.7 C 0 km/h
1367 02-03-2003 23:09:11 6.8 C 5.89 g/m*3 6.8 C 0 km/h
1368 02-03-2003 23:15:11 6.8 C 5.89 g/m*3 6.8 C 0 km/h
1369 02-03-2003 23:21:11 6.8 C 5.89 g/m*3 6.8 C 0 km/h
1370 02-03-2003 23:27:11 6.7 C 5.85 g/m*3 6.7 C 0 km/h
1371 02-03-2003 23:33:11 6.7 C 5.85 g/m*3 6.7 C 0 km/h
1372 02-03-2003 23:39:11 6.7 C 5.85 g/m*3 6.7 C 0 km/h
1373 02-03-2003 23:45:11 6.7 C 5.93 g/m*3 6.7 C 0 km/h
1374 02-03-2003 23:51:11 6.7 C 5.93 g/m*3 6.7 C 0 km/h
1375 02-03-2003 23:57:11 6.5 C 5.85 g/m*3 6.5 C 0 km/h
Sensor: Nr:Datum:Temp:Abs-Feuchte:Windchill:Wind:
Aussen-T/F 1376 03-03-2003 00:03:11 6.4 C 5.89 g/m*3 6.4 C 0 km/h
1377 03-03-2003 00:09:11 6.2 C 5.88 g/m*3 6.2 C 0 km/h
1378 03-03-2003 00:15:11 6 C 5.95 g/m*3 6 C 0 km/h
1379 03-03-2003 00:21:11 5.8 C 6.09 g/m*3 5.8 C 0 km/h
1380 03-03-2003 00:27:11 5.8 C 6.16 g/m*3 5.8 C 0 km/h
1381 03-03-2003 00:33:11 5.7 C 6.19 g/m*3 5.7 C 0 km/h
1382 03-03-2003 00:39:11 5.6 C 6.22 g/m*3 5.6 C 0 km/h
1383 03-03-2003 00:45:11 5.6 C 6.22 g/m*3 5.6 C 0 km/h
1384 03-03-2003 00:51:11 5.6 C 6.22 g/m*3 5.6 C 0 km/h
1385 03-03-2003 00:57:11 5.6 C 6.22 g/m*3 5.6 C 0 km/h
1386 03-03-2003 01:03:11 5.6 C 6.22 g/m*3 5.6 C 0 km/h
1387 03-03-2003 01:09:11 5.6 C 6.22 g/m*3 5.6 C 0 km/h
1388 03-03-2003 01:15:11 5.6 C 6.22 g/m*3 5.6 C 0 km/h
1389 03-03-2003 01:21:11 5.6 C 6.15 g/m*3 5.6 C 0 km/h
1390 03-03-2003 01:27:11 5.5 C 6.11 g/m*3 5.5 C 0 km/h
1391 03-03-2003 01:33:11 5.6 C 6.15 g/m*3 5.6 C 0 km/h
1392 03-03-2003 01:39:11 5.6 C 6.15 g/m*3 5.6 C 0 km/h
1393 03-03-2003 01:45:11 5.6 C 6.15 g/m*3 5.6 C 0 km/h
1394 03-03-2003 01:51:11 5.6 C 6.15 g/m*3 5.6 C 0 km/h
1395 03-03-2003 01:57:11 5.6 C 6.15 g/m*3 5.6 C 0 km/h
1396 03-03-2003 02:03:11 5.6 C 6.15 g/m*3 5.6 C 0 km/h
1397 03-03-2003 02:09:11 5.7 C 6.19 g/m*3 5.7 C 0 km/h
1398 03-03-2003 02:15:11 5.7 C 6.12 g/m*3 5.7 C 0 km/h
1399 03-03-2003 02:21:11 5.7 C 6.12 g/m*3 5.7 C 0 km/h
1400 03-03-2003 02:27:11 5.7 C 6.12 g/m*3 5.7 C 0 km/h
Sensor: Nr:Datum:Temp:Abs-Feuchte:Windchill:Wind:
Aussen-T/F 1401 03-03-2003 02:33:11 5.7 C 6.12 g/m*3 5.7 C 0 km/h
1402 03-03-2003 02:39:11 5.7 C 6.12 g/m*3 5.7 C 0 km/h
1403 03-03-2003 02:45:11 5.7 C 6.05 g/m*3 5.7 C 0 km/h
1404 03-03-2003 02:51:11 5.8 C 6.09 g/m*3 5.8 C 0 km/h
1405 03-03-2003 02:57:11 5.8 C 6.09 g/m*3 5.8 C 0 km/h
1406 03-03-2003 03:03:11 5.9 C 6.06 g/m*3 5.9 C 0 km/h
1407 03-03-2003 03:09:11 5.9 C 5.98 g/m*3 5.9 C 0 km/h
1408 03-03-2003 03:15:11 5.9 C 5.98 g/m*3 5.9 C 0 km/h
1409 03-03-2003 03:21:11 5.8 C 5.95 g/m*3 5.8 C 0 km/h
1410 03-03-2003 03:27:11 5.8 C 6.02 g/m*3 5.8 C 0 km/h
1411 03-03-2003 03:33:11 5.8 C 5.8 g/m*3 5.8 C 0 km/h
1412 03-03-2003 03:39:11 5.9 C 5.84 g/m*3 5.9 C 0 km/h
1413 03-03-2003 03:45:11 5.8 C 5.8 g/m*3 5.8 C 0 km/h
1414 03-03-2003 03:51:11 5.8 C 5.73 g/m*3 5.8 C 0 km/h
1415 03-03-2003 03:57:11 5.7 C 5.62 g/m*3 5.7 C 0 km/h
1416 03-03-2003 04:03:11 5.7 C 5.62 g/m*3 5.7 C 0 km/h
1417 03-03-2003 04:09:11 5.7 C 5.62 g/m*3 5.7 C 0 km/h
1418 03-03-2003 04:15:11 5.8 C 5.59 g/m*3 5.8 C 0 km/h
1419 03-03-2003 04:21:11 5.7 C 5.55 g/m*3 5.7 C 0 km/h
1420 03-03-2003 04:27:11 5.8 C 5.59 g/m*3 5.8 C 0 km/h
1421 03-03-2003 04:33:11 5.7 C 5.55 g/m*3 5.7 C 0 km/h
1422 03-03-2003 04:39:11 5.7 C 5.55 g/m*3 5.7 C 0 km/h
1423 03-03-2003 04:45:11 5.7 C 5.55 g/m*3 5.7 C 0 km/h
1424 03-03-2003 04:51:11 5.7 C 5.62 g/m*3 5.7 C 0 km/h
1425 03-03-2003 04:57:11 5.7 C 5.62 g/m*3 5.7 C 0 km/h
Sensor: Nr:Datum:Temp:Abs-Feuchte:Windchill:Wind:
Aussen-T/F 1426 03-03-2003 05:03:11 5.7 C 5.62 g/m*3 5.7 C 0 km/h
1427 03-03-2003 05:09:11 5.6 C 5.59 g/m*3 5.6 C 0 km/h
1428 03-03-2003 05:15:11 5.6 C 5.51 g/m*3 5.6 C 0 km/h
1429 03-03-2003 05:21:11 5.5 C 5.55 g/m*3 5.5 C 0 km/h
1430 03-03-2003 05:27:11 5.4 C 5.44 g/m*3 5.4 C 0 km/h
1431 03-03-2003 05:33:11 5.3 C 5.48 g/m*3 5.3 C 0 km/h
1432 03-03-2003 05:39:11 5.2 C 5.51 g/m*3 5.2 C 0 km/h
1433 03-03-2003 05:45:11 5.1 C 5.54 g/m*3 5.1 C 0 km/h
1434 03-03-2003 05:51:11 5.2 C 5.58 g/m*3 5.2 C 0 km/h
1435 03-03-2003 05:57:11 5.2 C 5.58 g/m*3 5.2 C 0 km/h
1436 03-03-2003 06:03:11 5.1 C 5.54 g/m*3 5.1 C 0 km/h
1437 03-03-2003 06:09:11 5.1 C 5.54 g/m*3 5.1 C 0 km/h
1438 03-03-2003 06:15:11 5.1 C 5.54 g/m*3 5.1 C 0 km/h
1439 03-03-2003 06:21:11 5.1 C 5.61 g/m*3 5.1 C 0 km/h
1440 03-03-2003 06:27:11 5 C 5.57 g/m*3 5 C 0 km/h
1441 03-03-2003 06:33:11 5 C 5.5 g/m*3 5 C 0 km/h
1442 03-03-2003 06:39:11 5 C 5.57 g/m*3 5 C 0 km/h
1443 03-03-2003 06:45:11 4.8 C 5.57 g/m*3 4.8 C 0 km/h
1444 03-03-2003 06:51:11 4.7 C 5.6 g/m*3 4.7 C 0 km/h
1445 03-03-2003 06:57:11 4.7 C 5.6 g/m*3 4.7 C 0 km/h
1446 03-03-2003 07:03:11 4.7 C 5.6 g/m*3 4.7 C 0 km/h
1447 03-03-2003 07:09:11 4.7 C 5.6 g/m*3 4.7 C 0 km/h
1448 03-03-2003 07:15:11 4.7 C 5.66 g/m*3 4.7 C 0 km/h
1449 03-03-2003 07:21:11 4.6 C 5.62 g/m*3 4.6 C 0 km/h
1450 03-03-2003 07:27:11 4.6 C 5.62 g/m*3 4.6 C 0 km/h
Sensor: Nr:Datum:Temp:Abs-Feuchte:Windchill:Wind:
Aussen-T/F 1451 03-03-2003 07:33:11 4.6 C 5.69 g/m*3 4.6 C 0 km/h
1452 03-03-2003 07:39:11 4.6 C 5.62 g/m*3 4.6 C 0 km/h
1453 03-03-2003 07:45:11 4.6 C 5.69 g/m*3 4.6 C 0 km/h
1454 03-03-2003 07:51:11 4.5 C 5.65 g/m*3 4.5 C 0 km/h
1455 03-03-2003 07:57:11 4.5 C 5.65 g/m*3 4.5 C 0 km/h
1456 03-03-2003 08:03:11 4.6 C 5.69 g/m*3 4.6 C 0 km/h
1457 03-03-2003 08:09:11 4.7 C 5.73 g/m*3 4.7 C 0 km/h
1458 03-03-2003 08:15:11 4.7 C 5.73 g/m*3 4.7 C 0 km/h
1459 03-03-2003 08:21:11 4.8 C 5.7 g/m*3 4.8 C 0 km/h
1460 03-03-2003 08:27:11 4.9 C 5.74 g/m*3 4.9 C 0 km/h
1461 03-03-2003 08:33:11 5 C 5.71 g/m*3 5 C 0 km/h
1462 03-03-2003 08:39:11 5 C 5.71 g/m*3 5 C 0 km/h
1463 03-03-2003 08:45:11 5 C 5.64 g/m*3 5 C 0 km/h
1464 03-03-2003 08:51:11 5 C 5.64 g/m*3 5 C 0 km/h
1465 03-03-2003 08:57:11 4.9 C 5.67 g/m*3 4.9 C 0 km/h
1466 03-03-2003 09:03:11 4.9 C 5.74 g/m*3 4.9 C 0 km/h
1467 03-03-2003 09:09:11 4.9 C 5.74 g/m*3 4.9 C 0 km/h
1468 03-03-2003 09:15:11 4.9 C 5.74 g/m*3 4.9 C 0 km/h
1469 03-03-2003 09:21:11 4.9 C 5.81 g/m*3 4.9 C 0 km/h
1470 03-03-2003 09:27:11 4.9 C 5.81 g/m*3 4.9 C 0 km/h
1471 03-03-2003 09:33:11 4.9 C 5.81 g/m*3 4.9 C 0 km/h
1472 03-03-2003 09:39:11 4.9 C 5.81 g/m*3 4.9 C 0 km/h
1473 03-03-2003 09:45:11 4.9 C 5.81 g/m*3 4.9 C 0 km/h
1474 03-03-2003 09:51:11 4.9 C 5.81 g/m*3 4.9 C 0 km/h
1475 03-03-2003 09:57:11 4.9 C 5.81 g/m*3 4.9 C 0 km/h
Sensor: Nr:Datum:Temp:Abs-Feuchte:Windchill:Wind:
Aussen-T/F 1476 03-03-2003 10:03:11 4.9 C 5.81 g/m*3 4.9 C 0 km/h
1477 03-03-2003 10:09:11 4.9 C 5.81 g/m*3 4.9 C 0 km/h
1478 03-03-2003 10:15:11 4.9 C 5.81 g/m*3 4.9 C 0 km/h
1479 03-03-2003 10:21:11 5 C 5.78 g/m*3 5 C 0 km/h
1480 03-03-2003 10:27:11 5 C 5.78 g/m*3 5 C 0 km/h
1481 03-03-2003 10:33:11 5 C 5.78 g/m*3 5 C 0 km/h
1482 03-03-2003 10:39:11 5.1 C 5.81 g/m*3 5.1 C 0 km/h
1483 03-03-2003 10:45:11 5.1 C 5.75 g/m*3 5.1 C 0 km/h
1484 03-03-2003 10:51:11 5.2 C 5.78 g/m*3 5.2 C 0 km/h
1485 03-03-2003 10:57:11 5.2 C 5.78 g/m*3 5.2 C 0 km/h
1486 03-03-2003 11:03:11 5.3 C 5.82 g/m*3 5.3 C 0 km/h
1487 03-03-2003 11:09:11 5.4 C 5.86 g/m*3 5.4 C 0 km/h
1488 03-03-2003 11:15:11 5.4 C 5.86 g/m*3 5.4 C 0 km/h
1489 03-03-2003 11:21:11 5.4 C 5.79 g/m*3 5.4 C 0 km/h
1490 03-03-2003 11:27:11 5.5 C 5.76 g/m*3 5.5 C 0 km/h
1491 03-03-2003 11:33:11 5.6 C 5.8 g/m*3 5.6 C 0 km/h
1492 03-03-2003 11:39:11 5.6 C 5.73 g/m*3 5.6 C 0 km/h
1493 03-03-2003 11:45:11 5.7 C 5.84 g/m*3 5.7 C 0 km/h
1494 03-03-2003 11:51:11 5.7 C 5.76 g/m*3 5.7 C 0 km/h
1495 03-03-2003 11:57:11 5.7 C 5.76 g/m*3 5.7 C 0 km/h
1496 03-03-2003 12:03:25 5.7 C 5.76 g/m*3 5.7 C 0 km/h
1497 03-03-2003 12:09:25 5.8 C 5.8 g/m*3 5.8 C 0 km/h
1498 03-03-2003 12:15:25 5.7 C 5.69 g/m*3 5.7 C 0 km/h
1499 03-03-2003 12:21:25 5.7 C 5.69 g/m*3 5.7 C 0 km/h
1500 03-03-2003 12:27:25 5.7 C 5.69 g/m*3 5.7 C 0 km/h
Sensor: Nr:Datum:Temp:Abs-Feuchte:Windchill:Wind:
Aussen-T/F 1501 03-03-2003 12:33:25 5.7 C 5.69 g/m*3 5.7 C 0 km/h
1502 03-03-2003 12:39:25 5.7 C 5.69 g/m*3 5.7 C 0 km/h
1503 03-03-2003 12:45:25 5.7 C 5.69 g/m*3 5.7 C 0 km/h
1504 03-03-2003 12:51:25 5.7 C 5.69 g/m*3 5.7 C 0 km/h
1505 03-03-2003 12:57:25 5.6 C 5.66 g/m*3 5.6 C 0 km/h
1506 03-03-2003 13:03:25 5.6 C 5.66 g/m*3 5.6 C 0 km/h
1507 03-03-2003 13:09:25 5.6 C 5.73 g/m*3 5.6 C 0 km/h
1508 03-03-2003 13:15:25 5.6 C 5.73 g/m*3 5.6 C 0 km/h
1509 03-03-2003 13:21:25 5.6 C 5.73 g/m*3 5.6 C 0 km/h
1510 03-03-2003 13:27:25 5.6 C 5.66 g/m*3 5.6 C 0 km/h
1511 03-03-2003 13:33:25 5.6 C 5.66 g/m*3 5.6 C 0 km/h
1512 03-03-2003 13:39:25 5.6 C 5.73 g/m*3 5.6 C 0 km/h
1513 03-03-2003 13:45:25 5.6 C 5.73 g/m*3 5.6 C 0 km/h
1514 03-03-2003 13:51:25 5.6 C 5.73 g/m*3 5.6 C 0 km/h
1515 03-03-2003 13:57:25 5.6 C 5.73 g/m*3 5.6 C 0 km/h
1516 03-03-2003 14:03:25 5.7 C 5.76 g/m*3 5.7 C 0 km/h
1517 03-03-2003 14:09:25 5.7 C 5.76 g/m*3 5.7 C 0 km/h
1518 03-03-2003 14:15:25 5.7 C 5.76 g/m*3 5.7 C 0 km/h
1519 03-03-2003 14:21:25 5.7 C 5.76 g/m*3 5.7 C 0 km/h
1520 03-03-2003 14:27:25 5.7 C 5.69 g/m*3 5.7 C 0 km/h
1521 03-03-2003 14:33:25 5.7 C 5.76 g/m*3 5.7 C 0 km/h
1522 03-03-2003 14:39:25 5.8 C 5.8 g/m*3 5.8 C 0 km/h
1523 03-03-2003 14:45:11 5.8 C 5.8 g/m*3 5.8 C 0 km/h
1524 03-03-2003 14:51:11 5.8 C 5.8 g/m*3 5.8 C 0 km/h
1525 03-03-2003 14:57:11 5.8 C 5.8 g/m*3 5.8 C 0 km/h
Sensor: Nr:Datum:Temp:Abs-Feuchte:Windchill:Wind:
Aussen-T/F 1526 03-03-2003 15:03:11 5.8 C 5.8 g/m*3 5.8 C 0 km/h
1527 03-03-2003 15:09:11 5.8 C 5.8 g/m*3 5.8 C 0 km/h
1528 03-03-2003 15:15:11 5.8 C 5.8 g/m*3 5.8 C 0 km/h
1529 03-03-2003 15:21:11 5.8 C 5.8 g/m*3 5.8 C 0 km/h
1530 03-03-2003 15:27:11 5.8 C 5.8 g/m*3 5.8 C 0 km/h
1531 03-03-2003 15:33:11 5.8 C 5.8 g/m*3 5.8 C 0 km/h
1532 03-03-2003 15:39:11 5.8 C 5.8 g/m*3 5.8 C 0 km/h
1533 03-03-2003 15:45:11 6.1 C 5.7 g/m*3 6.1 C 0 km/h
1534 03-03-2003 15:51:11 6.1 C 5.7 g/m*3 6.1 C 0 km/h
1535 03-03-2003 15:57:11 6.2 C 5.81 g/m*3 6.2 C 0 km/h
1536 03-03-2003 16:09:10 6.3 C 5.85 g/m*3 6.3 C 0 km/h
1537 03-03-2003 16:15:10 6.5 C 5.85 g/m*3 6.5 C 0 km/h
1538 03-03-2003 16:21:10 6.5 C 5.85 g/m*3 6.5 C 0 km/h
1539 03-03-2003 16:27:10 6.5 C 5.85 g/m*3 6.5 C 0 km/h
1540 03-03-2003 16:33:10 6.5 C 5.85 g/m*3 6.5 C 0 km/h
1541 03-03-2003 16:39:10 6.5 C 5.85 g/m*3 6.5 C 0 km/h
1542 03-03-2003 16:45:10 6.5 C 5.85 g/m*3 6.5 C 0 km/h
1543 03-03-2003 16:51:10 6.5 C 5.85 g/m*3 6.5 C 0 km/h
1544 03-03-2003 16:57:10 6.3 C 5.77 g/m*3 6.3 C 0 km/h
1545 03-03-2003 17:03:10 6.3 C 5.77 g/m*3 6.3 C 0 km/h
1546 03-03-2003 17:09:10 6.3 C 5.77 g/m*3 6.3 C 0 km/h
1547 03-03-2003 17:15:10 6 C 5.66 g/m*3 6 C 0 km/h
1548 03-03-2003 17:21:10 6 C 5.66 g/m*3 6 C 0 km/h
1549 03-03-2003 17:27:10 6 C 5.66 g/m*3 6 C 0 km/h
1550 03-03-2003 17:33:10 6 C 5.66 g/m*3 6 C 0 km/h
Sensor: Nr:Datum:Temp:Abs-Feuchte:Windchill:Wind:
Aussen-T/F 1551 03-03-2003 17:39:10 6 C 5.66 g/m*3 6 C 0 km/h
1552 03-03-2003 17:51:10 6 C 5.66 g/m*3 6 C 0 km/h
1553 03-03-2003 17:57:10 6 C 5.66 g/m*3 6 C 0 km/h
1554 03-03-2003 18:03:10 5.8 C 5.73 g/m*3 5.8 C 0 km/h
1555 03-03-2003 18:09:10 5.8 C 5.73 g/m*3 5.8 C 0 km/h
1556 03-03-2003 18:15:10 5.7 C 5.69 g/m*3 5.7 C 0 km/h
1557 03-03-2003 18:21:10 5.7 C 5.62 g/m*3 5.7 C 0 km/h
1558 03-03-2003 18:27:10 5.7 C 5.62 g/m*3 5.7 C 0 km/h
1559 03-03-2003 18:33:10 5.7 C 5.62 g/m*3 5.7 C 0 km/h
1560 03-03-2003 18:39:10 5.7 C 5.62 g/m*3 5.7 C 0 km/h
1561 03-03-2003 18:45:10 5.7 C 5.62 g/m*3 5.7 C 0 km/h
1562 03-03-2003 18:51:10 5.5 C 5.69 g/m*3 5.5 C 0 km/h
1563 03-03-2003 18:57:10 5.5 C 5.69 g/m*3 5.5 C 0 km/h
1564 03-03-2003 19:03:10 5.5 C 5.69 g/m*3 5.5 C 0 km/h
1565 03-03-2003 19:09:10 5.5 C 5.69 g/m*3 5.5 C 0 km/h
1566 03-03-2003 19:15:10 5.4 C 5.58 g/m*3 5.4 C 0 km/h
1567 03-03-2003 19:21:10 5.4 C 5.58 g/m*3 5.4 C 0 km/h
1568 03-03-2003 19:27:10 5.4 C 5.65 g/m*3 5.4 C 0 km/h
1569 03-03-2003 19:33:10 5.3 C 5.61 g/m*3 5.3 C 0 km/h
1570 03-03-2003 19:39:10 5.3 C 5.61 g/m*3 5.3 C 0 km/h
1571 03-03-2003 19:45:10 5.2 C 5.65 g/m*3 5.2 C 0 km/h
1572 03-03-2003 19:51:10 5.2 C 5.65 g/m*3 5.2 C 0 km/h
1573 03-03-2003 19:57:10 5.2 C 5.65 g/m*3 5.2 C 0 km/h
1574 03-03-2003 20:04:10 5.2 C 5.65 g/m*3 5.2 C 0 km/h
1575 03-03-2003 20:10:10 5.2 C 5.65 g/m*3 5.2 C 0 km/h
Sensor: Nr:Datum:Temp:Abs-Feuchte:Windchill:Wind:
Aussen-T/F 1576 03-03-2003 20:16:10 5.2 C 5.65 g/m*3 5.2 C 0 km/h
1577 03-03-2003 20:22:10 5.1 C 5.54 g/m*3 5.1 C 0 km/h
1578 03-03-2003 20:28:10 5.2 C 5.65 g/m*3 5.2 C 0 km/h
1579 03-03-2003 20:34:10 5.2 C 5.65 g/m*3 5.2 C 0 km/h
1580 03-03-2003 20:40:10 5.2 C 5.65 g/m*3 5.2 C 0 km/h
1581 03-03-2003 20:46:10 5.2 C 5.65 g/m*3 5.2 C 0 km/h
1582 03-03-2003 20:52:10 5.1 C 5.61 g/m*3 5.1 C 0 km/h
1583 03-03-2003 20:58:10 5.1 C 5.61 g/m*3 5.1 C 0 km/h
1584 03-03-2003 21:04:10 5.1 C 5.61 g/m*3 5.1 C 0 km/h
1585 03-03-2003 21:10:10 5 C 5.57 g/m*3 5 C 0 km/h
1586 03-03-2003 21:16:10 5 C 5.64 g/m*3 5 C 0 km/h
1587 03-03-2003 21:22:10 5 C 5.64 g/m*3 5 C 0 km/h
1588 03-03-2003 21:28:10 5 C 5.64 g/m*3 5 C 0 km/h
1589 03-03-2003 21:34:10 5 C 5.64 g/m*3 5 C 0 km/h
1590 03-03-2003 21:40:10 5 C 5.57 g/m*3 5 C 0 km/h
1591 03-03-2003 21:46:10 4.9 C 5.6 g/m*3 4.9 C 0 km/h
1592 03-03-2003 21:52:10 4.9 C 5.6 g/m*3 4.9 C 0 km/h
1593 03-03-2003 21:58:10 4.9 C 5.6 g/m*3 4.9 C 0 km/h
1594 03-03-2003 22:04:10 4.9 C 5.6 g/m*3 4.9 C 0 km/h
1595 03-03-2003 22:10:10 4.9 C 5.6 g/m*3 4.9 C 0 km/h
1596 03-03-2003 22:16:10 4.9 C 5.6 g/m*3 4.9 C 0 km/h
1597 03-03-2003 22:22:10 4.8 C 5.57 g/m*3 4.8 C 0 km/h
1598 03-03-2003 22:28:10 4.8 C 5.57 g/m*3 4.8 C 0 km/h
1599 03-03-2003 22:34:10 4.8 C 5.63 g/m*3 4.8 C 0 km/h
1600 03-03-2003 22:40:10 4.8 C 5.63 g/m*3 4.8 C 0 km/h
Sensor: Nr:Datum:Temp:Abs-Feuchte:Windchill:Wind:
Aussen-T/F 1601 03-03-2003 22:46:10 4.8 C 5.63 g/m*3 4.8 C 0 km/h
1602 03-03-2003 22:52:10 4.7 C 5.6 g/m*3 4.7 C 0 km/h
1603 03-03-2003 22:58:10 4.7 C 5.6 g/m*3 4.7 C 0 km/h
1604 03-03-2003 23:04:10 4.7 C 5.6 g/m*3 4.7 C 0 km/h
1605 03-03-2003 23:10:10 4.7 C 5.6 g/m*3 4.7 C 0 km/h
1606 03-03-2003 23:16:10 4.7 C 5.6 g/m*3 4.7 C 0 km/h
1607 03-03-2003 23:22:10 4.7 C 5.6 g/m*3 4.7 C 0 km/h
1608 03-03-2003 23:28:10 4.7 C 5.6 g/m*3 4.7 C 0 km/h
1609 03-03-2003 23:34:10 4.6 C 5.56 g/m*3 4.6 C 0 km/h
1610 03-03-2003 23:40:10 4.6 C 5.56 g/m*3 4.6 C 0 km/h
1611 03-03-2003 23:46:10 4.6 C 5.56 g/m*3 4.6 C 0 km/h
1612 03-03-2003 23:52:10 4.6 C 5.56 g/m*3 4.6 C 0 km/h
1613 03-03-2003 23:58:10 4.6 C 5.56 g/m*3 4.6 C 0 km/h
1614 04-03-2003 00:04:10 4.6 C 5.56 g/m*3 4.6 C 0 km/h
1615 04-03-2003 00:10:10 4.6 C 5.56 g/m*3 4.6 C 0 km/h
1616 04-03-2003 00:16:10 4.6 C 5.56 g/m*3 4.6 C 0 km/h
1617 04-03-2003 00:22:10 4.6 C 5.56 g/m*3 4.6 C 0 km/h
1618 04-03-2003 00:28:10 4.6 C 5.56 g/m*3 4.6 C 0 km/h
1619 04-03-2003 00:34:10 4.6 C 5.56 g/m*3 4.6 C 0 km/h
1620 04-03-2003 00:40:10 4.5 C 5.52 g/m*3 4.5 C 0 km/h
1621 04-03-2003 00:46:10 4.5 C 5.52 g/m*3 4.5 C 0 km/h
1622 04-03-2003 00:52:10 4.5 C 5.52 g/m*3 4.5 C 0 km/h
1623 04-03-2003 00:58:10 4.6 C 5.56 g/m*3 4.6 C 0 km/h
1624 04-03-2003 01:04:10 4.6 C 5.56 g/m*3 4.6 C 0 km/h
1625 04-03-2003 01:10:10 4.5 C 5.52 g/m*3 4.5 C 0 km/h
Sensor: Nr:Datum:Temp:Abs-Feuchte:Windchill:Wind:
Aussen-T/F 1626 04-03-2003 01:16:10 4.6 C 5.56 g/m*3 4.6 C 0 km/h
1627 04-03-2003 01:22:10 4.5 C 5.52 g/m*3 4.5 C 0 km/h
1628 04-03-2003 01:28:10 4.5 C 5.52 g/m*3 4.5 C 0 km/h
1629 04-03-2003 01:34:10 4.5 C 5.52 g/m*3 4.5 C 0 km/h
1630 04-03-2003 01:40:10 4.5 C 5.52 g/m*3 4.5 C 0 km/h
1631 04-03-2003 01:46:10 4.5 C 5.52 g/m*3 4.5 C 0 km/h
1632 04-03-2003 01:52:10 4.5 C 5.52 g/m*3 4.5 C 0 km/h
1633 04-03-2003 01:58:10 4.5 C 5.52 g/m*3 4.5 C 0 km/h
1634 04-03-2003 02:04:10 4.5 C 5.52 g/m*3 4.5 C 0 km/h
1635 04-03-2003 02:10:10 4.5 C 5.52 g/m*3 4.5 C 0 km/h
1636 04-03-2003 02:16:10 4.5 C 5.52 g/m*3 4.5 C 0 km/h
1637 04-03-2003 02:22:10 4.5 C 5.52 g/m*3 4.5 C 0 km/h
1638 04-03-2003 02:28:10 4.5 C 5.52 g/m*3 4.5 C 0 km/h
1639 04-03-2003 02:34:10 4.4 C 5.48 g/m*3 4.4 C 0 km/h
1640 04-03-2003 02:40:10 4.4 C 5.48 g/m*3 4.4 C 0 km/h
1641 04-03-2003 02:46:10 4.4 C 5.48 g/m*3 4.4 C 0 km/h
1642 04-03-2003 02:52:10 4.4 C 5.48 g/m*3 4.4 C 0 km/h
1643 04-03-2003 02:58:10 4.4 C 5.48 g/m*3 4.4 C 0 km/h
1644 04-03-2003 03:04:10 4.3 C 5.45 g/m*3 4.3 C 0 km/h
1645 04-03-2003 03:10:10 4.3 C 5.45 g/m*3 4.3 C 0 km/h
1646 04-03-2003 03:16:10 4.4 C 5.48 g/m*3 4.4 C 0 km/h
1647 04-03-2003 03:22:10 4.3 C 5.45 g/m*3 4.3 C 0 km/h
1648 04-03-2003 03:28:10 4.2 C 5.41 g/m*3 4.2 C 0 km/h
1649 04-03-2003 03:34:10 4.2 C 5.41 g/m*3 4.2 C 0 km/h
1650 04-03-2003 03:40:10 4.2 C 5.48 g/m*3 4.2 C 0 km/h
Sensor: Nr:Datum:Temp:Abs-Feuchte:Windchill:Wind:
Aussen-T/F 1651 04-03-2003 03:46:10 4.1 C 5.44 g/m*3 4.1 C 0 km/h
1652 04-03-2003 03:52:10 4 C 5.4 g/m*3 4 C 0 km/h
1653 04-03-2003 03:58:10 4 C 5.4 g/m*3 4 C 0 km/h
1654 04-03-2003 04:04:10 4 C 5.4 g/m*3 4 C 0 km/h
1655 04-03-2003 04:10:10 3.8 C 5.33 g/m*3 3.8 C 0 km/h
1656 04-03-2003 04:16:10 3.6 C 5.26 g/m*3 3.6 C 0 km/h
1657 04-03-2003 04:22:10 3.5 C 5.23 g/m*3 3.5 C 0 km/h
1658 04-03-2003 04:28:10 3.2 C 5.06 g/m*3 3.2 C 0 km/h
1659 04-03-2003 04:34:10 2.9 C 5.02 g/m*3 2.9 C 0 km/h
1660 04-03-2003 04:40:10 2.7 C 4.95 g/m*3 2.7 C 0 km/h
1661 04-03-2003 04:46:10 2.6 C 4.92 g/m*3 2.6 C 0 km/h
1662 04-03-2003 04:52:10 2.5 C 4.89 g/m*3 2.5 C 0 km/h
1663 04-03-2003 04:58:10 2.4 C 4.85 g/m*3 2.4 C 0 km/h
1664 04-03-2003 05:04:10 2.3 C 4.82 g/m*3 2.3 C 0 km/h
1665 04-03-2003 05:10:10 2.2 C 4.79 g/m*3 2.2 C 0 km/h
1666 04-03-2003 05:16:10 2 C 4.72 g/m*3 2 C 0 km/h
1667 04-03-2003 05:22:10 1.9 C 4.75 g/m*3 1.9 C 0 km/h
1668 04-03-2003 05:28:10 1.8 C 4.71 g/m*3 1.8 C 0 km/h
1669 04-03-2003 05:34:10 1.8 C 4.71 g/m*3 1.8 C 0 km/h
1670 04-03-2003 05:40:10 1.8 C 4.71 g/m*3 1.8 C 0 km/h
1671 04-03-2003 05:46:10 1.7 C 4.68 g/m*3 1.7 C 0 km/h
1672 04-03-2003 05:52:10 1.5 C 4.62 g/m*3 1.5 C 0 km/h
1673 04-03-2003 05:58:10 1.5 C 4.62 g/m*3 1.5 C 0 km/h
1674 04-03-2003 06:04:10 1.5 C 4.62 g/m*3 1.5 C 0 km/h
1675 04-03-2003 06:10:10 1.3 C 4.56 g/m*3 1.3 C 0 km/h
Sensor: Nr:Datum:Temp:Abs-Feuchte:Windchill:Wind:
Aussen-T/F 1676 04-03-2003 06:16:10 1.4 C 4.64 g/m*3 1.4 C 0 km/h
1677 04-03-2003 06:22:10 1.4 C 4.64 g/m*3 1.4 C 0 km/h
1678 04-03-2003 06:28:10 1.4 C 4.69 g/m*3 1.4 C 0 km/h
1679 04-03-2003 06:34:10 1.5 C 4.73 g/m*3 1.5 C 0 km/h
1680 04-03-2003 06:40:10 1.5 C 4.73 g/m*3 1.5 C 0 km/h
1681 04-03-2003 06:46:10 1.5 C 4.73 g/m*3 1.5 C 0 km/h
1682 04-03-2003 06:52:10 1.5 C 4.73 g/m*3 1.5 C 0 km/h
1683 04-03-2003 06:58:10 1.5 C 4.73 g/m*3 1.5 C 0 km/h
1684 04-03-2003 07:04:10 1.6 C 4.76 g/m*3 1.6 C 0 km/h
1685 04-03-2003 07:10:10 1.5 C 4.73 g/m*3 1.5 C 0 km/h
1686 04-03-2003 07:16:10 1.5 C 4.73 g/m*3 1.5 C 0 km/h
1687 04-03-2003 07:22:10 1.4 C 4.69 g/m*3 1.4 C 0 km/h
1688 04-03-2003 07:28:10 1.4 C 4.75 g/m*3 1.4 C 0 km/h
1689 04-03-2003 07:34:10 1.1 C 4.65 g/m*3 1.1 C 0 km/h
1690 04-03-2003 07:40:10 1.1 C 4.65 g/m*3 1.1 C 0 km/h
1691 04-03-2003 07:46:10 1 C 4.62 g/m*3 1 C 0 km/h
1692 04-03-2003 07:52:10 1 C 4.67 g/m*3 1 C 0 km/h
1693 04-03-2003 07:58:10 1 C 4.67 g/m*3 1 C 0 km/h
1694 04-03-2003 08:04:10 0.9 C 4.69 g/m*3 0.9 C 0 km/h
1695 04-03-2003 08:10:10 0.9 C 4.69 g/m*3 0.9 C 0 km/h
1696 04-03-2003 08:16:10 1 C 4.72 g/m*3 1 C 0 km/h
1697 04-03-2003 08:22:10 1.1 C 4.76 g/m*3 1.1 C 0 km/h
1698 04-03-2003 08:28:10 1.1 C 4.76 g/m*3 1.1 C 0 km/h
1699 04-03-2003 08:34:10 1.1 C 4.76 g/m*3 1.1 C 0 km/h
1700 04-03-2003 08:40:10 1 C 4.67 g/m*3 1 C 0 km/h
Sensor: Nr:Datum:Temp:Abs-Feuchte:Windchill:Wind:
Aussen-T/F 1701 04-03-2003 08:46:10 1.3 C 4.82 g/m*3 1.3 C 0 km/h
1702 04-03-2003 08:52:10 1.5 C 4.89 g/m*3 1.5 C 0 km/h
1703 04-03-2003 08:58:10 1.7 C 4.9 g/m*3 1.7 C 0 km/h
1704 04-03-2003 09:04:10 1.8 C 4.88 g/m*3 1.8 C 0 km/h
1705 04-03-2003 09:10:10 1.9 C 4.91 g/m*3 1.9 C 0 km/h
1706 04-03-2003 09:16:10 2 C 4.89 g/m*3 2 C 0 km/h
1707 04-03-2003 09:22:10 1.8 C 4.82 g/m*3 1.8 C 0 km/h
1708 04-03-2003 09:28:10 1.8 C 4.82 g/m*3 1.8 C 0 km/h
1709 04-03-2003 09:34:10 2.1 C 4.87 g/m*3 2.1 C 0 km/h
1710 04-03-2003 09:40:10 2.4 C 4.97 g/m*3 2.4 C 0 km/h
1711 04-03-2003 09:46:10 2.7 C 5.07 g/m*3 2.7 C 0 km/h
1712 04-03-2003 09:52:10 2.8 C 5.04 g/m*3 2.8 C 0 km/h
1713 04-03-2003 09:58:10 2.5 C 4.83 g/m*3 2.5 C 0 km/h
1714 04-03-2003 10:04:10 2.6 C 4.86 g/m*3 2.6 C 0 km/h
1715 04-03-2003 10:10:10 3 C 4.99 g/m*3 3 C 0 km/h
1716 04-03-2003 10:16:10 3.2 C 5.06 g/m*3 3.2 C 0 km/h
1717 04-03-2003 10:22:10 3.5 C 5.1 g/m*3 3.5 C 0 km/h
1718 04-03-2003 10:28:10 3.7 C 5.11 g/m*3 3.7 C 0 km/h
1719 04-03-2003 10:34:10 3.8 C 5.08 g/m*3 3.8 C 0 km/h
1720 04-03-2003 10:40:10 3.9 C 5.12 g/m*3 3.9 C 0 km/h
1721 04-03-2003 10:46:10 4.1 C 5.12 g/m*3 4.1 C 0 km/h
1722 04-03-2003 10:52:10 4.2 C 5.15 g/m*3 4.2 C 0 km/h
1723 04-03-2003 10:58:10 4.3 C 5.25 g/m*3 4.3 C 0 km/h
1724 04-03-2003 11:04:10 4.3 C 5.25 g/m*3 4.3 C 0 km/h
1725 04-03-2003 11:10:10 4.2 C 5.28 g/m*3 4.2 C 0 km/h
Sensor: Nr:Datum:Temp:Abs-Feuchte:Windchill:Wind:
Aussen-T/F 1726 04-03-2003 11:16:10 4.2 C 5.28 g/m*3 4.2 C 0 km/h
1727 04-03-2003 11:22:10 4.5 C 5.39 g/m*3 4.5 C 0 km/h
1728 04-03-2003 11:28:10 4.9 C 5.6 g/m*3 4.9 C 0 km/h
1729 04-03-2003 11:34:10 5.1 C 5.61 g/m*3 5.1 C 0 km/h
1730 04-03-2003 11:40:10 5.8 C 5.8 g/m*3 5.8 C 0 km/h
1731 04-03-2003 11:46:10 6.6 C 5.74 g/m*3 6.6 C 0 km/h
1732 04-03-2003 11:52:10 7 C 5.66 g/m*3 7 C 0 km/h
1733 04-03-2003 11:58:10 7 C 5.66 g/m*3 7 C 0 km/h
1734 04-03-2003 12:04:11 8.1 C 5.66 g/m*3 8.1 C 0 km/h
1735 04-03-2003 12:10:11 8.3 C 5.39 g/m*3 8.3 C 0 km/h
1736 04-03-2003 12:16:11 8.5 C 5.46 g/m*3 8.5 C 0 km/h
1737 04-03-2003 12:22:11 9.1 C 5.32 g/m*3 9.1 C 0 km/h
1738 04-03-2003 12:28:11 9.1 C 5.32 g/m*3 9.1 C 0 km/h
1739 04-03-2003 12:34:11 9.7 C 5.25 g/m*3 9.7 C 0 km/h
1740 04-03-2003 12:40:11 10.1 C 5.11 g/m*3 10.1 C 0 km/h
1741 04-03-2003 12:46:11 10.1 C 5.11 g/m*3 10.1 C 0 km/h
1742 04-03-2003 12:52:11 10.1 C 5.11 g/m*3 10.1 C 0 km/h
1743 04-03-2003 12:58:11 10.4 C 5.01 g/m*3 10.4 C 0 km/h
1744 04-03-2003 13:04:11 10.7 C 5.3 g/m*3 10.7 C 0 km/h
1745 04-03-2003 13:10:11 10.5 C 4.85 g/m*3 10.5 C 0 km/h
1746 04-03-2003 13:16:11 11 C 5.1 g/m*3 11 C 0 km/h
1747 04-03-2003 13:22:11 11.1 C 5.04 g/m*3 11.1 C 0 km/h
1748 04-03-2003 13:28:11 11.5 C 4.96 g/m*3 11.5 C 0 km/h
1749 04-03-2003 13:34:11 11.7 C 5.02 g/m*3 11.7 C 0 km/h
1750 04-03-2003 13:40:11 11.6 C 4.78 g/m*3 11.6 C 0 km/h
Sensor: Nr:Datum:Temp:Abs-Feuchte:Windchill:Wind:
Aussen-T/F 1751 04-03-2003 13:46:11 11.4 C 4.72 g/m*3 11.4 C 0 km/h
1752 04-03-2003 13:52:11 11.4 C 4.72 g/m*3 11.4 C 0 km/h
1753 04-03-2003 13:58:11 11.4 C 4.82 g/m*3 11.4 C 0 km/h
1754 04-03-2003 14:04:11 11.5 C 4.85 g/m*3 11.5 C 0 km/h
1755 04-03-2003 14:10:11 11.8 C 4.84 g/m*3 11.8 C 0 km/h
1756 04-03-2003 14:16:11 12.2 C 4.96 g/m*3 12.2 C 0 km/h
1757 04-03-2003 14:22:11 12.1 C 4.61 g/m*3 12.1 C 0 km/h
1758 04-03-2003 14:28:11 12.2 C 4.75 g/m*3 12.2 C 0 km/h
1759 04-03-2003 14:34:11 12.6 C 4.76 g/m*3 12.6 C 0 km/h
1760 04-03-2003 14:40:11 12.7 C 4.68 g/m*3 12.7 C 0 km/h
1761 04-03-2003 14:46:11 13 C 4.76 g/m*3 13 C 0 km/h
1762 04-03-2003 14:52:11 12.8 C 4.59 g/m*3 12.8 C 0 km/h
1763 04-03-2003 14:58:11 12.6 C 4.65 g/m*3 12.6 C 0 km/h
1764 04-03-2003 15:04:11 12.5 C 4.73 g/m*3 12.5 C 0 km/h
1765 04-03-2003 15:10:11 12.7 C 4.68 g/m*3 12.7 C 0 km/h
1766 04-03-2003 15:16:11 12.9 C 4.73 g/m*3 12.9 C 0 km/h
1767 04-03-2003 15:22:11 13.3 C 4.85 g/m*3 13.3 C 0 km/h
1768 04-03-2003 15:28:11 13.2 C 4.82 g/m*3 13.2 C 0 km/h
1769 04-03-2003 15:34:11 13.6 C 4.94 g/m*3 13.6 C 0 km/h
1770 04-03-2003 15:40:11 13.4 C 4.77 g/m*3 13.4 C 0 km/h
1771 04-03-2003 15:46:11 13.4 C 4.77 g/m*3 13.4 C 0 km/h
1772 04-03-2003 15:52:11 13.3 C 4.74 g/m*3 13.3 C 0 km/h
1773 04-03-2003 15:58:11 13.2 C 4.71 g/m*3 13.2 C 0 km/h
1774 04-03-2003 16:04:11 13.2 C 4.82 g/m*3 13.2 C 0 km/h
1775 04-03-2003 16:10:11 13.3 C 4.74 g/m*3 13.3 C 0 km/h
Sensor: Nr:Datum:Temp:Abs-Feuchte:Windchill:Wind:
Aussen-T/F 1776 04-03-2003 16:16:11 13.2 C 4.82 g/m*3 13.2 C 0 km/h
1777 04-03-2003 16:22:11 13.2 C 4.82 g/m*3 13.2 C 0 km/h
1778 04-03-2003 16:28:11 12.6 C 4.76 g/m*3 12.6 C 0 km/h
1779 04-03-2003 16:34:11 12.2 C 4.86 g/m*3 12.2 C 0 km/h
1780 04-03-2003 16:40:11 12 C 4.9 g/m*3 12 C 0 km/h
1781 04-03-2003 16:46:11 11.8 C 5.05 g/m*3 11.8 C 0 km/h
1782 04-03-2003 16:52:11 11.7 C 5.02 g/m*3 11.7 C 0 km/h
1783 04-03-2003 16:58:11 11.5 C 5.06 g/m*3 11.5 C 0 km/h
1784 04-03-2003 17:04:11 11.3 C 5.1 g/m*3 11.3 C 0 km/h
1785 04-03-2003 17:10:11 11.2 C 5.07 g/m*3 11.2 C 0 km/h
1786 04-03-2003 17:16:11 11 C 5.1 g/m*3 11 C 0 km/h
1787 04-03-2003 17:22:11 10.8 C 5.14 g/m*3 10.8 C 0 km/h
1788 04-03-2003 17:28:11 10.7 C 5.11 g/m*3 10.7 C 0 km/h
1789 04-03-2003 17:34:11 10.4 C 5.11 g/m*3 10.4 C 0 km/h
1790 04-03-2003 17:40:11 10.3 C 5.17 g/m*3 10.3 C 0 km/h
1791 04-03-2003 17:46:11 10.1 C 5.2 g/m*3 10.1 C 0 km/h
1792 04-03-2003 17:52:11 9.9 C 5.14 g/m*3 9.9 C 0 km/h
1793 04-03-2003 17:58:11 9.7 C 5.25 g/m*3 9.7 C 0 km/h
1794 04-03-2003 18:04:11 9.6 C 5.31 g/m*3 9.6 C 0 km/h
1795 04-03-2003 18:10:11 9.3 C 5.21 g/m*3 9.3 C 0 km/h
1796 04-03-2003 18:16:11 9.2 C 5.18 g/m*3 9.2 C 0 km/h
1797 04-03-2003 18:22:11 8.8 C 5.48 g/m*3 8.8 C 0 km/h
1798 04-03-2003 18:28:11 8.7 C 5.45 g/m*3 8.7 C 0 km/h
1799 04-03-2003 18:34:11 8.4 C 5.43 g/m*3 8.4 C 0 km/h
1800 04-03-2003 18:40:11 8.4 C 5.34 g/m*3 8.4 C 0 km/h
Sensor: Nr:Datum:Temp:Abs-Feuchte:Windchill:Wind:
Aussen-T/F 1801 04-03-2003 18:46:11 8.4 C 5.26 g/m*3 8.4 C 0 km/h
1802 04-03-2003 18:52:11 8.2 C 5.36 g/m*3 8.2 C 0 km/h
1803 04-03-2003 18:58:11 8.2 C 5.28 g/m*3 8.2 C 0 km/h
1804 04-03-2003 19:04:11 8.2 C 5.28 g/m*3 8.2 C 0 km/h
1805 04-03-2003 19:10:11 8.2 C 5.44 g/m*3 8.2 C 0 km/h
1806 04-03-2003 19:16:11 8.2 C 5.36 g/m*3 8.2 C 0 km/h
1807 04-03-2003 19:28:11 8.4 C 5.26 g/m*3 8.4 C 0 km/h
1808 04-03-2003 19:34:11 8.5 C 5.29 g/m*3 8.5 C 0 km/h
1809 04-03-2003 19:40:11 8.5 C 5.29 g/m*3 8.5 C 0 km/h
1810 04-03-2003 19:46:11 8.6 C 5.16 g/m*3 8.6 C 0 km/h
1811 04-03-2003 19:52:11 8.7 C 5.28 g/m*3 8.7 C 0 km/h
1812 04-03-2003 19:58:11 8.6 C 5.33 g/m*3 8.6 C 0 km/h
1813 05-03-2003 16:05:13 13.4 C 6.28 g/m*3 13.4 C 0 km/h
1814 05-03-2003 16:11:13 13.4 C 6.28 g/m*3 13.4 C 0 km/h
1815 05-03-2003 16:17:13 13.4 C 6.39 g/m*3 13.4 C 0 km/h
1816 05-03-2003 16:23:13 13.4 C 6.28 g/m*3 13.4 C 0 km/h
1817 05-03-2003 16:29:13 13.4 C 6.28 g/m*3 13.4 C 0 km/h
1818 05-03-2003 16:35:13 13.4 C 6.28 g/m*3 13.4 C 0 km/h
1819 05-03-2003 16:41:13 13.4 C 6.28 g/m*3 13.4 C 0 km/h
1820 05-03-2003 16:47:13 13.5 C 6.55 g/m*3 13.5 C 0 km/h
1821 05-03-2003 16:53:13 13.5 C 6.67 g/m*3 13.5 C 0 km/h
1822 05-03-2003 16:59:13 13.5 C 6.67 g/m*3 13.5 C 0 km/h
1823 05-03-2003 17:05:13 13.5 C 6.67 g/m*3 13.5 C 0 km/h
1824 05-03-2003 17:11:13 13.5 C 6.67 g/m*3 13.5 C 0 km/h
1825 05-03-2003 17:17:13 13.1 C 6.62 g/m*3 13.1 C 0 km/h
Sensor: Nr:Datum:Temp:Abs-Feuchte:Windchill:Wind:
Aussen-T/F 1826 05-03-2003 17:23:13 13.1 C 6.62 g/m*3 13.1 C 0 km/h
1827 05-03-2003 17:29:13 12.9 C 6.76 g/m*3 12.9 C 0 km/h
1828 05-03-2003 17:35:13 12.7 C 6.79 g/m*3 12.7 C 0 km/h
1829 05-03-2003 17:41:13 12.5 C 6.82 g/m*3 12.5 C 0 km/h
1830 05-03-2003 17:47:13 12.4 C 6.77 g/m*3 12.4 C 0 km/h
1831 05-03-2003 17:53:13 12.2 C 6.8 g/m*3 12.2 C 0 km/h
1832 05-03-2003 17:59:13 12.1 C 6.76 g/m*3 12.1 C 0 km/h
1833 05-03-2003 18:05:13 12.1 C 6.86 g/m*3 12.1 C 0 km/h
1834 05-03-2003 18:11:13 12 C 6.82 g/m*3 12 C 0 km/h
1835 05-03-2003 18:17:13 11.8 C 6.84 g/m*3 11.8 C 0 km/h
1836 05-03-2003 18:23:13 11.7 C 6.9 g/m*3 11.7 C 0 km/h
1837 05-03-2003 18:29:13 11.6 C 6.86 g/m*3 11.6 C 0 km/h
1838 05-03-2003 18:35:13 11.5 C 6.92 g/m*3 11.5 C 0 km/h
1839 05-03-2003 18:41:13 11.4 C 6.88 g/m*3 11.4 C 0 km/h
1840 05-03-2003 18:47:13 11.4 C 6.88 g/m*3 11.4 C 0 km/h
1841 05-03-2003 18:53:13 11.3 C 6.94 g/m*3 11.3 C 0 km/h
1842 05-03-2003 18:59:13 11.3 C 6.94 g/m*3 11.3 C 0 km/h
1843 05-03-2003 19:05:13 11.2 C 6.89 g/m*3 11.2 C 0 km/h
1844 05-03-2003 19:11:13 11.3 C 6.94 g/m*3 11.3 C 0 km/h
1845 05-03-2003 19:17:13 11.2 C 6.89 g/m*3 11.2 C 0 km/h
1846 05-03-2003 19:23:13 11.2 C 6.89 g/m*3 11.2 C 0 km/h
1847 05-03-2003 19:29:13 11.3 C 6.94 g/m*3 11.3 C 0 km/h
1848 05-03-2003 19:35:13 11.3 C 7.04 g/m*3 11.3 C 0 km/h
1849 05-03-2003 19:41:13 11.1 C 6.95 g/m*3 11.1 C 0 km/h
1850 05-03-2003 19:47:13 11.1 C 6.95 g/m*3 11.1 C 0 km/h
Sensor: Nr:Datum:Temp:Abs-Feuchte:Windchill:Wind:
Aussen-T/F 1851 05-03-2003 19:53:13 11.1 C 6.95 g/m*3 11.1 C 0 km/h
1852 05-03-2003 19:59:13 11.1 C 6.95 g/m*3 11.1 C 0 km/h
1853 05-03-2003 20:06:12 11.1 C 6.95 g/m*3 11.1 C 0 km/h
1854 05-03-2003 20:12:12 11.1 C 6.95 g/m*3 11.1 C 0 km/h
1855 05-03-2003 20:18:12 11.1 C 6.95 g/m*3 11.1 C 0 km/h
1856 05-03-2003 20:24:12 11 C 6.91 g/m*3 11 C 0 km/h
1857 05-03-2003 20:30:12 10.9 C 6.96 g/m*3 10.9 C 0 km/h
1858 05-03-2003 20:36:12 10.9 C 6.96 g/m*3 10.9 C 0 km/h
1859 05-03-2003 20:42:12 10.9 C 6.96 g/m*3 10.9 C 0 km/h
1860 05-03-2003 20:48:12 10.9 C 6.96 g/m*3 10.9 C 0 km/h
1861 05-03-2003 20:54:12 10.9 C 6.96 g/m*3 10.9 C 0 km/h
1862 05-03-2003 21:06:12 11 C 6.91 g/m*3 11 C 0 km/h
1863 05-03-2003 21:12:12 10.9 C 6.96 g/m*3 10.9 C 0 km/h
1864 05-03-2003 21:18:12 10.9 C 6.96 g/m*3 10.9 C 0 km/h
1865 05-03-2003 21:24:12 10.8 C 6.92 g/m*3 10.8 C 0 km/h
1866 05-03-2003 21:30:12 10.9 C 6.96 g/m*3 10.9 C 0 km/h
1867 05-03-2003 21:36:12 11 C 6.81 g/m*3 11 C 0 km/h
1868 05-03-2003 21:42:12 11 C 6.81 g/m*3 11 C 0 km/h
1869 05-03-2003 21:48:12 11 C 6.81 g/m*3 11 C 0 km/h
1870 05-03-2003 21:54:12 10.9 C 6.76 g/m*3 10.9 C 0 km/h
1871 05-03-2003 22:00:12 10.8 C 6.72 g/m*3 10.8 C 0 km/h
1872 05-03-2003 22:06:12 10.5 C 6.69 g/m*3 10.5 C 0 km/h
1873 05-03-2003 22:12:12 10.3 C 6.61 g/m*3 10.3 C 0 km/h
1874 05-03-2003 22:18:12 10 C 6.58 g/m*3 10 C 0 km/h
1875 05-03-2003 22:24:12 10.2 C 6.66 g/m*3 10.2 C 0 km/h
Sensor: Nr:Datum:Temp:Abs-Feuchte:Windchill:Wind:
Aussen-T/F 1876 05-03-2003 22:30:12 10.2 C 6.66 g/m*3 10.2 C 0 km/h
1877 05-03-2003 22:36:12 10.2 C 6.66 g/m*3 10.2 C 0 km/h
1878 05-03-2003 22:42:12 10.2 C 6.57 g/m*3 10.2 C 0 km/h
1879 05-03-2003 22:48:12 10.2 C 6.57 g/m*3 10.2 C 0 km/h
1880 05-03-2003 22:54:12 10.1 C 6.52 g/m*3 10.1 C 0 km/h
1881 05-03-2003 23:00:12 10.2 C 6.47 g/m*3 10.2 C 0 km/h
1882 05-03-2003 23:06:12 10.2 C 6.57 g/m*3 10.2 C 0 km/h
1883 05-03-2003 23:12:12 10.2 C 6.57 g/m*3 10.2 C 0 km/h
1884 05-03-2003 23:18:12 10.1 C 6.52 g/m*3 10.1 C 0 km/h
1885 05-03-2003 23:24:12 10.1 C 6.52 g/m*3 10.1 C 0 km/h
1886 05-03-2003 23:30:12 9.6 C 6.41 g/m*3 9.6 C 0 km/h
1887 05-03-2003 23:36:12 9.4 C 6.42 g/m*3 9.4 C 0 km/h
1888 05-03-2003 23:42:12 9.2 C 6.34 g/m*3 9.2 C 0 km/h
1889 05-03-2003 23:48:12 9.2 C 6.25 g/m*3 9.2 C 0 km/h
1890 05-03-2003 23:54:12 9 C 6.26 g/m*3 9 C 0 km/h
1891 06-03-2003 00:00:12 9.1 C 6.3 g/m*3 9.1 C 0 km/h
1892 06-03-2003 00:06:12 9.3 C 6.29 g/m*3 9.3 C 0 km/h
1893 06-03-2003 00:12:12 9.3 C 6.29 g/m*3 9.3 C 0 km/h
1894 06-03-2003 00:18:12 9.5 C 6.28 g/m*3 9.5 C 0 km/h
1895 06-03-2003 00:24:12 9.4 C 6.24 g/m*3 9.4 C 0 km/h
1896 06-03-2003 00:30:12 9.4 C 6.24 g/m*3 9.4 C 0 km/h
1897 06-03-2003 00:36:12 9.4 C 6.24 g/m*3 9.4 C 0 km/h
1898 06-03-2003 00:42:12 9.5 C 6.28 g/m*3 9.5 C 0 km/h
1899 06-03-2003 00:48:12 9.6 C 6.32 g/m*3 9.6 C 0 km/h
1900 06-03-2003 00:54:12 9.7 C 6.27 g/m*3 9.7 C 0 km/h
Sensor: Nr:Datum:Temp:Abs-Feuchte:Windchill:Wind:
Aussen-T/F 1901 06-03-2003 01:00:12 9.6 C 6.23 g/m*3 9.6 C 0 km/h
1902 06-03-2003 01:06:12 9.7 C 6.18 g/m*3 9.7 C 0 km/h
1903 06-03-2003 01:12:12 9.8 C 6.22 g/m*3 9.8 C 0 km/h
1904 06-03-2003 01:18:12 9.8 C 6.12 g/m*3 9.8 C 0 km/h
1905 06-03-2003 01:24:12 9.6 C 6.14 g/m*3 9.6 C 0 km/h
1906 06-03-2003 01:30:12 9.9 C 6.16 g/m*3 9.9 C 0 km/h
1907 06-03-2003 01:36:12 10 C 5.92 g/m*3 10 C 0 km/h
1908 06-03-2003 01:42:12 10.1 C 5.96 g/m*3 10.1 C 0 km/h
1909 06-03-2003 01:48:12 10.1 C 5.96 g/m*3 10.1 C 0 km/h
1910 06-03-2003 01:54:12 10 C 5.92 g/m*3 10 C 0 km/h
1911 06-03-2003 02:00:12 10 C 5.92 g/m*3 10 C 0 km/h
1912 06-03-2003 02:06:12 10.1 C 5.86 g/m*3 10.1 C 0 km/h
1913 06-03-2003 02:12:12 10.1 C 5.86 g/m*3 10.1 C 0 km/h
1914 06-03-2003 02:18:12 10.1 C 5.86 g/m*3 10.1 C 0 km/h
1915 06-03-2003 02:24:12 10 C 5.83 g/m*3 10 C 0 km/h
1916 06-03-2003 02:30:12 10.1 C 5.86 g/m*3 10.1 C 0 km/h
1917 06-03-2003 02:36:12 10.1 C 5.77 g/m*3 10.1 C 0 km/h
1918 06-03-2003 02:42:12 10 C 5.73 g/m*3 10 C 0 km/h
1919 06-03-2003 02:48:12 10.2 C 5.71 g/m*3 10.2 C 0 km/h
1920 06-03-2003 02:54:12 10.1 C 5.67 g/m*3 10.1 C 0 km/h
1921 06-03-2003 03:00:12 10.2 C 5.71 g/m*3 10.2 C 0 km/h
1922 06-03-2003 03:06:12 10.2 C 5.61 g/m*3 10.2 C 0 km/h
1923 06-03-2003 03:12:12 10.2 C 5.52 g/m*3 10.2 C 0 km/h
1924 06-03-2003 03:18:12 10.2 C 5.52 g/m*3 10.2 C 0 km/h
1925 06-03-2003 03:24:12 10.1 C 5.48 g/m*3 10.1 C 0 km/h
Sensor: Nr:Datum:Temp:Abs-Feuchte:Windchill:Wind:
Aussen-T/F 1926 06-03-2003 03:30:12 10 C 5.45 g/m*3 10 C 0 km/h
1927 06-03-2003 03:36:12 9.9 C 5.51 g/m*3 9.9 C 0 km/h
1928 06-03-2003 03:42:12 9.9 C 5.51 g/m*3 9.9 C 0 km/h
1929 06-03-2003 03:48:12 9.8 C 5.47 g/m*3 9.8 C 0 km/h
1930 06-03-2003 03:54:12 9.7 C 5.53 g/m*3 9.7 C 0 km/h
1931 06-03-2003 04:00:12 9.6 C 5.5 g/m*3 9.6 C 0 km/h
1932 06-03-2003 04:06:12 9.6 C 5.5 g/m*3 9.6 C 0 km/h
1933 06-03-2003 04:12:12 9.6 C 5.5 g/m*3 9.6 C 0 km/h
1934 06-03-2003 04:18:12 9.6 C 5.5 g/m*3 9.6 C 0 km/h
1935 06-03-2003 04:24:12 9.6 C 5.4 g/m*3 9.6 C 0 km/h
1936 06-03-2003 04:30:12 9.5 C 5.46 g/m*3 9.5 C 0 km/h
1937 06-03-2003 04:36:12 9.4 C 5.43 g/m*3 9.4 C 0 km/h
1938 06-03-2003 04:42:12 9.5 C 5.46 g/m*3 9.5 C 0 km/h
1939 06-03-2003 04:48:12 9.5 C 5.37 g/m*3 9.5 C 0 km/h
1940 06-03-2003 04:54:12 9.4 C 5.43 g/m*3 9.4 C 0 km/h
1941 06-03-2003 05:00:12 9.5 C 5.46 g/m*3 9.5 C 0 km/h
1942 06-03-2003 05:06:12 9.4 C 5.43 g/m*3 9.4 C 0 km/h
1943 06-03-2003 05:12:12 9.4 C 5.43 g/m*3 9.4 C 0 km/h
1944 06-03-2003 05:18:12 9.4 C 5.43 g/m*3 9.4 C 0 km/h
1945 06-03-2003 05:24:12 9.3 C 5.39 g/m*3 9.3 C 0 km/h
1946 06-03-2003 05:30:12 9.3 C 5.39 g/m*3 9.3 C 0 km/h
1947 06-03-2003 05:36:12 9.2 C 5.36 g/m*3 9.2 C 0 km/h
1948 06-03-2003 05:42:12 9.1 C 5.32 g/m*3 9.1 C 0 km/h
1949 06-03-2003 05:48:12 9 C 5.29 g/m*3 9 C 0 km/h
1950 06-03-2003 05:54:12 8.7 C 5.36 g/m*3 8.7 C 0 km/h
Sensor: Nr:Datum:Temp:Abs-Feuchte:Windchill:Wind:
Aussen-T/F 1951 06-03-2003 06:00:12 8.6 C 5.33 g/m*3 8.6 C 0 km/h
1952 06-03-2003 06:06:12 8.5 C 5.29 g/m*3 8.5 C 0 km/h
1953 06-03-2003 06:12:12 8.4 C 5.34 g/m*3 8.4 C 0 km/h
1954 06-03-2003 06:18:12 8.5 C 5.38 g/m*3 8.5 C 0 km/h
1955 06-03-2003 06:24:12 8.6 C 5.33 g/m*3 8.6 C 0 km/h
1956 06-03-2003 06:30:12 8.7 C 5.36 g/m*3 8.7 C 0 km/h
1957 06-03-2003 06:36:12 8.6 C 5.33 g/m*3 8.6 C 0 km/h
1958 06-03-2003 06:42:12 8.6 C 5.33 g/m*3 8.6 C 0 km/h
1959 06-03-2003 06:48:12 8.6 C 5.33 g/m*3 8.6 C 0 km/h
1960 06-03-2003 06:54:12 8.6 C 5.33 g/m*3 8.6 C 0 km/h
1961 06-03-2003 07:00:12 8.7 C 5.36 g/m*3 8.7 C 0 km/h
1962 06-03-2003 07:06:12 8.7 C 5.36 g/m*3 8.7 C 0 km/h
1963 06-03-2003 07:12:12 8.6 C 5.33 g/m*3 8.6 C 0 km/h
1964 06-03-2003 07:18:12 8.6 C 5.33 g/m*3 8.6 C 0 km/h
1965 06-03-2003 07:24:12 8.6 C 5.33 g/m*3 8.6 C 0 km/h
1966 06-03-2003 07:30:12 8.6 C 5.33 g/m*3 8.6 C 0 km/h
1967 06-03-2003 07:36:12 8.6 C 5.33 g/m*3 8.6 C 0 km/h
1968 06-03-2003 07:42:12 8.6 C 5.33 g/m*3 8.6 C 0 km/h
1969 06-03-2003 07:48:12 8.7 C 5.36 g/m*3 8.7 C 0 km/h
1970 06-03-2003 07:54:12 8.7 C 5.36 g/m*3 8.7 C 0 km/h
1971 06-03-2003 08:00:12 8.8 C 5.31 g/m*3 8.8 C 0 km/h
1972 06-03-2003 08:06:12 8.7 C 5.28 g/m*3 8.7 C 0 km/h
1973 06-03-2003 08:12:12 9 C 5.38 g/m*3 9 C 0 km/h
1974 06-03-2003 08:18:12 9 C 5.38 g/m*3 9 C 0 km/h
1975 06-03-2003 08:24:12 8.9 C 5.34 g/m*3 8.9 C 0 km/h
Sensor: Nr:Datum:Temp:Abs-Feuchte:Windchill:Wind:
Aussen-T/F 1976 06-03-2003 08:30:12 8.9 C 5.34 g/m*3 8.9 C 0 km/h
1977 06-03-2003 08:36:12 8.9 C 5.34 g/m*3 8.9 C 0 km/h
1978 06-03-2003 08:42:12 9 C 5.29 g/m*3 9 C 0 km/h
1979 06-03-2003 08:48:12 9.1 C 5.32 g/m*3 9.1 C 0 km/h
1980 06-03-2003 08:54:12 9.1 C 5.23 g/m*3 9.1 C 0 km/h
1981 06-03-2003 09:00:12 9.2 C 5.36 g/m*3 9.2 C 0 km/h
1982 06-03-2003 09:06:12 9.2 C 5.27 g/m*3 9.2 C 0 km/h
1983 06-03-2003 09:12:12 9.2 C 5.36 g/m*3 9.2 C 0 km/h
1984 06-03-2003 09:18:12 9.2 C 5.36 g/m*3 9.2 C 0 km/h
1985 06-03-2003 09:24:12 9.4 C 5.34 g/m*3 9.4 C 0 km/h
1986 06-03-2003 09:30:12 9.5 C 5.37 g/m*3 9.5 C 0 km/h
1987 06-03-2003 09:36:12 9.8 C 5.47 g/m*3 9.8 C 0 km/h
1988 06-03-2003 09:42:12 10 C 5.45 g/m*3 10 C 0 km/h
1989 06-03-2003 09:48:12 10.1 C 5.39 g/m*3 10.1 C 0 km/h
1990 06-03-2003 09:54:12 10.2 C 5.42 g/m*3 10.2 C 0 km/h
1991 06-03-2003 10:00:12 10.3 C 5.46 g/m*3 10.3 C 0 km/h
1992 06-03-2003 10:06:12 10.3 C 5.36 g/m*3 10.3 C 0 km/h
1993 06-03-2003 10:12:12 10.2 C 5.33 g/m*3 10.2 C 0 km/h
1994 06-03-2003 10:18:12 10.4 C 5.49 g/m*3 10.4 C 0 km/h
1995 06-03-2003 10:24:12 10.5 C 5.53 g/m*3 10.5 C 0 km/h
1996 06-03-2003 10:30:12 10.5 C 5.63 g/m*3 10.5 C 0 km/h
1997 06-03-2003 10:36:12 10.6 C 5.66 g/m*3 10.6 C 0 km/h
1998 06-03-2003 10:42:12 10.5 C 5.72 g/m*3 10.5 C 0 km/h
1999 06-03-2003 10:48:12 10.3 C 5.65 g/m*3 10.3 C 0 km/h
2000 06-03-2003 10:54:12 9.8 C 5.75 g/m*3 9.8 C 0 km/h
Sensor: Nr:Datum:Temp:Abs-Feuchte:Windchill:Wind:
Aussen-T/F 2001 06-03-2003 11:00:12 9.3 C 5.84 g/m*3 9.3 C 0 km/h
2002 06-03-2003 11:06:12 9.1 C 5.86 g/m*3 9.1 C 0 km/h
2003 06-03-2003 11:12:12 8.7 C 5.97 g/m*3 8.7 C 0 km/h
2004 06-03-2003 11:18:12 8.4 C 6.36 g/m*3 8.4 C 0 km/h
2005 06-03-2003 11:24:12 8.2 C 6.45 g/m*3 8.2 C 0 km/h
2006 06-03-2003 11:30:12 8.1 C 6.66 g/m*3 8.1 C 0 km/h
2007 06-03-2003 11:36:12 8.1 C 6.74 g/m*3 8.1 C 0 km/h
2008 06-03-2003 11:42:12 8.3 C 6.91 g/m*3 8.3 C 0 km/h
2009 06-03-2003 11:48:12 8.4 C 7.04 g/m*3 8.4 C 0 km/h
2010 06-03-2003 11:54:12 8.2 C 6.95 g/m*3 8.2 C 0 km/h
2011 06-03-2003 12:00:12 8.2 C 7.03 g/m*3 8.2 C 0 km/h
2012 06-03-2003 12:06:12 8.3 C 7.16 g/m*3 8.3 C 0 km/h
2013 06-03-2003 12:12:12 8.2 C 7.03 g/m*3 8.2 C 0 km/h
2014 06-03-2003 12:18:12 8.2 C 7.03 g/m*3 8.2 C 0 km/h
2015 06-03-2003 12:24:12 8.2 C 7.03 g/m*3 8.2 C 0 km/h
2016 06-03-2003 12:30:12 8.2 C 7.03 g/m*3 8.2 C 0 km/h
2017 06-03-2003 12:36:12 8.2 C 7.03 g/m*3 8.2 C 0 km/h
2018 06-03-2003 12:42:12 8 C 7.03 g/m*3 8 C 0 km/h
2019 06-03-2003 12:48:12 8.1 C 7.07 g/m*3 8.1 C 0 km/h
2020 06-03-2003 12:54:12 8.1 C 7.07 g/m*3 8.1 C 0 km/h
2021 06-03-2003 13:00:12 8 C 7.11 g/m*3 8 C 0 km/h
2022 06-03-2003 13:06:12 8 C 7.11 g/m*3 8 C 0 km/h
2023 06-03-2003 13:12:12 8.1 C 7.24 g/m*3 8.1 C 0 km/h
2024 06-03-2003 13:18:12 8.1 C 7.24 g/m*3 8.1 C 0 km/h
2025 06-03-2003 13:24:12 7.8 C 7.02 g/m*3 7.8 C 0 km/h
Sensor: Nr:Datum:Temp:Abs-Feuchte:Windchill:Wind:
Aussen-T/F 2026 06-03-2003 13:30:12 7.7 C 6.89 g/m*3 7.7 C 0 km/h
2027 06-03-2003 13:36:12 7.6 C 6.85 g/m*3 7.6 C 0 km/h
2028 06-03-2003 13:42:12 7.6 C 6.93 g/m*3 7.6 C 0 km/h
2029 06-03-2003 13:48:12 7.6 C 6.93 g/m*3 7.6 C 0 km/h
2030 06-03-2003 13:54:12 7.4 C 6.6 g/m*3 7.4 C 0 km/h
2031 06-03-2003 14:00:12 7.3 C 6.56 g/m*3 7.3 C 0 km/h
2032 06-03-2003 14:06:12 7.1 C 6.47 g/m*3 7.1 C 0 km/h
2033 06-03-2003 14:12:12 7 C 6.43 g/m*3 7 C 0 km/h
2034 06-03-2003 14:18:12 7 C 6.43 g/m*3 7 C 0 km/h
2035 06-03-2003 14:24:12 7 C 6.43 g/m*3 7 C 0 km/h
2036 06-03-2003 14:30:12 6.9 C 6.39 g/m*3 6.9 C 0 km/h
2037 06-03-2003 14:36:12 6.8 C 6.42 g/m*3 6.8 C 0 km/h
2038 06-03-2003 14:42:12 6.9 C 6.54 g/m*3 6.9 C 0 km/h
2039 06-03-2003 14:48:12 6.9 C 6.62 g/m*3 6.9 C 0 km/h
2040 06-03-2003 14:54:12 6.9 C 6.62 g/m*3 6.9 C 0 km/h
2041 06-03-2003 15:00:12 6.9 C 6.62 g/m*3 6.9 C 0 km/h
2042 06-03-2003 15:06:12 6.9 C 6.62 g/m*3 6.9 C 0 km/h
2043 06-03-2003 15:12:12 6.9 C 6.62 g/m*3 6.9 C 0 km/h
2044 06-03-2003 15:18:12 6.9 C 6.62 g/m*3 6.9 C 0 km/h
2045 06-03-2003 15:24:12 6.7 C 6.38 g/m*3 6.7 C 0 km/h
2046 06-03-2003 15:30:12 6.7 C 6.38 g/m*3 6.7 C 0 km/h
2047 06-03-2003 15:36:12 6.7 C 6.38 g/m*3 6.7 C 0 km/h
2048 06-03-2003 15:42:12 6.7 C 6.38 g/m*3 6.7 C 0 km/h
2049 06-03-2003 15:48:12 6.7 C 6.38 g/m*3 6.7 C 0 km/h
2050 06-03-2003 15:54:12 6.7 C 6.38 g/m*3 6.7 C 0 km/h
Sensor: Nr:Datum:Temp:Abs-Feuchte:Windchill:Wind:
Aussen-T/F 2051 06-03-2003 16:00:03 6.7 C 6.38 g/m*3 6.7 C 0 km/h
2052 06-03-2003 16:06:03 6.7 C 6.38 g/m*3 6.7 C 0 km/h
2053 06-03-2003 16:12:03 6.7 C 6.38 g/m*3 6.7 C 0 km/h
2054 06-03-2003 16:18:03 6.7 C 6.38 g/m*3 6.7 C 0 km/h
2055 06-03-2003 16:24:03 6.7 C 6.38 g/m*3 6.7 C 0 km/h
2056 06-03-2003 16:30:03 6.7 C 6.38 g/m*3 6.7 C 0 km/h
2057 06-03-2003 16:36:03 6.7 C 6.38 g/m*3 6.7 C 0 km/h
2058 06-03-2003 16:42:03 6.2 C 6.18 g/m*3 6.2 C 0 km/h
2059 06-03-2003 16:48:03 6.2 C 6.18 g/m*3 6.2 C 0 km/h
2060 06-03-2003 16:54:03 6.2 C 6.18 g/m*3 6.2 C 0 km/h
2061 06-03-2003 17:00:03 6.2 C 6.18 g/m*3 6.2 C 0 km/h
2062 06-03-2003 17:06:03 6.2 C 6.18 g/m*3 6.2 C 0 km/h
2063 06-03-2003 17:12:03 6.2 C 6.18 g/m*3 6.2 C 0 km/h
2064 06-03-2003 17:18:03 6.2 C 6.1 g/m*3 6.2 C 0 km/h
2065 06-03-2003 17:24:03 6.2 C 6.1 g/m*3 6.2 C 0 km/h
2066 06-03-2003 17:30:03 6.2 C 6.1 g/m*3 6.2 C 0 km/h
2067 06-03-2003 17:36:03 6.2 C 6.1 g/m*3 6.2 C 0 km/h
2068 06-03-2003 17:42:53 6.1 C 6.14 g/m*3 6.1 C 0 km/h
2069 06-03-2003 17:48:08 6.1 C 6.14 g/m*3 6.1 C 0 km/h
2070 06-03-2003 17:53:12 6 C 6.1 g/m*3 6 C 0 km/h
2071 06-03-2003 18:03:12 6 C 6.1 g/m*3 6 C 0 km/h
2072 06-03-2003 18:13:12 6 C 6.17 g/m*3 6 C 0 km/h
2073 06-03-2003 18:23:12 6 C 6.17 g/m*3 6 C 0 km/h
2074 06-03-2003 18:33:12 5.9 C 6.2 g/m*3 5.9 C 0 km/h
2075 06-03-2003 18:43:12 5.9 C 6.2 g/m*3 5.9 C 0 km/h
Sensor: Nr:Datum:Temp:Abs-Feuchte:Windchill:Wind:
Aussen-T/F 2076 06-03-2003 18:53:12 6 C 6.17 g/m*3 6 C 0 km/h
2077 06-03-2003 19:03:12 5.9 C 6.13 g/m*3 5.9 C 0 km/h
2078 06-03-2003 19:13:12 6 C 6.1 g/m*3 6 C 0 km/h
2079 06-03-2003 19:23:12 6 C 6.02 g/m*3 6 C 0 km/h
2080 06-03-2003 19:33:12 6 C 6.02 g/m*3 6 C 0 km/h
2081 06-03-2003 19:43:12 6.3 C 5.92 g/m*3 6.3 C 0 km/h
2082 06-03-2003 19:53:12 6.2 C 5.88 g/m*3 6.2 C 0 km/h
2083 06-03-2003 20:04:26 6.2 C 5.88 g/m*3 6.2 C 0 km/h
2084 06-03-2003 20:14:26 6.1 C 5.92 g/m*3 6.1 C 0 km/h
2085 06-03-2003 20:24:26 5.9 C 5.98 g/m*3 5.9 C 0 km/h
2086 06-03-2003 20:44:26 6 C 5.88 g/m*3 6 C 0 km/h
2087 06-03-2003 20:54:26 5.7 C 5.84 g/m*3 5.7 C 0 km/h
2088 06-03-2003 21:04:26 6 C 5.88 g/m*3 6 C 0 km/h
2089 06-03-2003 21:14:26 5.5 C 5.76 g/m*3 5.5 C 0 km/h
2090 06-03-2003 21:24:26 5.2 C 5.71 g/m*3 5.2 C 0 km/h
2091 06-03-2003 21:34:26 5.4 C 5.79 g/m*3 5.4 C 0 km/h
2092 06-03-2003 21:44:26 5.6 C 5.8 g/m*3 5.6 C 0 km/h
2093 06-03-2003 21:54:26 5.9 C 5.84 g/m*3 5.9 C 0 km/h
2094 06-03-2003 22:04:26 6 C 5.66 g/m*3 6 C 0 km/h
2095 06-03-2003 22:14:26 5.8 C 5.66 g/m*3 5.8 C 0 km/h
2096 06-03-2003 22:24:26 5.8 C 5.73 g/m*3 5.8 C 0 km/h
2097 06-03-2003 22:34:26 5.6 C 5.66 g/m*3 5.6 C 0 km/h
2098 06-03-2003 22:44:26 5.8 C 5.66 g/m*3 5.8 C 0 km/h
2099 06-03-2003 22:54:26 5.9 C 5.62 g/m*3 5.9 C 0 km/h
2100 06-03-2003 23:04:26 5.9 C 5.48 g/m*3 5.9 C 0 km/h
Sensor: Nr:Datum:Temp:Abs-Feuchte:Windchill:Wind:
Aussen-T/F 2101 06-03-2003 23:14:26 5.8 C 5.44 g/m*3 5.8 C 0 km/h
2102 06-03-2003 23:24:26 5.9 C 5.48 g/m*3 5.9 C 0 km/h
2103 06-03-2003 23:34:26 6 C 5.37 g/m*3 6 C 0 km/h
2104 06-03-2003 23:44:26 5.9 C 5.48 g/m*3 5.9 C 0 km/h
2105 06-03-2003 23:54:26 5.9 C 5.48 g/m*3 5.9 C 0 km/h
2106 07-03-2003 00:04:26 5.6 C 5.44 g/m*3 5.6 C 0 km/h
2107 07-03-2003 00:14:26 5.5 C 5.48 g/m*3 5.5 C 0 km/h
2108 07-03-2003 00:24:26 5.2 C 5.44 g/m*3 5.2 C 0 km/h
2109 07-03-2003 00:34:26 5.1 C 5.4 g/m*3 5.1 C 0 km/h
2110 07-03-2003 00:44:26 4.6 C 5.29 g/m*3 4.6 C 0 km/h
2111 07-03-2003 00:54:26 4.1 C 5.25 g/m*3 4.1 C 0 km/h
2112 07-03-2003 01:04:26 3.7 C 5.17 g/m*3 3.7 C 0 km/h
2113 07-03-2003 01:14:26 3.5 C 5.23 g/m*3 3.5 C 0 km/h
2114 07-03-2003 01:24:26 3.2 C 5.12 g/m*3 3.2 C 0 km/h
2115 07-03-2003 01:34:26 2.9 C 5.08 g/m*3 2.9 C 0 km/h
2116 07-03-2003 01:44:26 2.9 C 5.08 g/m*3 2.9 C 0 km/h
2117 07-03-2003 01:54:26 2.7 C 5.07 g/m*3 2.7 C 0 km/h
2118 07-03-2003 02:04:26 2.4 C 4.91 g/m*3 2.4 C 0 km/h
2119 07-03-2003 02:14:26 2.5 C 5 g/m*3 2.5 C 0 km/h
2120 07-03-2003 02:24:26 2.3 C 4.93 g/m*3 2.3 C 0 km/h
2121 07-03-2003 02:34:26 2.7 C 5.13 g/m*3 2.7 C 0 km/h
2122 07-03-2003 02:44:26 2.7 C 5.19 g/m*3 2.7 C 0 km/h
2123 07-03-2003 02:54:26 3 C 5.23 g/m*3 3 C 0 km/h
2124 07-03-2003 03:04:26 3.1 C 5.27 g/m*3 3.1 C 0 km/h
2125 07-03-2003 03:14:26 3.2 C 5.3 g/m*3 3.2 C 0 km/h
Sensor: Nr:Datum:Temp:Abs-Feuchte:Windchill:Wind:
Aussen-T/F 2126 07-03-2003 03:24:26 3.3 C 5.28 g/m*3 3.3 C 0 km/h
2127 07-03-2003 03:34:26 3.3 C 5.22 g/m*3 3.3 C 0 km/h
2128 07-03-2003 03:44:26 3.4 C 5.25 g/m*3 3.4 C 0 km/h
2129 07-03-2003 03:54:26 3.3 C 5.16 g/m*3 3.3 C 0 km/h
2130 07-03-2003 04:04:26 3.4 C 5.19 g/m*3 3.4 C 0 km/h
2131 07-03-2003 04:14:26 3.4 C 5.19 g/m*3 3.4 C 0 km/h
2132 07-03-2003 04:24:26 3.3 C 5.16 g/m*3 3.3 C 0 km/h
2133 07-03-2003 04:34:26 3.2 C 5.12 g/m*3 3.2 C 0 km/h
2134 07-03-2003 04:44:26 2.9 C 5.02 g/m*3 2.9 C 0 km/h
2135 07-03-2003 04:54:26 2.5 C 4.94 g/m*3 2.5 C 0 km/h
2136 07-03-2003 05:04:26 2.3 C 4.88 g/m*3 2.3 C 0 km/h
2137 07-03-2003 05:14:26 2.1 C 4.81 g/m*3 2.1 C 0 km/h
2138 07-03-2003 05:24:26 1.9 C 4.8 g/m*3 1.9 C 0 km/h
2139 07-03-2003 05:34:26 1.4 C 4.59 g/m*3 1.4 C 0 km/h
2140 07-03-2003 05:44:26 1.2 C 4.58 g/m*3 1.2 C 0 km/h
2141 07-03-2003 05:54:26 1.2 C 4.58 g/m*3 1.2 C 0 km/h
2142 07-03-2003 06:04:26 1.1 C 4.55 g/m*3 1.1 C 0 km/h
2143 07-03-2003 06:14:26 1.2 C 4.63 g/m*3 1.2 C 0 km/h
2144 07-03-2003 06:24:26 1.1 C 4.6 g/m*3 1.1 C 0 km/h
2145 07-03-2003 06:34:26 1.1 C 4.6 g/m*3 1.1 C 0 km/h
2146 07-03-2003 06:44:26 1.2 C 4.68 g/m*3 1.2 C 0 km/h
2147 07-03-2003 06:54:26 1.1 C 4.7 g/m*3 1.1 C 0 km/h
2148 07-03-2003 07:04:26 0.9 C 4.69 g/m*3 0.9 C 0 km/h
2149 07-03-2003 07:14:26 1 C 4.67 g/m*3 1 C 0 km/h
2150 07-03-2003 07:24:26 1 C 4.67 g/m*3 1 C 0 km/h
Sensor: Nr:Datum:Temp:Abs-Feuchte:Windchill:Wind:
Aussen-T/F 2151 07-03-2003 07:34:26 1.1 C 4.76 g/m*3 1.1 C 0 km/h
2152 07-03-2003 07:44:26 1.3 C 4.82 g/m*3 1.3 C 0 km/h
2153 07-03-2003 07:54:26 1.7 C 4.95 g/m*3 1.7 C 0 km/h
2154 07-03-2003 08:04:26 1.7 C 4.95 g/m*3 1.7 C 0 km/h
2155 07-03-2003 08:14:26 2.1 C 4.98 g/m*3 2.1 C 0 km/h
2156 07-03-2003 08:24:26 2.3 C 5.05 g/m*3 2.3 C 0 km/h
2157 07-03-2003 08:34:26 2.1 C 4.92 g/m*3 2.1 C 0 km/h
2158 07-03-2003 08:44:26 2 C 4.89 g/m*3 2 C 0 km/h
2159 07-03-2003 08:54:26 2.3 C 4.99 g/m*3 2.3 C 0 km/h
2160 07-03-2003 09:04:26 2.5 C 5 g/m*3 2.5 C 0 km/h
2161 07-03-2003 09:14:26 2.7 C 5.01 g/m*3 2.7 C 0 km/h
2162 07-03-2003 09:24:26 2.9 C 5.02 g/m*3 2.9 C 0 km/h
2163 07-03-2003 09:34:26 3.3 C 5.1 g/m*3 3.3 C 0 km/h
2164 07-03-2003 09:44:26 3.5 C 5.1 g/m*3 3.5 C 0 km/h
2165 07-03-2003 09:54:26 3.5 C 5.04 g/m*3 3.5 C 0 km/h
2166 07-03-2003 10:04:26 3.6 C 5.01 g/m*3 3.6 C 0 km/h
2167 07-03-2003 10:14:26 3.7 C 5.05 g/m*3 3.7 C 0 km/h
2168 07-03-2003 10:24:26 4.4 C 5.16 g/m*3 4.4 C 0 km/h
2169 07-03-2003 10:34:26 4.9 C 5.27 g/m*3 4.9 C 0 km/h
2170 07-03-2003 10:44:26 5.5 C 5.34 g/m*3 5.5 C 0 km/h
2171 07-03-2003 10:54:26 5.8 C 5.3 g/m*3 5.8 C 0 km/h
2172 07-03-2003 11:04:26 5.8 C 5.37 g/m*3 5.8 C 0 km/h
2173 07-03-2003 11:14:26 5.8 C 5.3 g/m*3 5.8 C 0 km/h
2174 07-03-2003 11:24:26 6.2 C 5.37 g/m*3 6.2 C 0 km/h
2175 07-03-2003 11:34:26 6.6 C 5.51 g/m*3 6.6 C 0 km/h
Sensor: Nr:Datum:Temp:Abs-Feuchte:Windchill:Wind:
Aussen-T/F 2176 07-03-2003 11:44:26 6.4 C 5.36 g/m*3 6.4 C 0 km/h
2177 07-03-2003 11:54:26 6.3 C 5.4 g/m*3 6.3 C 0 km/h
2178 07-03-2003 12:04:26 6.9 C 5.85 g/m*3 6.9 C 0 km/h
2179 07-03-2003 12:14:26 7.7 C 5.92 g/m*3 7.7 C 0 km/h
2180 07-03-2003 12:24:26 8.3 C 6.07 g/m*3 8.3 C 0 km/h
2181 07-03-2003 12:34:26 8.9 C 6.04 g/m*3 8.9 C 0 km/h
2182 07-03-2003 12:44:26 8.9 C 5.87 g/m*3 8.9 C 0 km/h
2183 07-03-2003 12:54:26 9.3 C 5.75 g/m*3 9.3 C 0 km/h
2184 07-03-2003 13:04:26 9.4 C 5.79 g/m*3 9.4 C 0 km/h
2185 07-03-2003 13:14:26 9.7 C 5.72 g/m*3 9.7 C 0 km/h
2186 07-03-2003 13:24:26 10.1 C 5.48 g/m*3 10.1 C 0 km/h
2187 07-03-2003 13:34:26 10.7 C 5.7 g/m*3 10.7 C 0 km/h
2188 07-03-2003 13:44:26 10.8 C 5.54 g/m*3 10.8 C 0 km/h
2189 07-03-2003 13:54:26 11.6 C 5.51 g/m*3 11.6 C 0 km/h
2190 07-03-2003 14:04:26 11.3 C 5.41 g/m*3 11.3 C 0 km/h
2191 07-03-2003 14:14:26 12 C 5.44 g/m*3 12 C 0 km/h
2192 07-03-2003 14:24:26 12.2 C 5.5 g/m*3 12.2 C 0 km/h
2193 07-03-2003 14:34:26 12.1 C 5.25 g/m*3 12.1 C 0 km/h
2194 07-03-2003 14:44:26 11.8 C 5.16 g/m*3 11.8 C 0 km/h
2195 07-03-2003 14:54:26 12 C 5.22 g/m*3 12 C 0 km/h
2196 07-03-2003 15:04:26 12 C 4.9 g/m*3 12 C 0 km/h
2197 07-03-2003 15:14:26 11.7 C 4.92 g/m*3 11.7 C 0 km/h
2198 07-03-2003 15:24:26 11.9 C 5.08 g/m*3 11.9 C 0 km/h
2199 07-03-2003 15:34:26 11.9 C 4.87 g/m*3 11.9 C 0 km/h
2200 07-03-2003 15:44:26 11.7 C 4.71 g/m*3 11.7 C 0 km/h
Sensor: Nr:Datum:Temp:Abs-Feuchte:Windchill:Wind:
Aussen-T/F 2201 07-03-2003 15:54:26 11.2 C 4.66 g/m*3 11.2 C 0 km/h
2202 07-03-2003 16:34:08 11 C 4.8 g/m*3 11 C 0 km/h
2203 07-03-2003 16:44:08 11 C 4.8 g/m*3 11 C 0 km/h
2204 07-03-2003 16:54:08 11 C 4.8 g/m*3 11 C 0 km/h
2205 07-03-2003 17:04:08 10.6 C 4.88 g/m*3 10.6 C 0 km/h
2206 07-03-2003 17:14:13 10.4 C 4.92 g/m*3 10.4 C 0 km/h
2207 07-03-2003 17:24:13 10.4 C 4.92 g/m*3 10.4 C 0 km/h
2208 07-03-2003 17:34:14 9.7 C 4.79 g/m*3 9.7 C 0 km/h
2209 07-03-2003 17:44:14 9.6 C 4.67 g/m*3 9.6 C 0 km/h
2210 07-03-2003 17:54:14 9.1 C 4.7 g/m*3 9.1 C 0 km/h
2211 07-03-2003 18:04:13 8.6 C 5.24 g/m*3 8.6 C 0 km/h
2212 07-03-2003 18:14:13 8.3 C 5.14 g/m*3 8.3 C 0 km/h
2213 07-03-2003 18:24:13 8 C 5.13 g/m*3 8 C 0 km/h
2214 07-03-2003 18:34:13 7.7 C 5.27 g/m*3 7.7 C 0 km/h
2215 07-03-2003 18:44:13 7.4 C 5.09 g/m*3 7.4 C 0 km/h
2216 07-03-2003 18:54:13 7.4 C 4.93 g/m*3 7.4 C 0 km/h
2217 07-03-2003 19:04:15 7.2 C 4.87 g/m*3 7.2 C 0 km/h
2218 07-03-2003 19:14:15 7.3 C 4.98 g/m*3 7.3 C 0 km/h
2219 07-03-2003 19:24:15 7.4 C 4.93 g/m*3 7.4 C 0 km/h
2220 07-03-2003 19:34:15 7.6 C 4.99 g/m*3 7.6 C 0 km/h
2221 07-03-2003 19:44:15 7.3 C 4.98 g/m*3 7.3 C 0 km/h
2222 07-03-2003 19:54:15 7.3 C 5.06 g/m*3 7.3 C 0 km/h
2223 07-03-2003 20:04:14 7.5 C 5.04 g/m*3 7.5 C 0 km/h
2224 07-03-2003 20:14:14 7.5 C 5.04 g/m*3 7.5 C 0 km/h
2225 07-03-2003 20:24:14 7.5 C 5.04 g/m*3 7.5 C 0 km/h
Sensor: Nr:Datum:Temp:Abs-Feuchte:Windchill:Wind:
Aussen-T/F 2226 07-03-2003 20:34:14 7.5 C 5.04 g/m*3 7.5 C 0 km/h
2227 07-03-2003 20:44:14 6.5 C 5.1 g/m*3 6.5 C 0 km/h
2228 07-03-2003 20:54:14 6.5 C 5.1 g/m*3 6.5 C 0 km/h
2229 07-03-2003 21:05:12 5.7 C 5.05 g/m*3 5.7 C 0 km/h
2230 07-03-2003 21:15:12 5.2 C 4.89 g/m*3 5.2 C 0 km/h
2231 07-03-2003 21:25:12 5.1 C 4.86 g/m*3 5.1 C 0 km/h
2232 07-03-2003 21:35:12 4.7 C 4.8 g/m*3 4.7 C 0 km/h
2233 07-03-2003 21:45:12 4.6 C 4.76 g/m*3 4.6 C 0 km/h
2234 07-03-2003 21:55:12 4.4 C 4.77 g/m*3 4.4 C 0 km/h
2235 07-03-2003 22:05:12 4.3 C 4.74 g/m*3 4.3 C 0 km/h
2236 07-03-2003 22:15:12 4.3 C 4.67 g/m*3 4.3 C 0 km/h
2237 07-03-2003 22:25:12 3.8 C 4.64 g/m*3 3.8 C 0 km/h
2238 07-03-2003 22:35:12 3.7 C 4.67 g/m*3 3.7 C 0 km/h
2239 07-03-2003 22:45:12 3.8 C 4.64 g/m*3 3.8 C 0 km/h
2240 07-03-2003 22:55:12 3.7 C 4.61 g/m*3 3.7 C 0 km/h
2241 07-03-2003 23:05:12 3.6 C 4.58 g/m*3 3.6 C 0 km/h
2242 07-03-2003 23:15:12 4.1 C 4.67 g/m*3 4.1 C 0 km/h
2243 07-03-2003 23:25:12 3.8 C 4.64 g/m*3 3.8 C 0 km/h
2244 07-03-2003 23:35:12 3.5 C 4.55 g/m*3 3.5 C 0 km/h
2245 07-03-2003 23:45:12 3.5 C 4.61 g/m*3 3.5 C 0 km/h
2246 07-03-2003 23:55:12 3.5 C 4.61 g/m*3 3.5 C 0 km/h

Legende:
   Min
   Max


Maximal/Minimal-Werte vom 28.02.2003 - 07.03.2003

Sensor Min Max Avg
Temp
(Aussen-T/F)
0.9 °C
04-03-2003  08:04:10
14.3 °C
05-03-2003  13:23:12
7.59 °C
Abs-Feuchte
(Aussen-T/F)
4.55 g/m*3
28-02-2003  04:18:10
8.1 g/m*3
02-03-2003  09:50:11
6.03 g/m*3
Windchill
(Aussen-T/F)
0.9 C
04-03-2003  08:04:10
14 C
28-02-2003  15:24:11
7.44 C

Die Daten stammen von einer Davis Vantage Pro 2 Wetter-Station und werden unter Linux mit der Software wview2wettercgi und aufbereitet. Alle Angaben erfolgen ohne Gewähr für ihre Vollständigkeit oder Richtigkeit.
Kontakt: Rainer Krienke krienke@uni-koblenz.de . Meine Webseiten an der Uni Koblenz oder privat.
Version: $Revision: 0.78 $